<?xml version="1.0" encoding="UTF-8" standalone="no" ?>
<gpx xmlns="http://www.topografix.com/GPX/1/1" xmlns:xsi="http://www.w3.org/2001/XMLSchema-instance" xsi:schemaLocation="http://www.topografix.com/GPX/1/1 http://www.topografix.com/GPX/1/1/gpx.xsd" version="1.1" creator="VisuGPX - https://www.visugpx.com">
  <metadata>
    <name>randonnée VTT Nancy-Flévillle 21/07/2013</name>
    <desc><![CDATA[randonnée VTT de Nancy à Fléville]]></desc>
  </metadata>
  <trk>
    <name><![CDATA[21 juillet 2013 Pacou]]></name>
    <trkseg>
      <trkpt lat="48.67407" lon="6.18217">
        <ele>264</ele>
        <time>2013-07-21T13:19:01Z</time>
      </trkpt>
      <trkpt lat="48.67398" lon="6.18228">
        <ele>260</ele>
        <time>2013-07-21T13:19:03Z</time>
      </trkpt>
      <trkpt lat="48.67393" lon="6.18239">
        <ele>259</ele>
        <time>2013-07-21T13:19:05Z</time>
      </trkpt>
      <trkpt lat="48.6739" lon="6.18251">
        <ele>255</ele>
        <time>2013-07-21T13:19:07Z</time>
      </trkpt>
      <trkpt lat="48.67388" lon="6.1826">
        <ele>252</ele>
        <time>2013-07-21T13:19:09Z</time>
      </trkpt>
      <trkpt lat="48.67386" lon="6.1827">
        <ele>250</ele>
        <time>2013-07-21T13:19:11Z</time>
      </trkpt>
      <trkpt lat="48.67382" lon="6.1828">
        <ele>248</ele>
        <time>2013-07-21T13:19:13Z</time>
      </trkpt>
      <trkpt lat="48.67378" lon="6.18288">
        <ele>246</ele>
        <time>2013-07-21T13:19:15Z</time>
      </trkpt>
      <trkpt lat="48.67374" lon="6.18295">
        <ele>246</ele>
        <time>2013-07-21T13:19:17Z</time>
      </trkpt>
      <trkpt lat="48.67371" lon="6.18301">
        <ele>248</ele>
        <time>2013-07-21T13:19:19Z</time>
      </trkpt>
      <trkpt lat="48.67363" lon="6.1831">
        <ele>245</ele>
        <time>2013-07-21T13:19:23Z</time>
      </trkpt>
      <trkpt lat="48.67357" lon="6.18317">
        <ele>240</ele>
        <time>2013-07-21T13:19:25Z</time>
      </trkpt>
      <trkpt lat="48.67351" lon="6.18325">
        <ele>237</ele>
        <time>2013-07-21T13:19:27Z</time>
      </trkpt>
      <trkpt lat="48.67347" lon="6.18333">
        <ele>238</ele>
        <time>2013-07-21T13:19:29Z</time>
      </trkpt>
      <trkpt lat="48.67344" lon="6.1834">
        <ele>242</ele>
        <time>2013-07-21T13:19:31Z</time>
      </trkpt>
      <trkpt lat="48.6734" lon="6.18346">
        <ele>245</ele>
        <time>2013-07-21T13:19:33Z</time>
      </trkpt>
      <trkpt lat="48.67334" lon="6.18351">
        <ele>250</ele>
        <time>2013-07-21T13:19:35Z</time>
      </trkpt>
      <trkpt lat="48.67331" lon="6.18356">
        <ele>251</ele>
        <time>2013-07-21T13:19:37Z</time>
      </trkpt>
      <trkpt lat="48.67327" lon="6.18363">
        <ele>251</ele>
        <time>2013-07-21T13:19:39Z</time>
      </trkpt>
      <trkpt lat="48.67323" lon="6.18369">
        <ele>252</ele>
        <time>2013-07-21T13:19:41Z</time>
      </trkpt>
      <trkpt lat="48.6732" lon="6.18375">
        <ele>253</ele>
        <time>2013-07-21T13:19:43Z</time>
      </trkpt>
      <trkpt lat="48.67316" lon="6.18382">
        <ele>253</ele>
        <time>2013-07-21T13:19:45Z</time>
      </trkpt>
      <trkpt lat="48.67312" lon="6.18389">
        <ele>253</ele>
        <time>2013-07-21T13:19:47Z</time>
      </trkpt>
      <trkpt lat="48.67306" lon="6.18395">
        <ele>254</ele>
        <time>2013-07-21T13:19:49Z</time>
      </trkpt>
      <trkpt lat="48.673" lon="6.18402">
        <ele>252</ele>
        <time>2013-07-21T13:19:51Z</time>
      </trkpt>
      <trkpt lat="48.67294" lon="6.1841">
        <ele>253</ele>
        <time>2013-07-21T13:19:53Z</time>
      </trkpt>
      <trkpt lat="48.67287" lon="6.18417">
        <ele>252</ele>
        <time>2013-07-21T13:19:55Z</time>
      </trkpt>
      <trkpt lat="48.67284" lon="6.18423">
        <ele>253</ele>
        <time>2013-07-21T13:19:57Z</time>
      </trkpt>
      <trkpt lat="48.67278" lon="6.1843">
        <ele>254</ele>
        <time>2013-07-21T13:19:59Z</time>
      </trkpt>
      <trkpt lat="48.67274" lon="6.18435">
        <ele>253</ele>
        <time>2013-07-21T13:20:01Z</time>
      </trkpt>
      <trkpt lat="48.6727" lon="6.18441">
        <ele>254</ele>
        <time>2013-07-21T13:20:03Z</time>
      </trkpt>
      <trkpt lat="48.67265" lon="6.18447">
        <ele>255</ele>
        <time>2013-07-21T13:20:05Z</time>
      </trkpt>
      <trkpt lat="48.67261" lon="6.18452">
        <ele>253</ele>
        <time>2013-07-21T13:20:07Z</time>
      </trkpt>
      <trkpt lat="48.67255" lon="6.18458">
        <ele>254</ele>
        <time>2013-07-21T13:20:09Z</time>
      </trkpt>
      <trkpt lat="48.67247" lon="6.18464">
        <ele>255</ele>
        <time>2013-07-21T13:20:11Z</time>
      </trkpt>
      <trkpt lat="48.67244" lon="6.18473">
        <ele>256</ele>
        <time>2013-07-21T13:20:13Z</time>
      </trkpt>
      <trkpt lat="48.67245" lon="6.18479">
        <ele>254</ele>
        <time>2013-07-21T13:20:15Z</time>
      </trkpt>
      <trkpt lat="48.67246" lon="6.18484">
        <ele>261</ele>
        <time>2013-07-21T13:20:17Z</time>
      </trkpt>
      <trkpt lat="48.67246" lon="6.18491">
        <ele>256</ele>
        <time>2013-07-21T13:20:19Z</time>
      </trkpt>
      <trkpt lat="48.67242" lon="6.185">
        <ele>250</ele>
        <time>2013-07-21T13:20:21Z</time>
      </trkpt>
      <trkpt lat="48.67237" lon="6.18506">
        <ele>251</ele>
        <time>2013-07-21T13:20:23Z</time>
      </trkpt>
      <trkpt lat="48.67232" lon="6.18512">
        <ele>252</ele>
        <time>2013-07-21T13:20:25Z</time>
      </trkpt>
      <trkpt lat="48.67228" lon="6.18515">
        <ele>255</ele>
        <time>2013-07-21T13:20:27Z</time>
      </trkpt>
      <trkpt lat="48.67224" lon="6.18521">
        <ele>253</ele>
        <time>2013-07-21T13:20:30Z</time>
      </trkpt>
      <trkpt lat="48.67217" lon="6.18526">
        <ele>256</ele>
        <time>2013-07-21T13:20:31Z</time>
      </trkpt>
      <trkpt lat="48.67211" lon="6.18531">
        <ele>256</ele>
        <time>2013-07-21T13:20:33Z</time>
      </trkpt>
      <trkpt lat="48.67205" lon="6.18538">
        <ele>259</ele>
        <time>2013-07-21T13:20:35Z</time>
      </trkpt>
      <trkpt lat="48.67199" lon="6.18545">
        <ele>258</ele>
        <time>2013-07-21T13:20:37Z</time>
      </trkpt>
      <trkpt lat="48.67192" lon="6.18555">
        <ele>258</ele>
        <time>2013-07-21T13:20:39Z</time>
      </trkpt>
      <trkpt lat="48.67184" lon="6.18563">
        <ele>261</ele>
        <time>2013-07-21T13:20:41Z</time>
      </trkpt>
      <trkpt lat="48.67176" lon="6.18571">
        <ele>252</ele>
        <time>2013-07-21T13:20:43Z</time>
      </trkpt>
      <trkpt lat="48.67167" lon="6.18578">
        <ele>248</ele>
        <time>2013-07-21T13:20:45Z</time>
      </trkpt>
      <trkpt lat="48.6716" lon="6.18582">
        <ele>248</ele>
        <time>2013-07-21T13:20:47Z</time>
      </trkpt>
      <trkpt lat="48.67151" lon="6.18587">
        <ele>242</ele>
        <time>2013-07-21T13:20:49Z</time>
      </trkpt>
      <trkpt lat="48.67142" lon="6.18594">
        <ele>243</ele>
        <time>2013-07-21T13:20:51Z</time>
      </trkpt>
      <trkpt lat="48.67133" lon="6.18604">
        <ele>245</ele>
        <time>2013-07-21T13:20:53Z</time>
      </trkpt>
      <trkpt lat="48.67126" lon="6.18612">
        <ele>245</ele>
        <time>2013-07-21T13:20:55Z</time>
      </trkpt>
      <trkpt lat="48.67118" lon="6.18618">
        <ele>239</ele>
        <time>2013-07-21T13:20:57Z</time>
      </trkpt>
      <trkpt lat="48.67108" lon="6.18625">
        <ele>239</ele>
        <time>2013-07-21T13:20:59Z</time>
      </trkpt>
      <trkpt lat="48.67101" lon="6.1863">
        <ele>238</ele>
        <time>2013-07-21T13:21:01Z</time>
      </trkpt>
      <trkpt lat="48.67095" lon="6.18635">
        <ele>237</ele>
        <time>2013-07-21T13:21:03Z</time>
      </trkpt>
      <trkpt lat="48.67088" lon="6.18642">
        <ele>238</ele>
        <time>2013-07-21T13:21:05Z</time>
      </trkpt>
      <trkpt lat="48.67082" lon="6.1865">
        <ele>239</ele>
        <time>2013-07-21T13:21:07Z</time>
      </trkpt>
      <trkpt lat="48.67076" lon="6.18661">
        <ele>241</ele>
        <time>2013-07-21T13:21:09Z</time>
      </trkpt>
      <trkpt lat="48.67068" lon="6.1867">
        <ele>243</ele>
        <time>2013-07-21T13:21:11Z</time>
      </trkpt>
      <trkpt lat="48.67062" lon="6.18679">
        <ele>242</ele>
        <time>2013-07-21T13:21:13Z</time>
      </trkpt>
      <trkpt lat="48.67057" lon="6.18688">
        <ele>242</ele>
        <time>2013-07-21T13:21:15Z</time>
      </trkpt>
      <trkpt lat="48.67052" lon="6.18696">
        <ele>245</ele>
        <time>2013-07-21T13:21:17Z</time>
      </trkpt>
      <trkpt lat="48.67046" lon="6.18704">
        <ele>247</ele>
        <time>2013-07-21T13:21:19Z</time>
      </trkpt>
      <trkpt lat="48.67039" lon="6.18713">
        <ele>248</ele>
        <time>2013-07-21T13:21:21Z</time>
      </trkpt>
      <trkpt lat="48.67032" lon="6.18722">
        <ele>246</ele>
        <time>2013-07-21T13:21:23Z</time>
      </trkpt>
      <trkpt lat="48.67026" lon="6.18729">
        <ele>245</ele>
        <time>2013-07-21T13:21:25Z</time>
      </trkpt>
      <trkpt lat="48.67019" lon="6.18739">
        <ele>250</ele>
        <time>2013-07-21T13:21:27Z</time>
      </trkpt>
      <trkpt lat="48.67012" lon="6.18747">
        <ele>253</ele>
        <time>2013-07-21T13:21:29Z</time>
      </trkpt>
      <trkpt lat="48.67004" lon="6.18757">
        <ele>252</ele>
        <time>2013-07-21T13:21:31Z</time>
      </trkpt>
      <trkpt lat="48.66997" lon="6.18766">
        <ele>250</ele>
        <time>2013-07-21T13:21:33Z</time>
      </trkpt>
      <trkpt lat="48.6699" lon="6.18775">
        <ele>254</ele>
        <time>2013-07-21T13:21:35Z</time>
      </trkpt>
      <trkpt lat="48.66983" lon="6.18784">
        <ele>253</ele>
        <time>2013-07-21T13:21:37Z</time>
      </trkpt>
      <trkpt lat="48.66976" lon="6.18794">
        <ele>252</ele>
        <time>2013-07-21T13:21:39Z</time>
      </trkpt>
      <trkpt lat="48.66971" lon="6.18806">
        <ele>254</ele>
        <time>2013-07-21T13:21:41Z</time>
      </trkpt>
      <trkpt lat="48.66965" lon="6.18817">
        <ele>255</ele>
        <time>2013-07-21T13:21:43Z</time>
      </trkpt>
      <trkpt lat="48.66959" lon="6.18824">
        <ele>257</ele>
        <time>2013-07-21T13:21:45Z</time>
      </trkpt>
      <trkpt lat="48.6695" lon="6.18829">
        <ele>240</ele>
        <time>2013-07-21T13:21:47Z</time>
      </trkpt>
      <trkpt lat="48.66939" lon="6.18835">
        <ele>236</ele>
        <time>2013-07-21T13:21:49Z</time>
      </trkpt>
      <trkpt lat="48.66931" lon="6.18839">
        <ele>234</ele>
        <time>2013-07-21T13:21:51Z</time>
      </trkpt>
      <trkpt lat="48.66924" lon="6.18843">
        <ele>235</ele>
        <time>2013-07-21T13:21:53Z</time>
      </trkpt>
      <trkpt lat="48.66918" lon="6.18848">
        <ele>234</ele>
        <time>2013-07-21T13:21:55Z</time>
      </trkpt>
      <trkpt lat="48.66912" lon="6.18854">
        <ele>234</ele>
        <time>2013-07-21T13:21:57Z</time>
      </trkpt>
      <trkpt lat="48.66904" lon="6.1886">
        <ele>233</ele>
        <time>2013-07-21T13:22:00Z</time>
      </trkpt>
      <trkpt lat="48.66897" lon="6.18865">
        <ele>234</ele>
        <time>2013-07-21T13:22:02Z</time>
      </trkpt>
      <trkpt lat="48.66892" lon="6.1887">
        <ele>233</ele>
        <time>2013-07-21T13:22:04Z</time>
      </trkpt>
      <trkpt lat="48.66885" lon="6.18875">
        <ele>235</ele>
        <time>2013-07-21T13:22:06Z</time>
      </trkpt>
      <trkpt lat="48.6688" lon="6.18881">
        <ele>239</ele>
        <time>2013-07-21T13:22:07Z</time>
      </trkpt>
      <trkpt lat="48.66874" lon="6.18887">
        <ele>245</ele>
        <time>2013-07-21T13:22:09Z</time>
      </trkpt>
      <trkpt lat="48.66869" lon="6.18893">
        <ele>245</ele>
        <time>2013-07-21T13:22:11Z</time>
      </trkpt>
      <trkpt lat="48.66864" lon="6.18899">
        <ele>246</ele>
        <time>2013-07-21T13:22:13Z</time>
      </trkpt>
      <trkpt lat="48.66859" lon="6.18905">
        <ele>246</ele>
        <time>2013-07-21T13:22:15Z</time>
      </trkpt>
      <trkpt lat="48.66855" lon="6.18909">
        <ele>240</ele>
        <time>2013-07-21T13:22:17Z</time>
      </trkpt>
      <trkpt lat="48.66851" lon="6.18914">
        <ele>236</ele>
        <time>2013-07-21T13:22:19Z</time>
      </trkpt>
      <trkpt lat="48.66845" lon="6.18921">
        <ele>240</ele>
        <time>2013-07-21T13:22:21Z</time>
      </trkpt>
      <trkpt lat="48.6684" lon="6.18926">
        <ele>243</ele>
        <time>2013-07-21T13:22:24Z</time>
      </trkpt>
      <trkpt lat="48.66836" lon="6.1893">
        <ele>241</ele>
        <time>2013-07-21T13:22:25Z</time>
      </trkpt>
      <trkpt lat="48.66831" lon="6.18933">
        <ele>254</ele>
        <time>2013-07-21T13:22:27Z</time>
      </trkpt>
      <trkpt lat="48.66827" lon="6.18937">
        <ele>255</ele>
        <time>2013-07-21T13:22:29Z</time>
      </trkpt>
      <trkpt lat="48.66823" lon="6.18941">
        <ele>255</ele>
        <time>2013-07-21T13:22:31Z</time>
      </trkpt>
      <trkpt lat="48.66818" lon="6.18946">
        <ele>260</ele>
        <time>2013-07-21T13:22:33Z</time>
      </trkpt>
      <trkpt lat="48.66814" lon="6.18951">
        <ele>256</ele>
        <time>2013-07-21T13:22:35Z</time>
      </trkpt>
      <trkpt lat="48.66811" lon="6.18957">
        <ele>253</ele>
        <time>2013-07-21T13:22:37Z</time>
      </trkpt>
      <trkpt lat="48.66806" lon="6.18962">
        <ele>253</ele>
        <time>2013-07-21T13:22:39Z</time>
      </trkpt>
      <trkpt lat="48.66801" lon="6.18967">
        <ele>255</ele>
        <time>2013-07-21T13:22:41Z</time>
      </trkpt>
      <trkpt lat="48.66793" lon="6.18972">
        <ele>252</ele>
        <time>2013-07-21T13:22:43Z</time>
      </trkpt>
      <trkpt lat="48.66787" lon="6.18976">
        <ele>243</ele>
        <time>2013-07-21T13:22:45Z</time>
      </trkpt>
      <trkpt lat="48.66783" lon="6.18978">
        <ele>238</ele>
        <time>2013-07-21T13:22:47Z</time>
      </trkpt>
      <trkpt lat="48.66775" lon="6.18982">
        <ele>230</ele>
        <time>2013-07-21T13:22:51Z</time>
      </trkpt>
      <trkpt lat="48.66771" lon="6.18985">
        <ele>231</ele>
        <time>2013-07-21T13:22:53Z</time>
      </trkpt>
      <trkpt lat="48.66763" lon="6.18992">
        <ele>232</ele>
        <time>2013-07-21T13:22:55Z</time>
      </trkpt>
      <trkpt lat="48.66756" lon="6.18998">
        <ele>233</ele>
        <time>2013-07-21T13:22:57Z</time>
      </trkpt>
      <trkpt lat="48.66752" lon="6.19001">
        <ele>234</ele>
        <time>2013-07-21T13:22:59Z</time>
      </trkpt>
      <trkpt lat="48.66748" lon="6.19002">
        <ele>238</ele>
        <time>2013-07-21T13:23:03Z</time>
      </trkpt>
      <trkpt lat="48.66744" lon="6.19003">
        <ele>238</ele>
        <time>2013-07-21T13:23:05Z</time>
      </trkpt>
      <trkpt lat="48.6674" lon="6.19004">
        <ele>237</ele>
        <time>2013-07-21T13:23:07Z</time>
      </trkpt>
      <trkpt lat="48.66734" lon="6.19007">
        <ele>237</ele>
        <time>2013-07-21T13:23:09Z</time>
      </trkpt>
      <trkpt lat="48.66727" lon="6.19011">
        <ele>237</ele>
        <time>2013-07-21T13:23:11Z</time>
      </trkpt>
      <trkpt lat="48.66722" lon="6.19014">
        <ele>238</ele>
        <time>2013-07-21T13:23:13Z</time>
      </trkpt>
      <trkpt lat="48.66719" lon="6.19015">
        <ele>236</ele>
        <time>2013-07-21T13:23:15Z</time>
      </trkpt>
      <trkpt lat="48.66718" lon="6.19016">
        <ele>236</ele>
        <time>2013-07-21T13:23:15Z</time>
      </trkpt>
      <trkpt lat="48.66713" lon="6.19018">
        <ele>232</ele>
        <time>2013-07-21T13:23:17Z</time>
      </trkpt>
      <trkpt lat="48.6671" lon="6.19019">
        <ele>236</ele>
        <time>2013-07-21T13:23:19Z</time>
      </trkpt>
      <trkpt lat="48.66707" lon="6.19021">
        <ele>239</ele>
        <time>2013-07-21T13:23:21Z</time>
      </trkpt>
      <trkpt lat="48.66705" lon="6.19026">
        <ele>233</ele>
        <time>2013-07-21T13:23:23Z</time>
      </trkpt>
      <trkpt lat="48.66704" lon="6.1903">
        <ele>229</ele>
        <time>2013-07-21T13:23:26Z</time>
      </trkpt>
      <trkpt lat="48.66703" lon="6.19035">
        <ele>231</ele>
        <time>2013-07-21T13:23:28Z</time>
      </trkpt>
      <trkpt lat="48.66701" lon="6.19041">
        <ele>233</ele>
        <time>2013-07-21T13:23:29Z</time>
      </trkpt>
      <trkpt lat="48.667" lon="6.19047">
        <ele>237</ele>
        <time>2013-07-21T13:23:31Z</time>
      </trkpt>
      <trkpt lat="48.66697" lon="6.19052">
        <ele>236</ele>
        <time>2013-07-21T13:23:33Z</time>
      </trkpt>
      <trkpt lat="48.66696" lon="6.19059">
        <ele>234</ele>
        <time>2013-07-21T13:23:36Z</time>
      </trkpt>
      <trkpt lat="48.66694" lon="6.19067">
        <ele>231</ele>
        <time>2013-07-21T13:23:38Z</time>
      </trkpt>
      <trkpt lat="48.66694" lon="6.19073">
        <ele>231</ele>
        <time>2013-07-21T13:23:40Z</time>
      </trkpt>
      <trkpt lat="48.66694" lon="6.19082">
        <ele>232</ele>
        <time>2013-07-21T13:23:42Z</time>
      </trkpt>
      <trkpt lat="48.66694" lon="6.19089">
        <ele>231</ele>
        <time>2013-07-21T13:23:44Z</time>
      </trkpt>
      <trkpt lat="48.66692" lon="6.19093">
        <ele>233</ele>
        <time>2013-07-21T13:23:46Z</time>
      </trkpt>
      <trkpt lat="48.66692" lon="6.19094">
        <ele>235</ele>
        <time>2013-07-21T13:23:57Z</time>
      </trkpt>
      <trkpt lat="48.66692" lon="6.19096">
        <ele>237</ele>
        <time>2013-07-21T13:23:59Z</time>
      </trkpt>
      <trkpt lat="48.66689" lon="6.19102">
        <ele>237</ele>
        <time>2013-07-21T13:24:01Z</time>
      </trkpt>
      <trkpt lat="48.66686" lon="6.19108">
        <ele>238</ele>
        <time>2013-07-21T13:24:03Z</time>
      </trkpt>
      <trkpt lat="48.66685" lon="6.19113">
        <ele>238</ele>
        <time>2013-07-21T13:24:05Z</time>
      </trkpt>
      <trkpt lat="48.66683" lon="6.19118">
        <ele>233</ele>
        <time>2013-07-21T13:24:07Z</time>
      </trkpt>
      <trkpt lat="48.66682" lon="6.1912">
        <ele>231</ele>
        <time>2013-07-21T13:24:09Z</time>
      </trkpt>
      <trkpt lat="48.6668" lon="6.19119">
        <ele>233</ele>
        <time>2013-07-21T13:24:11Z</time>
      </trkpt>
      <trkpt lat="48.66677" lon="6.19117">
        <ele>235</ele>
        <time>2013-07-21T13:24:13Z</time>
      </trkpt>
      <trkpt lat="48.66673" lon="6.19115">
        <ele>237</ele>
        <time>2013-07-21T13:24:15Z</time>
      </trkpt>
      <trkpt lat="48.6667" lon="6.19113">
        <ele>237</ele>
        <time>2013-07-21T13:24:17Z</time>
      </trkpt>
      <trkpt lat="48.66665" lon="6.1911">
        <ele>241</ele>
        <time>2013-07-21T13:24:19Z</time>
      </trkpt>
      <trkpt lat="48.66662" lon="6.19108">
        <ele>239</ele>
        <time>2013-07-21T13:24:21Z</time>
      </trkpt>
      <trkpt lat="48.66658" lon="6.19106">
        <ele>240</ele>
        <time>2013-07-21T13:24:23Z</time>
      </trkpt>
      <trkpt lat="48.66654" lon="6.19105">
        <ele>242</ele>
        <time>2013-07-21T13:24:25Z</time>
      </trkpt>
      <trkpt lat="48.6665" lon="6.19102">
        <ele>245</ele>
        <time>2013-07-21T13:24:27Z</time>
      </trkpt>
      <trkpt lat="48.66646" lon="6.191">
        <ele>245</ele>
        <time>2013-07-21T13:24:29Z</time>
      </trkpt>
      <trkpt lat="48.66642" lon="6.19098">
        <ele>245</ele>
        <time>2013-07-21T13:24:31Z</time>
      </trkpt>
      <trkpt lat="48.66637" lon="6.19095">
        <ele>245</ele>
        <time>2013-07-21T13:24:33Z</time>
      </trkpt>
      <trkpt lat="48.66632" lon="6.19092">
        <ele>246</ele>
        <time>2013-07-21T13:24:35Z</time>
      </trkpt>
      <trkpt lat="48.66628" lon="6.1909">
        <ele>247</ele>
        <time>2013-07-21T13:24:37Z</time>
      </trkpt>
      <trkpt lat="48.66623" lon="6.19088">
        <ele>248</ele>
        <time>2013-07-21T13:24:39Z</time>
      </trkpt>
      <trkpt lat="48.66619" lon="6.19085">
        <ele>250</ele>
        <time>2013-07-21T13:24:41Z</time>
      </trkpt>
      <trkpt lat="48.66614" lon="6.19083">
        <ele>248</ele>
        <time>2013-07-21T13:24:43Z</time>
      </trkpt>
      <trkpt lat="48.66609" lon="6.19081">
        <ele>246</ele>
        <time>2013-07-21T13:24:45Z</time>
      </trkpt>
      <trkpt lat="48.66604" lon="6.19078">
        <ele>245</ele>
        <time>2013-07-21T13:24:48Z</time>
      </trkpt>
      <trkpt lat="48.66599" lon="6.19075">
        <ele>247</ele>
        <time>2013-07-21T13:24:49Z</time>
      </trkpt>
      <trkpt lat="48.66594" lon="6.19074">
        <ele>248</ele>
        <time>2013-07-21T13:24:52Z</time>
      </trkpt>
      <trkpt lat="48.66589" lon="6.19072">
        <ele>247</ele>
        <time>2013-07-21T13:24:53Z</time>
      </trkpt>
      <trkpt lat="48.66584" lon="6.19069">
        <ele>248</ele>
        <time>2013-07-21T13:24:55Z</time>
      </trkpt>
      <trkpt lat="48.66579" lon="6.19067">
        <ele>248</ele>
        <time>2013-07-21T13:24:57Z</time>
      </trkpt>
      <trkpt lat="48.66574" lon="6.19065">
        <ele>248</ele>
        <time>2013-07-21T13:24:59Z</time>
      </trkpt>
      <trkpt lat="48.6657" lon="6.19061">
        <ele>247</ele>
        <time>2013-07-21T13:25:01Z</time>
      </trkpt>
      <trkpt lat="48.66565" lon="6.19059">
        <ele>249</ele>
        <time>2013-07-21T13:25:03Z</time>
      </trkpt>
      <trkpt lat="48.6656" lon="6.19056">
        <ele>247</ele>
        <time>2013-07-21T13:25:05Z</time>
      </trkpt>
      <trkpt lat="48.66555" lon="6.19053">
        <ele>247</ele>
        <time>2013-07-21T13:25:07Z</time>
      </trkpt>
      <trkpt lat="48.6655" lon="6.1905">
        <ele>246</ele>
        <time>2013-07-21T13:25:09Z</time>
      </trkpt>
      <trkpt lat="48.66546" lon="6.19048">
        <ele>246</ele>
        <time>2013-07-21T13:25:11Z</time>
      </trkpt>
      <trkpt lat="48.66542" lon="6.19044">
        <ele>246</ele>
        <time>2013-07-21T13:25:13Z</time>
      </trkpt>
      <trkpt lat="48.66538" lon="6.19041">
        <ele>248</ele>
        <time>2013-07-21T13:25:15Z</time>
      </trkpt>
      <trkpt lat="48.66533" lon="6.19038">
        <ele>245</ele>
        <time>2013-07-21T13:25:17Z</time>
      </trkpt>
      <trkpt lat="48.66528" lon="6.19036">
        <ele>244</ele>
        <time>2013-07-21T13:25:19Z</time>
      </trkpt>
      <trkpt lat="48.66524" lon="6.19033">
        <ele>246</ele>
        <time>2013-07-21T13:25:21Z</time>
      </trkpt>
      <trkpt lat="48.6652" lon="6.1903">
        <ele>246</ele>
        <time>2013-07-21T13:25:23Z</time>
      </trkpt>
      <trkpt lat="48.66515" lon="6.19028">
        <ele>246</ele>
        <time>2013-07-21T13:25:26Z</time>
      </trkpt>
      <trkpt lat="48.6651" lon="6.19026">
        <ele>246</ele>
        <time>2013-07-21T13:25:27Z</time>
      </trkpt>
      <trkpt lat="48.66506" lon="6.19025">
        <ele>246</ele>
        <time>2013-07-21T13:25:29Z</time>
      </trkpt>
      <trkpt lat="48.665" lon="6.19025">
        <ele>248</ele>
        <time>2013-07-21T13:25:31Z</time>
      </trkpt>
      <trkpt lat="48.66495" lon="6.19025">
        <ele>249</ele>
        <time>2013-07-21T13:25:34Z</time>
      </trkpt>
      <trkpt lat="48.66491" lon="6.19025">
        <ele>251</ele>
        <time>2013-07-21T13:25:36Z</time>
      </trkpt>
      <trkpt lat="48.66488" lon="6.19024">
        <ele>252</ele>
        <time>2013-07-21T13:25:37Z</time>
      </trkpt>
      <trkpt lat="48.66484" lon="6.1902">
        <ele>249</ele>
        <time>2013-07-21T13:25:39Z</time>
      </trkpt>
      <trkpt lat="48.66481" lon="6.19015">
        <ele>242</ele>
        <time>2013-07-21T13:25:41Z</time>
      </trkpt>
      <trkpt lat="48.66479" lon="6.19009">
        <ele>238</ele>
        <time>2013-07-21T13:25:43Z</time>
      </trkpt>
      <trkpt lat="48.66475" lon="6.19002">
        <ele>237</ele>
        <time>2013-07-21T13:25:45Z</time>
      </trkpt>
      <trkpt lat="48.66471" lon="6.18997">
        <ele>238</ele>
        <time>2013-07-21T13:25:47Z</time>
      </trkpt>
      <trkpt lat="48.66466" lon="6.18994">
        <ele>238</ele>
        <time>2013-07-21T13:25:49Z</time>
      </trkpt>
      <trkpt lat="48.66462" lon="6.18991">
        <ele>239</ele>
        <time>2013-07-21T13:25:51Z</time>
      </trkpt>
      <trkpt lat="48.66457" lon="6.18988">
        <ele>241</ele>
        <time>2013-07-21T13:25:53Z</time>
      </trkpt>
      <trkpt lat="48.66453" lon="6.18985">
        <ele>241</ele>
        <time>2013-07-21T13:25:55Z</time>
      </trkpt>
      <trkpt lat="48.66448" lon="6.18983">
        <ele>244</ele>
        <time>2013-07-21T13:25:57Z</time>
      </trkpt>
      <trkpt lat="48.66443" lon="6.1898">
        <ele>247</ele>
        <time>2013-07-21T13:25:59Z</time>
      </trkpt>
      <trkpt lat="48.66438" lon="6.18976">
        <ele>247</ele>
        <time>2013-07-21T13:26:01Z</time>
      </trkpt>
      <trkpt lat="48.66433" lon="6.18973">
        <ele>249</ele>
        <time>2013-07-21T13:26:03Z</time>
      </trkpt>
      <trkpt lat="48.66428" lon="6.18972">
        <ele>249</ele>
        <time>2013-07-21T13:26:05Z</time>
      </trkpt>
      <trkpt lat="48.66422" lon="6.18971">
        <ele>254</ele>
        <time>2013-07-21T13:26:07Z</time>
      </trkpt>
      <trkpt lat="48.66417" lon="6.18969">
        <ele>254</ele>
        <time>2013-07-21T13:26:09Z</time>
      </trkpt>
      <trkpt lat="48.66413" lon="6.18968">
        <ele>254</ele>
        <time>2013-07-21T13:26:11Z</time>
      </trkpt>
      <trkpt lat="48.66407" lon="6.18965">
        <ele>253</ele>
        <time>2013-07-21T13:26:13Z</time>
      </trkpt>
      <trkpt lat="48.66403" lon="6.18963">
        <ele>256</ele>
        <time>2013-07-21T13:26:15Z</time>
      </trkpt>
      <trkpt lat="48.66401" lon="6.18963">
        <ele>260</ele>
        <time>2013-07-21T13:26:17Z</time>
      </trkpt>
      <trkpt lat="48.66397" lon="6.1896">
        <ele>261</ele>
        <time>2013-07-21T13:26:19Z</time>
      </trkpt>
      <trkpt lat="48.66391" lon="6.18957">
        <ele>260</ele>
        <time>2013-07-21T13:26:21Z</time>
      </trkpt>
      <trkpt lat="48.66386" lon="6.1895">
        <ele>258</ele>
        <time>2013-07-21T13:26:23Z</time>
      </trkpt>
      <trkpt lat="48.66382" lon="6.18945">
        <ele>256</ele>
        <time>2013-07-21T13:26:26Z</time>
      </trkpt>
      <trkpt lat="48.66377" lon="6.1894">
        <ele>254</ele>
        <time>2013-07-21T13:26:27Z</time>
      </trkpt>
      <trkpt lat="48.66372" lon="6.18936">
        <ele>255</ele>
        <time>2013-07-21T13:26:29Z</time>
      </trkpt>
      <trkpt lat="48.66364" lon="6.18933">
        <ele>251</ele>
        <time>2013-07-21T13:26:32Z</time>
      </trkpt>
      <trkpt lat="48.66358" lon="6.18931">
        <ele>250</ele>
        <time>2013-07-21T13:26:33Z</time>
      </trkpt>
      <trkpt lat="48.66354" lon="6.18927">
        <ele>251</ele>
        <time>2013-07-21T13:26:35Z</time>
      </trkpt>
      <trkpt lat="48.66349" lon="6.18924">
        <ele>253</ele>
        <time>2013-07-21T13:26:37Z</time>
      </trkpt>
      <trkpt lat="48.66343" lon="6.18921">
        <ele>253</ele>
        <time>2013-07-21T13:26:39Z</time>
      </trkpt>
      <trkpt lat="48.66337" lon="6.18918">
        <ele>252</ele>
        <time>2013-07-21T13:26:41Z</time>
      </trkpt>
      <trkpt lat="48.66331" lon="6.18914">
        <ele>251</ele>
        <time>2013-07-21T13:26:43Z</time>
      </trkpt>
      <trkpt lat="48.66324" lon="6.18912">
        <ele>249</ele>
        <time>2013-07-21T13:26:45Z</time>
      </trkpt>
      <trkpt lat="48.66317" lon="6.18909">
        <ele>248</ele>
        <time>2013-07-21T13:26:47Z</time>
      </trkpt>
      <trkpt lat="48.66312" lon="6.18905">
        <ele>247</ele>
        <time>2013-07-21T13:26:49Z</time>
      </trkpt>
      <trkpt lat="48.66306" lon="6.18902">
        <ele>248</ele>
        <time>2013-07-21T13:26:51Z</time>
      </trkpt>
      <trkpt lat="48.663" lon="6.189">
        <ele>248</ele>
        <time>2013-07-21T13:26:53Z</time>
      </trkpt>
      <trkpt lat="48.66295" lon="6.18897">
        <ele>249</ele>
        <time>2013-07-21T13:26:56Z</time>
      </trkpt>
      <trkpt lat="48.6629" lon="6.18894">
        <ele>250</ele>
        <time>2013-07-21T13:26:57Z</time>
      </trkpt>
      <trkpt lat="48.66285" lon="6.18892">
        <ele>252</ele>
        <time>2013-07-21T13:26:59Z</time>
      </trkpt>
      <trkpt lat="48.66279" lon="6.18891">
        <ele>254</ele>
        <time>2013-07-21T13:27:01Z</time>
      </trkpt>
      <trkpt lat="48.66274" lon="6.18888">
        <ele>254</ele>
        <time>2013-07-21T13:27:03Z</time>
      </trkpt>
      <trkpt lat="48.6627" lon="6.18885">
        <ele>255</ele>
        <time>2013-07-21T13:27:05Z</time>
      </trkpt>
      <trkpt lat="48.66265" lon="6.18881">
        <ele>254</ele>
        <time>2013-07-21T13:27:08Z</time>
      </trkpt>
      <trkpt lat="48.6626" lon="6.18878">
        <ele>253</ele>
        <time>2013-07-21T13:27:10Z</time>
      </trkpt>
      <trkpt lat="48.66255" lon="6.18874">
        <ele>253</ele>
        <time>2013-07-21T13:27:11Z</time>
      </trkpt>
      <trkpt lat="48.6625" lon="6.18871">
        <ele>253</ele>
        <time>2013-07-21T13:27:14Z</time>
      </trkpt>
      <trkpt lat="48.66242" lon="6.18867">
        <ele>246</ele>
        <time>2013-07-21T13:27:15Z</time>
      </trkpt>
      <trkpt lat="48.66234" lon="6.18862">
        <ele>242</ele>
        <time>2013-07-21T13:27:17Z</time>
      </trkpt>
      <trkpt lat="48.66227" lon="6.18857">
        <ele>242</ele>
        <time>2013-07-21T13:27:19Z</time>
      </trkpt>
      <trkpt lat="48.66221" lon="6.18853">
        <ele>242</ele>
        <time>2013-07-21T13:27:21Z</time>
      </trkpt>
      <trkpt lat="48.66215" lon="6.18849">
        <ele>243</ele>
        <time>2013-07-21T13:27:23Z</time>
      </trkpt>
      <trkpt lat="48.66211" lon="6.18846">
        <ele>244</ele>
        <time>2013-07-21T13:27:25Z</time>
      </trkpt>
      <trkpt lat="48.66206" lon="6.18843">
        <ele>243</ele>
        <time>2013-07-21T13:27:27Z</time>
      </trkpt>
      <trkpt lat="48.66202" lon="6.18841">
        <ele>245</ele>
        <time>2013-07-21T13:27:29Z</time>
      </trkpt>
      <trkpt lat="48.66197" lon="6.18839">
        <ele>247</ele>
        <time>2013-07-21T13:27:31Z</time>
      </trkpt>
      <trkpt lat="48.66192" lon="6.18837">
        <ele>247</ele>
        <time>2013-07-21T13:27:33Z</time>
      </trkpt>
      <trkpt lat="48.66187" lon="6.18836">
        <ele>248</ele>
        <time>2013-07-21T13:27:35Z</time>
      </trkpt>
      <trkpt lat="48.66183" lon="6.18834">
        <ele>250</ele>
        <time>2013-07-21T13:27:37Z</time>
      </trkpt>
      <trkpt lat="48.66178" lon="6.18832">
        <ele>251</ele>
        <time>2013-07-21T13:27:39Z</time>
      </trkpt>
      <trkpt lat="48.66174" lon="6.1883">
        <ele>254</ele>
        <time>2013-07-21T13:27:41Z</time>
      </trkpt>
      <trkpt lat="48.66171" lon="6.18828">
        <ele>255</ele>
        <time>2013-07-21T13:27:43Z</time>
      </trkpt>
      <trkpt lat="48.66171" lon="6.18828">
        <ele>268</ele>
        <time>2013-07-21T13:27:45Z</time>
      </trkpt>
      <trkpt lat="48.66168" lon="6.18826">
        <ele>272</ele>
        <time>2013-07-21T13:27:47Z</time>
      </trkpt>
      <trkpt lat="48.66163" lon="6.18824">
        <ele>268</ele>
        <time>2013-07-21T13:27:49Z</time>
      </trkpt>
      <trkpt lat="48.66158" lon="6.18821">
        <ele>268</ele>
        <time>2013-07-21T13:27:51Z</time>
      </trkpt>
      <trkpt lat="48.66155" lon="6.18818">
        <ele>273</ele>
        <time>2013-07-21T13:27:53Z</time>
      </trkpt>
      <trkpt lat="48.66151" lon="6.18816">
        <ele>272</ele>
        <time>2013-07-21T13:27:55Z</time>
      </trkpt>
      <trkpt lat="48.66145" lon="6.18813">
        <ele>265</ele>
        <time>2013-07-21T13:27:57Z</time>
      </trkpt>
      <trkpt lat="48.66139" lon="6.1881">
        <ele>262</ele>
        <time>2013-07-21T13:27:59Z</time>
      </trkpt>
      <trkpt lat="48.66134" lon="6.18805">
        <ele>261</ele>
        <time>2013-07-21T13:28:01Z</time>
      </trkpt>
      <trkpt lat="48.66127" lon="6.18802">
        <ele>256</ele>
        <time>2013-07-21T13:28:03Z</time>
      </trkpt>
      <trkpt lat="48.66119" lon="6.18802">
        <ele>249</ele>
        <time>2013-07-21T13:28:05Z</time>
      </trkpt>
      <trkpt lat="48.66114" lon="6.18803">
        <ele>247</ele>
        <time>2013-07-21T13:28:07Z</time>
      </trkpt>
      <trkpt lat="48.66108" lon="6.18802">
        <ele>248</ele>
        <time>2013-07-21T13:28:09Z</time>
      </trkpt>
      <trkpt lat="48.66105" lon="6.18798">
        <ele>248</ele>
        <time>2013-07-21T13:28:11Z</time>
      </trkpt>
      <trkpt lat="48.66102" lon="6.18795">
        <ele>249</ele>
        <time>2013-07-21T13:28:13Z</time>
      </trkpt>
      <trkpt lat="48.66099" lon="6.18792">
        <ele>251</ele>
        <time>2013-07-21T13:28:15Z</time>
      </trkpt>
      <trkpt lat="48.66096" lon="6.18788">
        <ele>253</ele>
        <time>2013-07-21T13:28:17Z</time>
      </trkpt>
      <trkpt lat="48.66092" lon="6.18783">
        <ele>253</ele>
        <time>2013-07-21T13:28:19Z</time>
      </trkpt>
      <trkpt lat="48.66089" lon="6.18778">
        <ele>253</ele>
        <time>2013-07-21T13:28:21Z</time>
      </trkpt>
      <trkpt lat="48.66084" lon="6.18774">
        <ele>253</ele>
        <time>2013-07-21T13:28:23Z</time>
      </trkpt>
      <trkpt lat="48.66079" lon="6.1877">
        <ele>253</ele>
        <time>2013-07-21T13:28:25Z</time>
      </trkpt>
      <trkpt lat="48.66075" lon="6.18767">
        <ele>253</ele>
        <time>2013-07-21T13:28:27Z</time>
      </trkpt>
      <trkpt lat="48.66071" lon="6.18762">
        <ele>255</ele>
        <time>2013-07-21T13:28:29Z</time>
      </trkpt>
      <trkpt lat="48.66066" lon="6.18758">
        <ele>258</ele>
        <time>2013-07-21T13:28:32Z</time>
      </trkpt>
      <trkpt lat="48.66062" lon="6.18754">
        <ele>261</ele>
        <time>2013-07-21T13:28:34Z</time>
      </trkpt>
      <trkpt lat="48.66058" lon="6.1875">
        <ele>263</ele>
        <time>2013-07-21T13:28:35Z</time>
      </trkpt>
      <trkpt lat="48.66054" lon="6.18746">
        <ele>262</ele>
        <time>2013-07-21T13:28:37Z</time>
      </trkpt>
      <trkpt lat="48.6605" lon="6.18742">
        <ele>263</ele>
        <time>2013-07-21T13:28:39Z</time>
      </trkpt>
      <trkpt lat="48.66043" lon="6.18738">
        <ele>263</ele>
        <time>2013-07-21T13:28:42Z</time>
      </trkpt>
      <trkpt lat="48.66039" lon="6.18736">
        <ele>265</ele>
        <time>2013-07-21T13:28:43Z</time>
      </trkpt>
      <trkpt lat="48.66034" lon="6.18733">
        <ele>261</ele>
        <time>2013-07-21T13:28:45Z</time>
      </trkpt>
      <trkpt lat="48.66028" lon="6.1873">
        <ele>263</ele>
        <time>2013-07-21T13:28:47Z</time>
      </trkpt>
      <trkpt lat="48.66021" lon="6.18725">
        <ele>264</ele>
        <time>2013-07-21T13:28:49Z</time>
      </trkpt>
      <trkpt lat="48.66014" lon="6.1872">
        <ele>263</ele>
        <time>2013-07-21T13:28:51Z</time>
      </trkpt>
      <trkpt lat="48.66006" lon="6.18716">
        <ele>262</ele>
        <time>2013-07-21T13:28:53Z</time>
      </trkpt>
      <trkpt lat="48.66" lon="6.18711">
        <ele>263</ele>
        <time>2013-07-21T13:28:55Z</time>
      </trkpt>
      <trkpt lat="48.65995" lon="6.18706">
        <ele>264</ele>
        <time>2013-07-21T13:28:57Z</time>
      </trkpt>
      <trkpt lat="48.6599" lon="6.18703">
        <ele>267</ele>
        <time>2013-07-21T13:28:59Z</time>
      </trkpt>
      <trkpt lat="48.65994" lon="6.187">
        <ele>268</ele>
        <time>2013-07-21T13:29:02Z</time>
      </trkpt>
      <trkpt lat="48.66002" lon="6.187">
        <ele>269</ele>
        <time>2013-07-21T13:29:03Z</time>
      </trkpt>
      <trkpt lat="48.66006" lon="6.18701">
        <ele>270</ele>
        <time>2013-07-21T13:29:05Z</time>
      </trkpt>
      <trkpt lat="48.66007" lon="6.187">
        <ele>271</ele>
        <time>2013-07-21T13:29:07Z</time>
      </trkpt>
      <trkpt lat="48.65995" lon="6.18691">
        <ele>276</ele>
        <time>2013-07-21T13:29:09Z</time>
      </trkpt>
      <trkpt lat="48.65981" lon="6.18684">
        <ele>272</ele>
        <time>2013-07-21T13:29:11Z</time>
      </trkpt>
      <trkpt lat="48.65969" lon="6.18678">
        <ele>268</ele>
        <time>2013-07-21T13:29:13Z</time>
      </trkpt>
      <trkpt lat="48.65955" lon="6.18676">
        <ele>263</ele>
        <time>2013-07-21T13:29:15Z</time>
      </trkpt>
      <trkpt lat="48.65943" lon="6.18673">
        <ele>262</ele>
        <time>2013-07-21T13:29:18Z</time>
      </trkpt>
      <trkpt lat="48.65933" lon="6.18671">
        <ele>260</ele>
        <time>2013-07-21T13:29:19Z</time>
      </trkpt>
      <trkpt lat="48.65925" lon="6.18669">
        <ele>260</ele>
        <time>2013-07-21T13:29:21Z</time>
      </trkpt>
      <trkpt lat="48.65916" lon="6.18667">
        <ele>257</ele>
        <time>2013-07-21T13:29:23Z</time>
      </trkpt>
      <trkpt lat="48.65908" lon="6.18666">
        <ele>255</ele>
        <time>2013-07-21T13:29:25Z</time>
      </trkpt>
      <trkpt lat="48.659" lon="6.18663">
        <ele>253</ele>
        <time>2013-07-21T13:29:28Z</time>
      </trkpt>
      <trkpt lat="48.65892" lon="6.18662">
        <ele>254</ele>
        <time>2013-07-21T13:29:29Z</time>
      </trkpt>
      <trkpt lat="48.65885" lon="6.18659">
        <ele>253</ele>
        <time>2013-07-21T13:29:31Z</time>
      </trkpt>
      <trkpt lat="48.65878" lon="6.18657">
        <ele>254</ele>
        <time>2013-07-21T13:29:33Z</time>
      </trkpt>
      <trkpt lat="48.65872" lon="6.18654">
        <ele>253</ele>
        <time>2013-07-21T13:29:35Z</time>
      </trkpt>
      <trkpt lat="48.65865" lon="6.18651">
        <ele>254</ele>
        <time>2013-07-21T13:29:37Z</time>
      </trkpt>
      <trkpt lat="48.65859" lon="6.18649">
        <ele>253</ele>
        <time>2013-07-21T13:29:39Z</time>
      </trkpt>
      <trkpt lat="48.65851" lon="6.18646">
        <ele>253</ele>
        <time>2013-07-21T13:29:41Z</time>
      </trkpt>
      <trkpt lat="48.65844" lon="6.18643">
        <ele>251</ele>
        <time>2013-07-21T13:29:43Z</time>
      </trkpt>
      <trkpt lat="48.65837" lon="6.1864">
        <ele>251</ele>
        <time>2013-07-21T13:29:45Z</time>
      </trkpt>
      <trkpt lat="48.6583" lon="6.18637">
        <ele>250</ele>
        <time>2013-07-21T13:29:47Z</time>
      </trkpt>
      <trkpt lat="48.65824" lon="6.18634">
        <ele>250</ele>
        <time>2013-07-21T13:29:49Z</time>
      </trkpt>
      <trkpt lat="48.65819" lon="6.18631">
        <ele>250</ele>
        <time>2013-07-21T13:29:51Z</time>
      </trkpt>
      <trkpt lat="48.65812" lon="6.18627">
        <ele>249</ele>
        <time>2013-07-21T13:29:53Z</time>
      </trkpt>
      <trkpt lat="48.65804" lon="6.18624">
        <ele>249</ele>
        <time>2013-07-21T13:29:55Z</time>
      </trkpt>
      <trkpt lat="48.65795" lon="6.1862">
        <ele>248</ele>
        <time>2013-07-21T13:29:57Z</time>
      </trkpt>
      <trkpt lat="48.65786" lon="6.18616">
        <ele>245</ele>
        <time>2013-07-21T13:29:59Z</time>
      </trkpt>
      <trkpt lat="48.65775" lon="6.18614">
        <ele>244</ele>
        <time>2013-07-21T13:30:01Z</time>
      </trkpt>
      <trkpt lat="48.65765" lon="6.18614">
        <ele>246</ele>
        <time>2013-07-21T13:30:03Z</time>
      </trkpt>
      <trkpt lat="48.65753" lon="6.18613">
        <ele>248</ele>
        <time>2013-07-21T13:30:05Z</time>
      </trkpt>
      <trkpt lat="48.65741" lon="6.18614">
        <ele>248</ele>
        <time>2013-07-21T13:30:08Z</time>
      </trkpt>
      <trkpt lat="48.65729" lon="6.18614">
        <ele>251</ele>
        <time>2013-07-21T13:30:10Z</time>
      </trkpt>
      <trkpt lat="48.65716" lon="6.18615">
        <ele>251</ele>
        <time>2013-07-21T13:30:12Z</time>
      </trkpt>
      <trkpt lat="48.65703" lon="6.18616">
        <ele>249</ele>
        <time>2013-07-21T13:30:14Z</time>
      </trkpt>
      <trkpt lat="48.65687" lon="6.18615">
        <ele>250</ele>
        <time>2013-07-21T13:30:16Z</time>
      </trkpt>
      <trkpt lat="48.65671" lon="6.18615">
        <ele>249</ele>
        <time>2013-07-21T13:30:18Z</time>
      </trkpt>
      <trkpt lat="48.65656" lon="6.18615">
        <ele>248</ele>
        <time>2013-07-21T13:30:19Z</time>
      </trkpt>
      <trkpt lat="48.65643" lon="6.18615">
        <ele>249</ele>
        <time>2013-07-21T13:30:21Z</time>
      </trkpt>
      <trkpt lat="48.65631" lon="6.18614">
        <ele>250</ele>
        <time>2013-07-21T13:30:23Z</time>
      </trkpt>
      <trkpt lat="48.65618" lon="6.18613">
        <ele>249</ele>
        <time>2013-07-21T13:30:25Z</time>
      </trkpt>
      <trkpt lat="48.65604" lon="6.18613">
        <ele>248</ele>
        <time>2013-07-21T13:30:27Z</time>
      </trkpt>
      <trkpt lat="48.6559" lon="6.18614">
        <ele>246</ele>
        <time>2013-07-21T13:30:29Z</time>
      </trkpt>
      <trkpt lat="48.65578" lon="6.18616">
        <ele>244</ele>
        <time>2013-07-21T13:30:31Z</time>
      </trkpt>
      <trkpt lat="48.65569" lon="6.1862">
        <ele>244</ele>
        <time>2013-07-21T13:30:33Z</time>
      </trkpt>
      <trkpt lat="48.65562" lon="6.18627">
        <ele>244</ele>
        <time>2013-07-21T13:30:35Z</time>
      </trkpt>
      <trkpt lat="48.65557" lon="6.18636">
        <ele>242</ele>
        <time>2013-07-21T13:30:37Z</time>
      </trkpt>
      <trkpt lat="48.65553" lon="6.18642">
        <ele>241</ele>
        <time>2013-07-21T13:30:39Z</time>
      </trkpt>
      <trkpt lat="48.65539" lon="6.18638">
        <ele>246</ele>
        <time>2013-07-21T13:30:47Z</time>
      </trkpt>
      <trkpt lat="48.65533" lon="6.18634">
        <ele>245</ele>
        <time>2013-07-21T13:30:49Z</time>
      </trkpt>
      <trkpt lat="48.65529" lon="6.18629">
        <ele>241</ele>
        <time>2013-07-21T13:30:51Z</time>
      </trkpt>
      <trkpt lat="48.65524" lon="6.18622">
        <ele>241</ele>
        <time>2013-07-21T13:30:53Z</time>
      </trkpt>
      <trkpt lat="48.65518" lon="6.18615">
        <ele>240</ele>
        <time>2013-07-21T13:30:55Z</time>
      </trkpt>
      <trkpt lat="48.65512" lon="6.18613">
        <ele>241</ele>
        <time>2013-07-21T13:30:57Z</time>
      </trkpt>
      <trkpt lat="48.65504" lon="6.1861">
        <ele>243</ele>
        <time>2013-07-21T13:31:01Z</time>
      </trkpt>
      <trkpt lat="48.65499" lon="6.18611">
        <ele>246</ele>
        <time>2013-07-21T13:31:03Z</time>
      </trkpt>
      <trkpt lat="48.65493" lon="6.18611">
        <ele>242</ele>
        <time>2013-07-21T13:31:06Z</time>
      </trkpt>
      <trkpt lat="48.65485" lon="6.18611">
        <ele>242</ele>
        <time>2013-07-21T13:31:08Z</time>
      </trkpt>
      <trkpt lat="48.6548" lon="6.1861">
        <ele>245</ele>
        <time>2013-07-21T13:31:09Z</time>
      </trkpt>
      <trkpt lat="48.65472" lon="6.18606">
        <ele>245</ele>
        <time>2013-07-21T13:31:13Z</time>
      </trkpt>
      <trkpt lat="48.65455" lon="6.18598">
        <ele>243</ele>
        <time>2013-07-21T13:31:21Z</time>
      </trkpt>
      <trkpt lat="48.65442" lon="6.18594">
        <ele>243</ele>
        <time>2013-07-21T13:31:27Z</time>
      </trkpt>
      <trkpt lat="48.65435" lon="6.18591">
        <ele>243</ele>
        <time>2013-07-21T13:31:31Z</time>
      </trkpt>
      <trkpt lat="48.65426" lon="6.18588">
        <ele>248</ele>
        <time>2013-07-21T13:31:37Z</time>
      </trkpt>
      <trkpt lat="48.65402" lon="6.18576">
        <ele>245</ele>
        <time>2013-07-21T13:31:50Z</time>
      </trkpt>
      <trkpt lat="48.65397" lon="6.18575">
        <ele>246</ele>
        <time>2013-07-21T13:31:51Z</time>
      </trkpt>
      <trkpt lat="48.6539" lon="6.18571">
        <ele>248</ele>
        <time>2013-07-21T13:31:55Z</time>
      </trkpt>
      <trkpt lat="48.65374" lon="6.18566">
        <ele>249</ele>
        <time>2013-07-21T13:32:03Z</time>
      </trkpt>
      <trkpt lat="48.65368" lon="6.18561">
        <ele>250</ele>
        <time>2013-07-21T13:32:07Z</time>
      </trkpt>
      <trkpt lat="48.65353" lon="6.18551">
        <ele>252</ele>
        <time>2013-07-21T13:32:17Z</time>
      </trkpt>
      <trkpt lat="48.65348" lon="6.18548">
        <ele>252</ele>
        <time>2013-07-21T13:32:19Z</time>
      </trkpt>
      <trkpt lat="48.65324" lon="6.18534">
        <ele>253</ele>
        <time>2013-07-21T13:32:31Z</time>
      </trkpt>
      <trkpt lat="48.65311" lon="6.18527">
        <ele>253</ele>
        <time>2013-07-21T13:32:37Z</time>
      </trkpt>
      <trkpt lat="48.65303" lon="6.18522">
        <ele>252</ele>
        <time>2013-07-21T13:32:41Z</time>
      </trkpt>
      <trkpt lat="48.65299" lon="6.18518">
        <ele>251</ele>
        <time>2013-07-21T13:32:43Z</time>
      </trkpt>
      <trkpt lat="48.65294" lon="6.18515">
        <ele>250</ele>
        <time>2013-07-21T13:32:45Z</time>
      </trkpt>
      <trkpt lat="48.65237" lon="6.18489">
        <ele>266</ele>
        <time>2013-07-21T13:34:57Z</time>
      </trkpt>
      <trkpt lat="48.65228" lon="6.18482">
        <ele>266</ele>
        <time>2013-07-21T13:34:59Z</time>
      </trkpt>
      <trkpt lat="48.65219" lon="6.18476">
        <ele>266</ele>
        <time>2013-07-21T13:35:02Z</time>
      </trkpt>
      <trkpt lat="48.6521" lon="6.18471">
        <ele>269</ele>
        <time>2013-07-21T13:35:03Z</time>
      </trkpt>
      <trkpt lat="48.65198" lon="6.18464">
        <ele>265</ele>
        <time>2013-07-21T13:35:06Z</time>
      </trkpt>
      <trkpt lat="48.65184" lon="6.18458">
        <ele>262</ele>
        <time>2013-07-21T13:35:08Z</time>
      </trkpt>
      <trkpt lat="48.65169" lon="6.1845">
        <ele>262</ele>
        <time>2013-07-21T13:35:10Z</time>
      </trkpt>
      <trkpt lat="48.65147" lon="6.18439">
        <ele>261</ele>
        <time>2013-07-21T13:35:13Z</time>
      </trkpt>
      <trkpt lat="48.65139" lon="6.18434">
        <ele>257</ele>
        <time>2013-07-21T13:35:13Z</time>
      </trkpt>
      <trkpt lat="48.65126" lon="6.18426">
        <ele>254</ele>
        <time>2013-07-21T13:35:15Z</time>
      </trkpt>
      <trkpt lat="48.65111" lon="6.18418">
        <ele>255</ele>
        <time>2013-07-21T13:35:17Z</time>
      </trkpt>
      <trkpt lat="48.65097" lon="6.18411">
        <ele>252</ele>
        <time>2013-07-21T13:35:20Z</time>
      </trkpt>
      <trkpt lat="48.65084" lon="6.18405">
        <ele>251</ele>
        <time>2013-07-21T13:35:21Z</time>
      </trkpt>
      <trkpt lat="48.65074" lon="6.184">
        <ele>247</ele>
        <time>2013-07-21T13:35:23Z</time>
      </trkpt>
      <trkpt lat="48.65068" lon="6.18397">
        <ele>244</ele>
        <time>2013-07-21T13:35:25Z</time>
      </trkpt>
      <trkpt lat="48.6506" lon="6.18395">
        <ele>244</ele>
        <time>2013-07-21T13:35:28Z</time>
      </trkpt>
      <trkpt lat="48.65051" lon="6.1839">
        <ele>244</ele>
        <time>2013-07-21T13:35:29Z</time>
      </trkpt>
      <trkpt lat="48.65042" lon="6.18385">
        <ele>244</ele>
        <time>2013-07-21T13:35:31Z</time>
      </trkpt>
      <trkpt lat="48.65033" lon="6.18381">
        <ele>244</ele>
        <time>2013-07-21T13:35:33Z</time>
      </trkpt>
      <trkpt lat="48.65025" lon="6.18376">
        <ele>245</ele>
        <time>2013-07-21T13:35:35Z</time>
      </trkpt>
      <trkpt lat="48.65018" lon="6.18373">
        <ele>245</ele>
        <time>2013-07-21T13:35:37Z</time>
      </trkpt>
      <trkpt lat="48.65011" lon="6.18368">
        <ele>244</ele>
        <time>2013-07-21T13:35:39Z</time>
      </trkpt>
      <trkpt lat="48.65004" lon="6.18363">
        <ele>244</ele>
        <time>2013-07-21T13:35:42Z</time>
      </trkpt>
      <trkpt lat="48.64999" lon="6.18356">
        <ele>244</ele>
        <time>2013-07-21T13:35:44Z</time>
      </trkpt>
      <trkpt lat="48.64991" lon="6.18351">
        <ele>245</ele>
        <time>2013-07-21T13:35:46Z</time>
      </trkpt>
      <trkpt lat="48.64984" lon="6.18347">
        <ele>247</ele>
        <time>2013-07-21T13:35:48Z</time>
      </trkpt>
      <trkpt lat="48.64978" lon="6.18343">
        <ele>245</ele>
        <time>2013-07-21T13:35:50Z</time>
      </trkpt>
      <trkpt lat="48.64972" lon="6.18339">
        <ele>245</ele>
        <time>2013-07-21T13:35:52Z</time>
      </trkpt>
      <trkpt lat="48.64965" lon="6.18336">
        <ele>242</ele>
        <time>2013-07-21T13:35:53Z</time>
      </trkpt>
      <trkpt lat="48.64958" lon="6.18332">
        <ele>242</ele>
        <time>2013-07-21T13:35:55Z</time>
      </trkpt>
      <trkpt lat="48.64952" lon="6.18329">
        <ele>242</ele>
        <time>2013-07-21T13:35:58Z</time>
      </trkpt>
      <trkpt lat="48.64946" lon="6.18325">
        <ele>243</ele>
        <time>2013-07-21T13:36:00Z</time>
      </trkpt>
      <trkpt lat="48.64941" lon="6.18323">
        <ele>244</ele>
        <time>2013-07-21T13:36:02Z</time>
      </trkpt>
      <trkpt lat="48.64935" lon="6.1832">
        <ele>245</ele>
        <time>2013-07-21T13:36:03Z</time>
      </trkpt>
      <trkpt lat="48.64931" lon="6.18319">
        <ele>246</ele>
        <time>2013-07-21T13:36:05Z</time>
      </trkpt>
      <trkpt lat="48.64928" lon="6.18317">
        <ele>246</ele>
        <time>2013-07-21T13:36:05Z</time>
      </trkpt>
      <trkpt lat="48.6492" lon="6.18314">
        <ele>243</ele>
        <time>2013-07-21T13:36:07Z</time>
      </trkpt>
      <trkpt lat="48.64912" lon="6.1831">
        <ele>244</ele>
        <time>2013-07-21T13:36:10Z</time>
      </trkpt>
      <trkpt lat="48.64904" lon="6.18306">
        <ele>242</ele>
        <time>2013-07-21T13:36:11Z</time>
      </trkpt>
      <trkpt lat="48.64894" lon="6.18303">
        <ele>244</ele>
        <time>2013-07-21T13:36:14Z</time>
      </trkpt>
      <trkpt lat="48.64885" lon="6.18299">
        <ele>247</ele>
        <time>2013-07-21T13:36:15Z</time>
      </trkpt>
      <trkpt lat="48.64878" lon="6.18297">
        <ele>247</ele>
        <time>2013-07-21T13:36:17Z</time>
      </trkpt>
      <trkpt lat="48.64869" lon="6.18294">
        <ele>246</ele>
        <time>2013-07-21T13:36:19Z</time>
      </trkpt>
      <trkpt lat="48.64861" lon="6.1829">
        <ele>244</ele>
        <time>2013-07-21T13:36:21Z</time>
      </trkpt>
      <trkpt lat="48.64853" lon="6.18288">
        <ele>243</ele>
        <time>2013-07-21T13:36:24Z</time>
      </trkpt>
      <trkpt lat="48.64845" lon="6.18286">
        <ele>242</ele>
        <time>2013-07-21T13:36:26Z</time>
      </trkpt>
      <trkpt lat="48.64838" lon="6.18284">
        <ele>242</ele>
        <time>2013-07-21T13:36:28Z</time>
      </trkpt>
      <trkpt lat="48.64831" lon="6.18282">
        <ele>241</ele>
        <time>2013-07-21T13:36:29Z</time>
      </trkpt>
      <trkpt lat="48.64824" lon="6.1828">
        <ele>243</ele>
        <time>2013-07-21T13:36:31Z</time>
      </trkpt>
      <trkpt lat="48.64819" lon="6.18278">
        <ele>246</ele>
        <time>2013-07-21T13:36:33Z</time>
      </trkpt>
      <trkpt lat="48.64814" lon="6.18276">
        <ele>244</ele>
        <time>2013-07-21T13:36:35Z</time>
      </trkpt>
      <trkpt lat="48.64808" lon="6.18274">
        <ele>244</ele>
        <time>2013-07-21T13:36:37Z</time>
      </trkpt>
      <trkpt lat="48.64804" lon="6.18271">
        <ele>245</ele>
        <time>2013-07-21T13:36:40Z</time>
      </trkpt>
      <trkpt lat="48.64799" lon="6.1827">
        <ele>245</ele>
        <time>2013-07-21T13:36:41Z</time>
      </trkpt>
      <trkpt lat="48.64796" lon="6.18268">
        <ele>246</ele>
        <time>2013-07-21T13:36:43Z</time>
      </trkpt>
      <trkpt lat="48.64792" lon="6.18266">
        <ele>248</ele>
        <time>2013-07-21T13:36:45Z</time>
      </trkpt>
      <trkpt lat="48.64788" lon="6.18264">
        <ele>247</ele>
        <time>2013-07-21T13:36:47Z</time>
      </trkpt>
      <trkpt lat="48.64785" lon="6.18263">
        <ele>247</ele>
        <time>2013-07-21T13:36:49Z</time>
      </trkpt>
      <trkpt lat="48.64781" lon="6.18263">
        <ele>247</ele>
        <time>2013-07-21T13:36:51Z</time>
      </trkpt>
      <trkpt lat="48.64779" lon="6.18261">
        <ele>248</ele>
        <time>2013-07-21T13:36:53Z</time>
      </trkpt>
      <trkpt lat="48.64775" lon="6.1826">
        <ele>249</ele>
        <time>2013-07-21T13:36:55Z</time>
      </trkpt>
      <trkpt lat="48.64772" lon="6.18259">
        <ele>249</ele>
        <time>2013-07-21T13:36:57Z</time>
      </trkpt>
      <trkpt lat="48.64768" lon="6.18258">
        <ele>250</ele>
        <time>2013-07-21T13:37:00Z</time>
      </trkpt>
      <trkpt lat="48.64764" lon="6.18256">
        <ele>250</ele>
        <time>2013-07-21T13:37:02Z</time>
      </trkpt>
      <trkpt lat="48.6476" lon="6.18255">
        <ele>251</ele>
        <time>2013-07-21T13:37:04Z</time>
      </trkpt>
      <trkpt lat="48.64756" lon="6.18253">
        <ele>250</ele>
        <time>2013-07-21T13:37:05Z</time>
      </trkpt>
      <trkpt lat="48.64752" lon="6.18252">
        <ele>250</ele>
        <time>2013-07-21T13:37:07Z</time>
      </trkpt>
      <trkpt lat="48.64747" lon="6.18251">
        <ele>250</ele>
        <time>2013-07-21T13:37:09Z</time>
      </trkpt>
      <trkpt lat="48.64743" lon="6.1825">
        <ele>251</ele>
        <time>2013-07-21T13:37:11Z</time>
      </trkpt>
      <trkpt lat="48.64739" lon="6.18249">
        <ele>252</ele>
        <time>2013-07-21T13:37:13Z</time>
      </trkpt>
      <trkpt lat="48.64735" lon="6.18247">
        <ele>251</ele>
        <time>2013-07-21T13:37:15Z</time>
      </trkpt>
      <trkpt lat="48.64733" lon="6.18245">
        <ele>253</ele>
        <time>2013-07-21T13:37:17Z</time>
      </trkpt>
      <trkpt lat="48.64729" lon="6.18243">
        <ele>255</ele>
        <time>2013-07-21T13:37:19Z</time>
      </trkpt>
      <trkpt lat="48.64726" lon="6.18241">
        <ele>255</ele>
        <time>2013-07-21T13:37:21Z</time>
      </trkpt>
      <trkpt lat="48.64723" lon="6.18238">
        <ele>253</ele>
        <time>2013-07-21T13:37:23Z</time>
      </trkpt>
      <trkpt lat="48.64719" lon="6.18236">
        <ele>251</ele>
        <time>2013-07-21T13:37:25Z</time>
      </trkpt>
      <trkpt lat="48.64716" lon="6.18234">
        <ele>251</ele>
        <time>2013-07-21T13:37:27Z</time>
      </trkpt>
      <trkpt lat="48.64712" lon="6.18232">
        <ele>252</ele>
        <time>2013-07-21T13:37:29Z</time>
      </trkpt>
      <trkpt lat="48.64708" lon="6.1823">
        <ele>251</ele>
        <time>2013-07-21T13:37:31Z</time>
      </trkpt>
      <trkpt lat="48.64704" lon="6.18228">
        <ele>252</ele>
        <time>2013-07-21T13:37:33Z</time>
      </trkpt>
      <trkpt lat="48.647" lon="6.18227">
        <ele>253</ele>
        <time>2013-07-21T13:37:35Z</time>
      </trkpt>
      <trkpt lat="48.64697" lon="6.18227">
        <ele>254</ele>
        <time>2013-07-21T13:37:38Z</time>
      </trkpt>
      <trkpt lat="48.64694" lon="6.18227">
        <ele>255</ele>
        <time>2013-07-21T13:37:40Z</time>
      </trkpt>
      <trkpt lat="48.64691" lon="6.18225">
        <ele>254</ele>
        <time>2013-07-21T13:37:42Z</time>
      </trkpt>
      <trkpt lat="48.64687" lon="6.18225">
        <ele>254</ele>
        <time>2013-07-21T13:37:43Z</time>
      </trkpt>
      <trkpt lat="48.64684" lon="6.18224">
        <ele>254</ele>
        <time>2013-07-21T13:37:45Z</time>
      </trkpt>
      <trkpt lat="48.64681" lon="6.18222">
        <ele>253</ele>
        <time>2013-07-21T13:37:47Z</time>
      </trkpt>
      <trkpt lat="48.64679" lon="6.18221">
        <ele>253</ele>
        <time>2013-07-21T13:37:48Z</time>
      </trkpt>
      <trkpt lat="48.64677" lon="6.18221">
        <ele>254</ele>
        <time>2013-07-21T13:37:49Z</time>
      </trkpt>
      <trkpt lat="48.64673" lon="6.18219">
        <ele>254</ele>
        <time>2013-07-21T13:37:52Z</time>
      </trkpt>
      <trkpt lat="48.64669" lon="6.18218">
        <ele>255</ele>
        <time>2013-07-21T13:37:53Z</time>
      </trkpt>
      <trkpt lat="48.64666" lon="6.18218">
        <ele>255</ele>
        <time>2013-07-21T13:37:55Z</time>
      </trkpt>
      <trkpt lat="48.64663" lon="6.18217">
        <ele>256</ele>
        <time>2013-07-21T13:37:57Z</time>
      </trkpt>
      <trkpt lat="48.6466" lon="6.18216">
        <ele>256</ele>
        <time>2013-07-21T13:37:59Z</time>
      </trkpt>
      <trkpt lat="48.64656" lon="6.18215">
        <ele>256</ele>
        <time>2013-07-21T13:38:01Z</time>
      </trkpt>
      <trkpt lat="48.64653" lon="6.18214">
        <ele>256</ele>
        <time>2013-07-21T13:38:03Z</time>
      </trkpt>
      <trkpt lat="48.64649" lon="6.18212">
        <ele>256</ele>
        <time>2013-07-21T13:38:06Z</time>
      </trkpt>
      <trkpt lat="48.64645" lon="6.18211">
        <ele>255</ele>
        <time>2013-07-21T13:38:07Z</time>
      </trkpt>
      <trkpt lat="48.64642" lon="6.18209">
        <ele>256</ele>
        <time>2013-07-21T13:38:09Z</time>
      </trkpt>
      <trkpt lat="48.64639" lon="6.18208">
        <ele>257</ele>
        <time>2013-07-21T13:38:12Z</time>
      </trkpt>
      <trkpt lat="48.64636" lon="6.18208">
        <ele>258</ele>
        <time>2013-07-21T13:38:14Z</time>
      </trkpt>
      <trkpt lat="48.64632" lon="6.18207">
        <ele>258</ele>
        <time>2013-07-21T13:38:16Z</time>
      </trkpt>
      <trkpt lat="48.64629" lon="6.18207">
        <ele>259</ele>
        <time>2013-07-21T13:38:18Z</time>
      </trkpt>
      <trkpt lat="48.64626" lon="6.18206">
        <ele>256</ele>
        <time>2013-07-21T13:38:19Z</time>
      </trkpt>
      <trkpt lat="48.64622" lon="6.18205">
        <ele>255</ele>
        <time>2013-07-21T13:38:22Z</time>
      </trkpt>
      <trkpt lat="48.64619" lon="6.18204">
        <ele>255</ele>
        <time>2013-07-21T13:38:24Z</time>
      </trkpt>
      <trkpt lat="48.64616" lon="6.18203">
        <ele>256</ele>
        <time>2013-07-21T13:38:26Z</time>
      </trkpt>
      <trkpt lat="48.64612" lon="6.18202">
        <ele>258</ele>
        <time>2013-07-21T13:38:27Z</time>
      </trkpt>
      <trkpt lat="48.64608" lon="6.18201">
        <ele>258</ele>
        <time>2013-07-21T13:38:30Z</time>
      </trkpt>
      <trkpt lat="48.64603" lon="6.18201">
        <ele>258</ele>
        <time>2013-07-21T13:38:31Z</time>
      </trkpt>
      <trkpt lat="48.64599" lon="6.18201">
        <ele>259</ele>
        <time>2013-07-21T13:38:33Z</time>
      </trkpt>
      <trkpt lat="48.64593" lon="6.182">
        <ele>257</ele>
        <time>2013-07-21T13:38:35Z</time>
      </trkpt>
      <trkpt lat="48.64589" lon="6.18199">
        <ele>257</ele>
        <time>2013-07-21T13:38:38Z</time>
      </trkpt>
      <trkpt lat="48.64584" lon="6.18199">
        <ele>256</ele>
        <time>2013-07-21T13:38:40Z</time>
      </trkpt>
      <trkpt lat="48.64578" lon="6.182">
        <ele>255</ele>
        <time>2013-07-21T13:38:42Z</time>
      </trkpt>
      <trkpt lat="48.64573" lon="6.182">
        <ele>255</ele>
        <time>2013-07-21T13:38:44Z</time>
      </trkpt>
      <trkpt lat="48.64568" lon="6.18201">
        <ele>253</ele>
        <time>2013-07-21T13:38:46Z</time>
      </trkpt>
      <trkpt lat="48.64563" lon="6.18203">
        <ele>255</ele>
        <time>2013-07-21T13:38:47Z</time>
      </trkpt>
      <trkpt lat="48.64559" lon="6.18204">
        <ele>255</ele>
        <time>2013-07-21T13:38:49Z</time>
      </trkpt>
      <trkpt lat="48.64553" lon="6.18204">
        <ele>253</ele>
        <time>2013-07-21T13:38:51Z</time>
      </trkpt>
      <trkpt lat="48.64546" lon="6.18203">
        <ele>252</ele>
        <time>2013-07-21T13:38:53Z</time>
      </trkpt>
      <trkpt lat="48.6454" lon="6.18202">
        <ele>253</ele>
        <time>2013-07-21T13:38:55Z</time>
      </trkpt>
      <trkpt lat="48.64533" lon="6.18201">
        <ele>254</ele>
        <time>2013-07-21T13:38:57Z</time>
      </trkpt>
      <trkpt lat="48.64526" lon="6.18201">
        <ele>255</ele>
        <time>2013-07-21T13:38:59Z</time>
      </trkpt>
      <trkpt lat="48.64519" lon="6.18202">
        <ele>255</ele>
        <time>2013-07-21T13:39:01Z</time>
      </trkpt>
      <trkpt lat="48.64504" lon="6.18204">
        <ele>255</ele>
        <time>2013-07-21T13:39:05Z</time>
      </trkpt>
      <trkpt lat="48.64496" lon="6.18205">
        <ele>255</ele>
        <time>2013-07-21T13:39:08Z</time>
      </trkpt>
      <trkpt lat="48.64488" lon="6.18206">
        <ele>255</ele>
        <time>2013-07-21T13:39:09Z</time>
      </trkpt>
      <trkpt lat="48.6448" lon="6.18207">
        <ele>255</ele>
        <time>2013-07-21T13:39:11Z</time>
      </trkpt>
      <trkpt lat="48.64472" lon="6.18207">
        <ele>255</ele>
        <time>2013-07-21T13:39:13Z</time>
      </trkpt>
      <trkpt lat="48.64465" lon="6.18208">
        <ele>255</ele>
        <time>2013-07-21T13:39:15Z</time>
      </trkpt>
      <trkpt lat="48.64457" lon="6.18208">
        <ele>254</ele>
        <time>2013-07-21T13:39:17Z</time>
      </trkpt>
      <trkpt lat="48.64452" lon="6.18208">
        <ele>255</ele>
        <time>2013-07-21T13:39:20Z</time>
      </trkpt>
      <trkpt lat="48.64444" lon="6.18208">
        <ele>257</ele>
        <time>2013-07-21T13:39:21Z</time>
      </trkpt>
      <trkpt lat="48.64436" lon="6.18209">
        <ele>257</ele>
        <time>2013-07-21T13:39:24Z</time>
      </trkpt>
      <trkpt lat="48.64428" lon="6.1821">
        <ele>257</ele>
        <time>2013-07-21T13:39:26Z</time>
      </trkpt>
      <trkpt lat="48.6442" lon="6.1821">
        <ele>256</ele>
        <time>2013-07-21T13:39:28Z</time>
      </trkpt>
      <trkpt lat="48.64412" lon="6.18211">
        <ele>255</ele>
        <time>2013-07-21T13:39:30Z</time>
      </trkpt>
      <trkpt lat="48.64409" lon="6.18211">
        <ele>255</ele>
        <time>2013-07-21T13:39:30Z</time>
      </trkpt>
      <trkpt lat="48.64405" lon="6.18212">
        <ele>255</ele>
        <time>2013-07-21T13:39:31Z</time>
      </trkpt>
      <trkpt lat="48.64397" lon="6.18214">
        <ele>253</ele>
        <time>2013-07-21T13:39:34Z</time>
      </trkpt>
      <trkpt lat="48.64394" lon="6.18214">
        <ele>253</ele>
        <time>2013-07-21T13:39:35Z</time>
      </trkpt>
      <trkpt lat="48.6439" lon="6.18215">
        <ele>253</ele>
        <time>2013-07-21T13:39:36Z</time>
      </trkpt>
      <trkpt lat="48.64382" lon="6.18215">
        <ele>253</ele>
        <time>2013-07-21T13:39:38Z</time>
      </trkpt>
      <trkpt lat="48.64375" lon="6.18217">
        <ele>252</ele>
        <time>2013-07-21T13:39:39Z</time>
      </trkpt>
      <trkpt lat="48.64368" lon="6.18221">
        <ele>252</ele>
        <time>2013-07-21T13:39:41Z</time>
      </trkpt>
      <trkpt lat="48.64361" lon="6.18227">
        <ele>252</ele>
        <time>2013-07-21T13:39:44Z</time>
      </trkpt>
      <trkpt lat="48.64354" lon="6.18233">
        <ele>252</ele>
        <time>2013-07-21T13:39:45Z</time>
      </trkpt>
      <trkpt lat="48.64346" lon="6.18238">
        <ele>254</ele>
        <time>2013-07-21T13:39:47Z</time>
      </trkpt>
      <trkpt lat="48.64338" lon="6.1824">
        <ele>254</ele>
        <time>2013-07-21T13:39:50Z</time>
      </trkpt>
      <trkpt lat="48.64331" lon="6.18242">
        <ele>253</ele>
        <time>2013-07-21T13:39:51Z</time>
      </trkpt>
      <trkpt lat="48.64327" lon="6.18239">
        <ele>253</ele>
        <time>2013-07-21T13:39:53Z</time>
      </trkpt>
      <trkpt lat="48.64324" lon="6.18234">
        <ele>251</ele>
        <time>2013-07-21T13:39:55Z</time>
      </trkpt>
      <trkpt lat="48.64321" lon="6.1823">
        <ele>249</ele>
        <time>2013-07-21T13:39:57Z</time>
      </trkpt>
      <trkpt lat="48.64316" lon="6.18226">
        <ele>249</ele>
        <time>2013-07-21T13:39:59Z</time>
      </trkpt>
      <trkpt lat="48.64311" lon="6.18224">
        <ele>250</ele>
        <time>2013-07-21T13:40:02Z</time>
      </trkpt>
      <trkpt lat="48.64305" lon="6.18223">
        <ele>250</ele>
        <time>2013-07-21T13:40:03Z</time>
      </trkpt>
      <trkpt lat="48.64299" lon="6.18222">
        <ele>251</ele>
        <time>2013-07-21T13:40:06Z</time>
      </trkpt>
      <trkpt lat="48.64293" lon="6.18222">
        <ele>252</ele>
        <time>2013-07-21T13:40:08Z</time>
      </trkpt>
      <trkpt lat="48.64286" lon="6.18223">
        <ele>253</ele>
        <time>2013-07-21T13:40:10Z</time>
      </trkpt>
      <trkpt lat="48.64278" lon="6.18224">
        <ele>253</ele>
        <time>2013-07-21T13:40:12Z</time>
      </trkpt>
      <trkpt lat="48.6427" lon="6.18224">
        <ele>253</ele>
        <time>2013-07-21T13:40:13Z</time>
      </trkpt>
      <trkpt lat="48.64263" lon="6.18225">
        <ele>252</ele>
        <time>2013-07-21T13:40:15Z</time>
      </trkpt>
      <trkpt lat="48.64256" lon="6.18226">
        <ele>253</ele>
        <time>2013-07-21T13:40:18Z</time>
      </trkpt>
      <trkpt lat="48.64242" lon="6.18226">
        <ele>254</ele>
        <time>2013-07-21T13:40:22Z</time>
      </trkpt>
      <trkpt lat="48.64234" lon="6.18227">
        <ele>253</ele>
        <time>2013-07-21T13:40:24Z</time>
      </trkpt>
      <trkpt lat="48.64227" lon="6.18227">
        <ele>251</ele>
        <time>2013-07-21T13:40:26Z</time>
      </trkpt>
      <trkpt lat="48.64218" lon="6.18227">
        <ele>250</ele>
        <time>2013-07-21T13:40:28Z</time>
      </trkpt>
      <trkpt lat="48.64209" lon="6.18227">
        <ele>250</ele>
        <time>2013-07-21T13:40:29Z</time>
      </trkpt>
      <trkpt lat="48.64202" lon="6.18228">
        <ele>250</ele>
        <time>2013-07-21T13:40:31Z</time>
      </trkpt>
      <trkpt lat="48.64196" lon="6.18229">
        <ele>248</ele>
        <time>2013-07-21T13:40:33Z</time>
      </trkpt>
      <trkpt lat="48.6419" lon="6.18229">
        <ele>248</ele>
        <time>2013-07-21T13:40:35Z</time>
      </trkpt>
      <trkpt lat="48.64183" lon="6.1823">
        <ele>249</ele>
        <time>2013-07-21T13:40:37Z</time>
      </trkpt>
      <trkpt lat="48.64177" lon="6.18231">
        <ele>248</ele>
        <time>2013-07-21T13:40:39Z</time>
      </trkpt>
      <trkpt lat="48.64171" lon="6.18232">
        <ele>247</ele>
        <time>2013-07-21T13:40:42Z</time>
      </trkpt>
      <trkpt lat="48.64165" lon="6.18234">
        <ele>247</ele>
        <time>2013-07-21T13:40:43Z</time>
      </trkpt>
      <trkpt lat="48.64159" lon="6.18234">
        <ele>248</ele>
        <time>2013-07-21T13:40:45Z</time>
      </trkpt>
      <trkpt lat="48.64152" lon="6.18233">
        <ele>248</ele>
        <time>2013-07-21T13:40:48Z</time>
      </trkpt>
      <trkpt lat="48.64147" lon="6.18232">
        <ele>247</ele>
        <time>2013-07-21T13:40:50Z</time>
      </trkpt>
      <trkpt lat="48.64142" lon="6.18231">
        <ele>248</ele>
        <time>2013-07-21T13:40:51Z</time>
      </trkpt>
      <trkpt lat="48.64137" lon="6.18231">
        <ele>248</ele>
        <time>2013-07-21T13:40:53Z</time>
      </trkpt>
      <trkpt lat="48.64132" lon="6.18231">
        <ele>248</ele>
        <time>2013-07-21T13:40:56Z</time>
      </trkpt>
      <trkpt lat="48.64127" lon="6.18231">
        <ele>249</ele>
        <time>2013-07-21T13:40:58Z</time>
      </trkpt>
      <trkpt lat="48.6412" lon="6.18232">
        <ele>250</ele>
        <time>2013-07-21T13:40:59Z</time>
      </trkpt>
      <trkpt lat="48.64113" lon="6.18233">
        <ele>250</ele>
        <time>2013-07-21T13:41:01Z</time>
      </trkpt>
      <trkpt lat="48.64106" lon="6.18234">
        <ele>250</ele>
        <time>2013-07-21T13:41:03Z</time>
      </trkpt>
      <trkpt lat="48.64098" lon="6.18234">
        <ele>250</ele>
        <time>2013-07-21T13:41:06Z</time>
      </trkpt>
      <trkpt lat="48.64091" lon="6.18236">
        <ele>250</ele>
        <time>2013-07-21T13:41:07Z</time>
      </trkpt>
      <trkpt lat="48.64083" lon="6.18237">
        <ele>249</ele>
        <time>2013-07-21T13:41:09Z</time>
      </trkpt>
      <trkpt lat="48.64075" lon="6.18238">
        <ele>248</ele>
        <time>2013-07-21T13:41:11Z</time>
      </trkpt>
      <trkpt lat="48.64067" lon="6.18239">
        <ele>247</ele>
        <time>2013-07-21T13:41:13Z</time>
      </trkpt>
      <trkpt lat="48.6406" lon="6.1824">
        <ele>247</ele>
        <time>2013-07-21T13:41:15Z</time>
      </trkpt>
      <trkpt lat="48.64053" lon="6.1824">
        <ele>247</ele>
        <time>2013-07-21T13:41:17Z</time>
      </trkpt>
      <trkpt lat="48.64046" lon="6.18241">
        <ele>246</ele>
        <time>2013-07-21T13:41:19Z</time>
      </trkpt>
      <trkpt lat="48.6404" lon="6.18241">
        <ele>245</ele>
        <time>2013-07-21T13:41:21Z</time>
      </trkpt>
      <trkpt lat="48.64034" lon="6.18242">
        <ele>247</ele>
        <time>2013-07-21T13:41:23Z</time>
      </trkpt>
      <trkpt lat="48.64029" lon="6.18243">
        <ele>249</ele>
        <time>2013-07-21T13:41:26Z</time>
      </trkpt>
      <trkpt lat="48.64024" lon="6.18245">
        <ele>251</ele>
        <time>2013-07-21T13:41:28Z</time>
      </trkpt>
      <trkpt lat="48.64018" lon="6.18246">
        <ele>253</ele>
        <time>2013-07-21T13:41:30Z</time>
      </trkpt>
      <trkpt lat="48.64013" lon="6.18248">
        <ele>254</ele>
        <time>2013-07-21T13:41:32Z</time>
      </trkpt>
      <trkpt lat="48.64009" lon="6.18248">
        <ele>255</ele>
        <time>2013-07-21T13:41:33Z</time>
      </trkpt>
      <trkpt lat="48.64004" lon="6.18248">
        <ele>256</ele>
        <time>2013-07-21T13:41:36Z</time>
      </trkpt>
      <trkpt lat="48.63998" lon="6.18249">
        <ele>257</ele>
        <time>2013-07-21T13:41:38Z</time>
      </trkpt>
      <trkpt lat="48.63996" lon="6.18249">
        <ele>257</ele>
        <time>2013-07-21T13:41:39Z</time>
      </trkpt>
      <trkpt lat="48.63993" lon="6.18249">
        <ele>257</ele>
        <time>2013-07-21T13:41:40Z</time>
      </trkpt>
      <trkpt lat="48.63988" lon="6.1825">
        <ele>259</ele>
        <time>2013-07-21T13:41:42Z</time>
      </trkpt>
      <trkpt lat="48.63982" lon="6.18251">
        <ele>258</ele>
        <time>2013-07-21T13:41:44Z</time>
      </trkpt>
      <trkpt lat="48.63977" lon="6.18251">
        <ele>256</ele>
        <time>2013-07-21T13:41:46Z</time>
      </trkpt>
      <trkpt lat="48.63974" lon="6.18252">
        <ele>257</ele>
        <time>2013-07-21T13:41:48Z</time>
      </trkpt>
      <trkpt lat="48.6397" lon="6.18252">
        <ele>257</ele>
        <time>2013-07-21T13:41:50Z</time>
      </trkpt>
      <trkpt lat="48.63966" lon="6.18252">
        <ele>257</ele>
        <time>2013-07-21T13:41:51Z</time>
      </trkpt>
      <trkpt lat="48.63962" lon="6.18252">
        <ele>257</ele>
        <time>2013-07-21T13:41:53Z</time>
      </trkpt>
      <trkpt lat="48.63958" lon="6.18253">
        <ele>257</ele>
        <time>2013-07-21T13:41:56Z</time>
      </trkpt>
      <trkpt lat="48.63953" lon="6.18253">
        <ele>256</ele>
        <time>2013-07-21T13:41:58Z</time>
      </trkpt>
      <trkpt lat="48.6395" lon="6.18254">
        <ele>255</ele>
        <time>2013-07-21T13:41:59Z</time>
      </trkpt>
      <trkpt lat="48.63946" lon="6.18254">
        <ele>255</ele>
        <time>2013-07-21T13:42:02Z</time>
      </trkpt>
      <trkpt lat="48.63944" lon="6.18254">
        <ele>255</ele>
        <time>2013-07-21T13:42:02Z</time>
      </trkpt>
      <trkpt lat="48.63942" lon="6.18255">
        <ele>256</ele>
        <time>2013-07-21T13:42:04Z</time>
      </trkpt>
      <trkpt lat="48.63939" lon="6.18255">
        <ele>257</ele>
        <time>2013-07-21T13:42:06Z</time>
      </trkpt>
      <trkpt lat="48.63935" lon="6.18255">
        <ele>257</ele>
        <time>2013-07-21T13:42:08Z</time>
      </trkpt>
      <trkpt lat="48.63931" lon="6.18256">
        <ele>259</ele>
        <time>2013-07-21T13:42:10Z</time>
      </trkpt>
      <trkpt lat="48.63927" lon="6.18256">
        <ele>259</ele>
        <time>2013-07-21T13:42:11Z</time>
      </trkpt>
      <trkpt lat="48.63924" lon="6.18255">
        <ele>260</ele>
        <time>2013-07-21T13:42:13Z</time>
      </trkpt>
      <trkpt lat="48.63919" lon="6.18255">
        <ele>261</ele>
        <time>2013-07-21T13:42:16Z</time>
      </trkpt>
      <trkpt lat="48.63915" lon="6.18256">
        <ele>260</ele>
        <time>2013-07-21T13:42:18Z</time>
      </trkpt>
      <trkpt lat="48.63911" lon="6.18256">
        <ele>261</ele>
        <time>2013-07-21T13:42:20Z</time>
      </trkpt>
      <trkpt lat="48.63908" lon="6.18257">
        <ele>261</ele>
        <time>2013-07-21T13:42:22Z</time>
      </trkpt>
      <trkpt lat="48.63904" lon="6.18258">
        <ele>262</ele>
        <time>2013-07-21T13:42:24Z</time>
      </trkpt>
      <trkpt lat="48.639" lon="6.18259">
        <ele>263</ele>
        <time>2013-07-21T13:42:26Z</time>
      </trkpt>
      <trkpt lat="48.63896" lon="6.1826">
        <ele>265</ele>
        <time>2013-07-21T13:42:28Z</time>
      </trkpt>
      <trkpt lat="48.63894" lon="6.18261">
        <ele>265</ele>
        <time>2013-07-21T13:42:29Z</time>
      </trkpt>
      <trkpt lat="48.63893" lon="6.18261">
        <ele>263</ele>
        <time>2013-07-21T13:42:30Z</time>
      </trkpt>
      <trkpt lat="48.63889" lon="6.18262">
        <ele>263</ele>
        <time>2013-07-21T13:42:32Z</time>
      </trkpt>
      <trkpt lat="48.63886" lon="6.18262">
        <ele>264</ele>
        <time>2013-07-21T13:42:33Z</time>
      </trkpt>
      <trkpt lat="48.63882" lon="6.18263">
        <ele>265</ele>
        <time>2013-07-21T13:42:35Z</time>
      </trkpt>
      <trkpt lat="48.63878" lon="6.18264">
        <ele>266</ele>
        <time>2013-07-21T13:42:38Z</time>
      </trkpt>
      <trkpt lat="48.63875" lon="6.18263">
        <ele>266</ele>
        <time>2013-07-21T13:42:39Z</time>
      </trkpt>
      <trkpt lat="48.63872" lon="6.18263">
        <ele>262</ele>
        <time>2013-07-21T13:42:42Z</time>
      </trkpt>
      <trkpt lat="48.63869" lon="6.18263">
        <ele>262</ele>
        <time>2013-07-21T13:42:43Z</time>
      </trkpt>
      <trkpt lat="48.63867" lon="6.18263">
        <ele>263</ele>
        <time>2013-07-21T13:42:45Z</time>
      </trkpt>
      <trkpt lat="48.63863" lon="6.18263">
        <ele>261</ele>
        <time>2013-07-21T13:42:47Z</time>
      </trkpt>
      <trkpt lat="48.63858" lon="6.18263">
        <ele>260</ele>
        <time>2013-07-21T13:42:49Z</time>
      </trkpt>
      <trkpt lat="48.63854" lon="6.18263">
        <ele>261</ele>
        <time>2013-07-21T13:42:52Z</time>
      </trkpt>
      <trkpt lat="48.63848" lon="6.18264">
        <ele>262</ele>
        <time>2013-07-21T13:42:53Z</time>
      </trkpt>
      <trkpt lat="48.63842" lon="6.18265">
        <ele>262</ele>
        <time>2013-07-21T13:42:56Z</time>
      </trkpt>
      <trkpt lat="48.63837" lon="6.18267">
        <ele>261</ele>
        <time>2013-07-21T13:42:57Z</time>
      </trkpt>
      <trkpt lat="48.6383" lon="6.18268">
        <ele>260</ele>
        <time>2013-07-21T13:42:59Z</time>
      </trkpt>
      <trkpt lat="48.63824" lon="6.18269">
        <ele>261</ele>
        <time>2013-07-21T13:43:02Z</time>
      </trkpt>
      <trkpt lat="48.63817" lon="6.1827">
        <ele>261</ele>
        <time>2013-07-21T13:43:04Z</time>
      </trkpt>
      <trkpt lat="48.6381" lon="6.18271">
        <ele>260</ele>
        <time>2013-07-21T13:43:06Z</time>
      </trkpt>
      <trkpt lat="48.63803" lon="6.18271">
        <ele>258</ele>
        <time>2013-07-21T13:43:08Z</time>
      </trkpt>
      <trkpt lat="48.63796" lon="6.18272">
        <ele>257</ele>
        <time>2013-07-21T13:43:10Z</time>
      </trkpt>
      <trkpt lat="48.63789" lon="6.18273">
        <ele>257</ele>
        <time>2013-07-21T13:43:12Z</time>
      </trkpt>
      <trkpt lat="48.63783" lon="6.18275">
        <ele>256</ele>
        <time>2013-07-21T13:43:13Z</time>
      </trkpt>
      <trkpt lat="48.63776" lon="6.18278">
        <ele>256</ele>
        <time>2013-07-21T13:43:15Z</time>
      </trkpt>
      <trkpt lat="48.6377" lon="6.18284">
        <ele>257</ele>
        <time>2013-07-21T13:43:17Z</time>
      </trkpt>
      <trkpt lat="48.63766" lon="6.18289">
        <ele>257</ele>
        <time>2013-07-21T13:43:20Z</time>
      </trkpt>
      <trkpt lat="48.6376" lon="6.18291">
        <ele>257</ele>
        <time>2013-07-21T13:43:21Z</time>
      </trkpt>
      <trkpt lat="48.63755" lon="6.18292">
        <ele>255</ele>
        <time>2013-07-21T13:43:23Z</time>
      </trkpt>
      <trkpt lat="48.63749" lon="6.18292">
        <ele>255</ele>
        <time>2013-07-21T13:43:25Z</time>
      </trkpt>
      <trkpt lat="48.63742" lon="6.18292">
        <ele>254</ele>
        <time>2013-07-21T13:43:28Z</time>
      </trkpt>
      <trkpt lat="48.63736" lon="6.18292">
        <ele>255</ele>
        <time>2013-07-21T13:43:29Z</time>
      </trkpt>
      <trkpt lat="48.63729" lon="6.18293">
        <ele>256</ele>
        <time>2013-07-21T13:43:31Z</time>
      </trkpt>
      <trkpt lat="48.63723" lon="6.18294">
        <ele>255</ele>
        <time>2013-07-21T13:43:34Z</time>
      </trkpt>
      <trkpt lat="48.63717" lon="6.18296">
        <ele>257</ele>
        <time>2013-07-21T13:43:36Z</time>
      </trkpt>
      <trkpt lat="48.6371" lon="6.183">
        <ele>257</ele>
        <time>2013-07-21T13:43:37Z</time>
      </trkpt>
      <trkpt lat="48.63705" lon="6.18307">
        <ele>256</ele>
        <time>2013-07-21T13:43:40Z</time>
      </trkpt>
      <trkpt lat="48.63701" lon="6.18315">
        <ele>255</ele>
        <time>2013-07-21T13:43:42Z</time>
      </trkpt>
      <trkpt lat="48.63697" lon="6.18322">
        <ele>256</ele>
        <time>2013-07-21T13:43:44Z</time>
      </trkpt>
      <trkpt lat="48.63695" lon="6.18325">
        <ele>257</ele>
        <time>2013-07-21T13:43:45Z</time>
      </trkpt>
      <trkpt lat="48.63692" lon="6.18327">
        <ele>259</ele>
        <time>2013-07-21T13:43:46Z</time>
      </trkpt>
      <trkpt lat="48.63686" lon="6.1833">
        <ele>257</ele>
        <time>2013-07-21T13:43:48Z</time>
      </trkpt>
      <trkpt lat="48.63681" lon="6.1833">
        <ele>258</ele>
        <time>2013-07-21T13:43:50Z</time>
      </trkpt>
      <trkpt lat="48.63676" lon="6.1833">
        <ele>257</ele>
        <time>2013-07-21T13:43:51Z</time>
      </trkpt>
      <trkpt lat="48.63672" lon="6.18329">
        <ele>258</ele>
        <time>2013-07-21T13:43:53Z</time>
      </trkpt>
      <trkpt lat="48.63668" lon="6.18327">
        <ele>257</ele>
        <time>2013-07-21T13:43:56Z</time>
      </trkpt>
      <trkpt lat="48.63665" lon="6.18323">
        <ele>257</ele>
        <time>2013-07-21T13:43:57Z</time>
      </trkpt>
      <trkpt lat="48.63662" lon="6.18318">
        <ele>257</ele>
        <time>2013-07-21T13:44:00Z</time>
      </trkpt>
      <trkpt lat="48.63659" lon="6.18312">
        <ele>257</ele>
        <time>2013-07-21T13:44:02Z</time>
      </trkpt>
      <trkpt lat="48.63656" lon="6.18305">
        <ele>258</ele>
        <time>2013-07-21T13:44:03Z</time>
      </trkpt>
      <trkpt lat="48.63653" lon="6.18298">
        <ele>258</ele>
        <time>2013-07-21T13:44:05Z</time>
      </trkpt>
      <trkpt lat="48.63649" lon="6.18289">
        <ele>257</ele>
        <time>2013-07-21T13:44:08Z</time>
      </trkpt>
      <trkpt lat="48.63646" lon="6.18282">
        <ele>258</ele>
        <time>2013-07-21T13:44:10Z</time>
      </trkpt>
      <trkpt lat="48.63641" lon="6.18277">
        <ele>259</ele>
        <time>2013-07-21T13:44:12Z</time>
      </trkpt>
      <trkpt lat="48.63636" lon="6.18273">
        <ele>259</ele>
        <time>2013-07-21T13:44:14Z</time>
      </trkpt>
      <trkpt lat="48.6363" lon="6.18269">
        <ele>260</ele>
        <time>2013-07-21T13:44:16Z</time>
      </trkpt>
      <trkpt lat="48.63623" lon="6.18265">
        <ele>259</ele>
        <time>2013-07-21T13:44:17Z</time>
      </trkpt>
      <trkpt lat="48.63615" lon="6.18262">
        <ele>260</ele>
        <time>2013-07-21T13:44:19Z</time>
      </trkpt>
      <trkpt lat="48.63608" lon="6.1826">
        <ele>260</ele>
        <time>2013-07-21T13:44:21Z</time>
      </trkpt>
      <trkpt lat="48.63601" lon="6.18257">
        <ele>259</ele>
        <time>2013-07-21T13:44:23Z</time>
      </trkpt>
      <trkpt lat="48.63595" lon="6.18254">
        <ele>259</ele>
        <time>2013-07-21T13:44:26Z</time>
      </trkpt>
      <trkpt lat="48.63589" lon="6.18251">
        <ele>260</ele>
        <time>2013-07-21T13:44:28Z</time>
      </trkpt>
      <trkpt lat="48.63586" lon="6.18245">
        <ele>259</ele>
        <time>2013-07-21T13:44:30Z</time>
      </trkpt>
      <trkpt lat="48.63585" lon="6.18239">
        <ele>257</ele>
        <time>2013-07-21T13:44:32Z</time>
      </trkpt>
      <trkpt lat="48.63586" lon="6.18233">
        <ele>258</ele>
        <time>2013-07-21T13:44:33Z</time>
      </trkpt>
      <trkpt lat="48.63585" lon="6.18229">
        <ele>257</ele>
        <time>2013-07-21T13:44:36Z</time>
      </trkpt>
      <trkpt lat="48.63582" lon="6.18226">
        <ele>260</ele>
        <time>2013-07-21T13:44:38Z</time>
      </trkpt>
      <trkpt lat="48.63579" lon="6.18221">
        <ele>261</ele>
        <time>2013-07-21T13:44:39Z</time>
      </trkpt>
      <trkpt lat="48.63573" lon="6.18214">
        <ele>260</ele>
        <time>2013-07-21T13:44:42Z</time>
      </trkpt>
      <trkpt lat="48.63567" lon="6.18208">
        <ele>259</ele>
        <time>2013-07-21T13:44:43Z</time>
      </trkpt>
      <trkpt lat="48.63561" lon="6.18201">
        <ele>259</ele>
        <time>2013-07-21T13:44:45Z</time>
      </trkpt>
      <trkpt lat="48.63555" lon="6.18195">
        <ele>262</ele>
        <time>2013-07-21T13:44:48Z</time>
      </trkpt>
      <trkpt lat="48.63549" lon="6.18189">
        <ele>262</ele>
        <time>2013-07-21T13:44:50Z</time>
      </trkpt>
      <trkpt lat="48.63543" lon="6.18182">
        <ele>260</ele>
        <time>2013-07-21T13:44:52Z</time>
      </trkpt>
      <trkpt lat="48.63538" lon="6.18175">
        <ele>263</ele>
        <time>2013-07-21T13:44:54Z</time>
      </trkpt>
      <trkpt lat="48.63532" lon="6.18167">
        <ele>260</ele>
        <time>2013-07-21T13:44:55Z</time>
      </trkpt>
      <trkpt lat="48.63525" lon="6.18158">
        <ele>259</ele>
        <time>2013-07-21T13:44:57Z</time>
      </trkpt>
      <trkpt lat="48.63519" lon="6.18149">
        <ele>259</ele>
        <time>2013-07-21T13:44:59Z</time>
      </trkpt>
      <trkpt lat="48.63513" lon="6.18144">
        <ele>259</ele>
        <time>2013-07-21T13:45:02Z</time>
      </trkpt>
      <trkpt lat="48.63509" lon="6.1814">
        <ele>262</ele>
        <time>2013-07-21T13:45:04Z</time>
      </trkpt>
      <trkpt lat="48.63504" lon="6.18137">
        <ele>262</ele>
        <time>2013-07-21T13:45:06Z</time>
      </trkpt>
      <trkpt lat="48.63498" lon="6.18135">
        <ele>263</ele>
        <time>2013-07-21T13:45:08Z</time>
      </trkpt>
      <trkpt lat="48.63492" lon="6.18134">
        <ele>263</ele>
        <time>2013-07-21T13:45:10Z</time>
      </trkpt>
      <trkpt lat="48.63486" lon="6.18133">
        <ele>263</ele>
        <time>2013-07-21T13:45:12Z</time>
      </trkpt>
      <trkpt lat="48.6348" lon="6.18132">
        <ele>265</ele>
        <time>2013-07-21T13:45:14Z</time>
      </trkpt>
      <trkpt lat="48.63475" lon="6.18131">
        <ele>266</ele>
        <time>2013-07-21T13:45:16Z</time>
      </trkpt>
      <trkpt lat="48.63469" lon="6.18131">
        <ele>266</ele>
        <time>2013-07-21T13:45:18Z</time>
      </trkpt>
      <trkpt lat="48.63463" lon="6.18129">
        <ele>265</ele>
        <time>2013-07-21T13:45:20Z</time>
      </trkpt>
      <trkpt lat="48.63457" lon="6.18128">
        <ele>264</ele>
        <time>2013-07-21T13:45:22Z</time>
      </trkpt>
      <trkpt lat="48.63451" lon="6.18127">
        <ele>264</ele>
        <time>2013-07-21T13:45:23Z</time>
      </trkpt>
      <trkpt lat="48.63445" lon="6.18126">
        <ele>265</ele>
        <time>2013-07-21T13:45:26Z</time>
      </trkpt>
      <trkpt lat="48.63434" lon="6.18123">
        <ele>260</ele>
        <time>2013-07-21T13:45:30Z</time>
      </trkpt>
      <trkpt lat="48.63429" lon="6.18121">
        <ele>260</ele>
        <time>2013-07-21T13:45:31Z</time>
      </trkpt>
      <trkpt lat="48.63424" lon="6.18119">
        <ele>260</ele>
        <time>2013-07-21T13:45:33Z</time>
      </trkpt>
      <trkpt lat="48.63419" lon="6.18118">
        <ele>259</ele>
        <time>2013-07-21T13:45:35Z</time>
      </trkpt>
      <trkpt lat="48.63414" lon="6.18118">
        <ele>259</ele>
        <time>2013-07-21T13:45:37Z</time>
      </trkpt>
      <trkpt lat="48.63408" lon="6.18118">
        <ele>259</ele>
        <time>2013-07-21T13:45:39Z</time>
      </trkpt>
      <trkpt lat="48.63403" lon="6.18119">
        <ele>259</ele>
        <time>2013-07-21T13:45:41Z</time>
      </trkpt>
      <trkpt lat="48.63397" lon="6.1812">
        <ele>259</ele>
        <time>2013-07-21T13:45:43Z</time>
      </trkpt>
      <trkpt lat="48.63392" lon="6.18121">
        <ele>262</ele>
        <time>2013-07-21T13:45:45Z</time>
      </trkpt>
      <trkpt lat="48.63386" lon="6.18121">
        <ele>263</ele>
        <time>2013-07-21T13:45:47Z</time>
      </trkpt>
      <trkpt lat="48.6338" lon="6.18122">
        <ele>262</ele>
        <time>2013-07-21T13:45:49Z</time>
      </trkpt>
      <trkpt lat="48.63374" lon="6.18123">
        <ele>260</ele>
        <time>2013-07-21T13:45:51Z</time>
      </trkpt>
      <trkpt lat="48.63369" lon="6.18124">
        <ele>261</ele>
        <time>2013-07-21T13:45:53Z</time>
      </trkpt>
      <trkpt lat="48.63363" lon="6.18124">
        <ele>261</ele>
        <time>2013-07-21T13:45:55Z</time>
      </trkpt>
      <trkpt lat="48.63358" lon="6.18125">
        <ele>262</ele>
        <time>2013-07-21T13:45:58Z</time>
      </trkpt>
      <trkpt lat="48.63352" lon="6.18126">
        <ele>261</ele>
        <time>2013-07-21T13:46:00Z</time>
      </trkpt>
      <trkpt lat="48.63347" lon="6.18127">
        <ele>261</ele>
        <time>2013-07-21T13:46:02Z</time>
      </trkpt>
      <trkpt lat="48.63341" lon="6.18127">
        <ele>261</ele>
        <time>2013-07-21T13:46:04Z</time>
      </trkpt>
      <trkpt lat="48.63335" lon="6.18128">
        <ele>261</ele>
        <time>2013-07-21T13:46:05Z</time>
      </trkpt>
      <trkpt lat="48.63329" lon="6.18127">
        <ele>261</ele>
        <time>2013-07-21T13:46:07Z</time>
      </trkpt>
      <trkpt lat="48.63322" lon="6.18127">
        <ele>261</ele>
        <time>2013-07-21T13:46:09Z</time>
      </trkpt>
      <trkpt lat="48.63316" lon="6.18127">
        <ele>261</ele>
        <time>2013-07-21T13:46:11Z</time>
      </trkpt>
      <trkpt lat="48.6331" lon="6.18127">
        <ele>261</ele>
        <time>2013-07-21T13:46:13Z</time>
      </trkpt>
      <trkpt lat="48.63304" lon="6.18127">
        <ele>259</ele>
        <time>2013-07-21T13:46:15Z</time>
      </trkpt>
      <trkpt lat="48.63299" lon="6.18126">
        <ele>260</ele>
        <time>2013-07-21T13:46:17Z</time>
      </trkpt>
      <trkpt lat="48.63295" lon="6.18126">
        <ele>261</ele>
        <time>2013-07-21T13:46:19Z</time>
      </trkpt>
      <trkpt lat="48.63293" lon="6.18125">
        <ele>261</ele>
        <time>2013-07-21T13:46:20Z</time>
      </trkpt>
      <trkpt lat="48.63291" lon="6.18125">
        <ele>261</ele>
        <time>2013-07-21T13:46:21Z</time>
      </trkpt>
      <trkpt lat="48.63286" lon="6.18125">
        <ele>260</ele>
        <time>2013-07-21T13:46:23Z</time>
      </trkpt>
      <trkpt lat="48.63281" lon="6.18124">
        <ele>261</ele>
        <time>2013-07-21T13:46:25Z</time>
      </trkpt>
      <trkpt lat="48.63277" lon="6.18123">
        <ele>260</ele>
        <time>2013-07-21T13:46:27Z</time>
      </trkpt>
      <trkpt lat="48.63272" lon="6.18122">
        <ele>259</ele>
        <time>2013-07-21T13:46:29Z</time>
      </trkpt>
      <trkpt lat="48.63267" lon="6.18121">
        <ele>260</ele>
        <time>2013-07-21T13:46:31Z</time>
      </trkpt>
      <trkpt lat="48.63263" lon="6.18121">
        <ele>259</ele>
        <time>2013-07-21T13:46:33Z</time>
      </trkpt>
      <trkpt lat="48.63258" lon="6.18121">
        <ele>258</ele>
        <time>2013-07-21T13:46:35Z</time>
      </trkpt>
      <trkpt lat="48.63252" lon="6.1812">
        <ele>258</ele>
        <time>2013-07-21T13:46:38Z</time>
      </trkpt>
      <trkpt lat="48.63247" lon="6.18119">
        <ele>262</ele>
        <time>2013-07-21T13:46:39Z</time>
      </trkpt>
      <trkpt lat="48.63243" lon="6.18119">
        <ele>262</ele>
        <time>2013-07-21T13:46:42Z</time>
      </trkpt>
      <trkpt lat="48.63239" lon="6.18118">
        <ele>260</ele>
        <time>2013-07-21T13:46:44Z</time>
      </trkpt>
      <trkpt lat="48.6323" lon="6.18116">
        <ele>264</ele>
        <time>2013-07-21T13:46:48Z</time>
      </trkpt>
      <trkpt lat="48.63226" lon="6.18116">
        <ele>262</ele>
        <time>2013-07-21T13:46:50Z</time>
      </trkpt>
      <trkpt lat="48.63222" lon="6.18115">
        <ele>263</ele>
        <time>2013-07-21T13:46:51Z</time>
      </trkpt>
      <trkpt lat="48.63218" lon="6.18114">
        <ele>263</ele>
        <time>2013-07-21T13:46:54Z</time>
      </trkpt>
      <trkpt lat="48.63213" lon="6.18114">
        <ele>264</ele>
        <time>2013-07-21T13:46:56Z</time>
      </trkpt>
      <trkpt lat="48.63209" lon="6.18113">
        <ele>265</ele>
        <time>2013-07-21T13:46:57Z</time>
      </trkpt>
      <trkpt lat="48.63203" lon="6.18112">
        <ele>268</ele>
        <time>2013-07-21T13:47:00Z</time>
      </trkpt>
      <trkpt lat="48.63199" lon="6.18112">
        <ele>271</ele>
        <time>2013-07-21T13:47:02Z</time>
      </trkpt>
      <trkpt lat="48.63195" lon="6.18111">
        <ele>272</ele>
        <time>2013-07-21T13:47:04Z</time>
      </trkpt>
      <trkpt lat="48.63191" lon="6.18111">
        <ele>271</ele>
        <time>2013-07-21T13:47:06Z</time>
      </trkpt>
      <trkpt lat="48.63186" lon="6.18111">
        <ele>272</ele>
        <time>2013-07-21T13:47:08Z</time>
      </trkpt>
      <trkpt lat="48.63182" lon="6.18112">
        <ele>274</ele>
        <time>2013-07-21T13:47:10Z</time>
      </trkpt>
      <trkpt lat="48.63178" lon="6.18111">
        <ele>274</ele>
        <time>2013-07-21T13:47:12Z</time>
      </trkpt>
      <trkpt lat="48.63173" lon="6.18109">
        <ele>272</ele>
        <time>2013-07-21T13:47:14Z</time>
      </trkpt>
      <trkpt lat="48.63169" lon="6.18107">
        <ele>269</ele>
        <time>2013-07-21T13:47:16Z</time>
      </trkpt>
      <trkpt lat="48.63165" lon="6.18106">
        <ele>275</ele>
        <time>2013-07-21T13:47:18Z</time>
      </trkpt>
      <trkpt lat="48.63163" lon="6.18105">
        <ele>274</ele>
        <time>2013-07-21T13:47:20Z</time>
      </trkpt>
      <trkpt lat="48.6316" lon="6.18105">
        <ele>275</ele>
        <time>2013-07-21T13:47:22Z</time>
      </trkpt>
      <trkpt lat="48.63157" lon="6.18104">
        <ele>278</ele>
        <time>2013-07-21T13:47:24Z</time>
      </trkpt>
      <trkpt lat="48.63154" lon="6.18104">
        <ele>280</ele>
        <time>2013-07-21T13:47:26Z</time>
      </trkpt>
      <trkpt lat="48.6315" lon="6.18103">
        <ele>281</ele>
        <time>2013-07-21T13:47:28Z</time>
      </trkpt>
      <trkpt lat="48.63147" lon="6.18101">
        <ele>281</ele>
        <time>2013-07-21T13:47:30Z</time>
      </trkpt>
      <trkpt lat="48.63143" lon="6.18099">
        <ele>286</ele>
        <time>2013-07-21T13:47:32Z</time>
      </trkpt>
      <trkpt lat="48.6314" lon="6.18097">
        <ele>286</ele>
        <time>2013-07-21T13:47:34Z</time>
      </trkpt>
      <trkpt lat="48.63136" lon="6.18095">
        <ele>286</ele>
        <time>2013-07-21T13:47:36Z</time>
      </trkpt>
      <trkpt lat="48.63133" lon="6.18093">
        <ele>287</ele>
        <time>2013-07-21T13:47:38Z</time>
      </trkpt>
      <trkpt lat="48.63129" lon="6.18091">
        <ele>286</ele>
        <time>2013-07-21T13:47:40Z</time>
      </trkpt>
      <trkpt lat="48.63125" lon="6.1809">
        <ele>287</ele>
        <time>2013-07-21T13:47:41Z</time>
      </trkpt>
      <trkpt lat="48.63121" lon="6.18089">
        <ele>289</ele>
        <time>2013-07-21T13:47:43Z</time>
      </trkpt>
      <trkpt lat="48.63118" lon="6.18087">
        <ele>288</ele>
        <time>2013-07-21T13:47:45Z</time>
      </trkpt>
      <trkpt lat="48.63115" lon="6.18086">
        <ele>287</ele>
        <time>2013-07-21T13:47:47Z</time>
      </trkpt>
      <trkpt lat="48.63112" lon="6.18085">
        <ele>288</ele>
        <time>2013-07-21T13:47:49Z</time>
      </trkpt>
      <trkpt lat="48.63108" lon="6.18084">
        <ele>290</ele>
        <time>2013-07-21T13:47:51Z</time>
      </trkpt>
      <trkpt lat="48.63104" lon="6.18082">
        <ele>290</ele>
        <time>2013-07-21T13:47:53Z</time>
      </trkpt>
      <trkpt lat="48.631" lon="6.18081">
        <ele>290</ele>
        <time>2013-07-21T13:47:55Z</time>
      </trkpt>
      <trkpt lat="48.63097" lon="6.18079">
        <ele>290</ele>
        <time>2013-07-21T13:47:57Z</time>
      </trkpt>
      <trkpt lat="48.63093" lon="6.18078">
        <ele>290</ele>
        <time>2013-07-21T13:47:59Z</time>
      </trkpt>
      <trkpt lat="48.6309" lon="6.18076">
        <ele>288</ele>
        <time>2013-07-21T13:48:02Z</time>
      </trkpt>
      <trkpt lat="48.63085" lon="6.18074">
        <ele>290</ele>
        <time>2013-07-21T13:48:04Z</time>
      </trkpt>
      <trkpt lat="48.63083" lon="6.18073">
        <ele>290</ele>
        <time>2013-07-21T13:48:05Z</time>
      </trkpt>
      <trkpt lat="48.6308" lon="6.18072">
        <ele>290</ele>
        <time>2013-07-21T13:48:07Z</time>
      </trkpt>
      <trkpt lat="48.63078" lon="6.18072">
        <ele>286</ele>
        <time>2013-07-21T13:48:09Z</time>
      </trkpt>
      <trkpt lat="48.63075" lon="6.18072">
        <ele>284</ele>
        <time>2013-07-21T13:48:11Z</time>
      </trkpt>
      <trkpt lat="48.6307" lon="6.18072">
        <ele>282</ele>
        <time>2013-07-21T13:48:13Z</time>
      </trkpt>
      <trkpt lat="48.63066" lon="6.18071">
        <ele>282</ele>
        <time>2013-07-21T13:48:16Z</time>
      </trkpt>
      <trkpt lat="48.63062" lon="6.1807">
        <ele>282</ele>
        <time>2013-07-21T13:48:18Z</time>
      </trkpt>
      <trkpt lat="48.63058" lon="6.18069">
        <ele>283</ele>
        <time>2013-07-21T13:48:20Z</time>
      </trkpt>
      <trkpt lat="48.63054" lon="6.18067">
        <ele>285</ele>
        <time>2013-07-21T13:48:21Z</time>
      </trkpt>
      <trkpt lat="48.63051" lon="6.18066">
        <ele>283</ele>
        <time>2013-07-21T13:48:23Z</time>
      </trkpt>
      <trkpt lat="48.63047" lon="6.18066">
        <ele>284</ele>
        <time>2013-07-21T13:48:25Z</time>
      </trkpt>
      <trkpt lat="48.63043" lon="6.18065">
        <ele>286</ele>
        <time>2013-07-21T13:48:27Z</time>
      </trkpt>
      <trkpt lat="48.6304" lon="6.18063">
        <ele>285</ele>
        <time>2013-07-21T13:48:29Z</time>
      </trkpt>
      <trkpt lat="48.63038" lon="6.18063">
        <ele>282</ele>
        <time>2013-07-21T13:48:31Z</time>
      </trkpt>
      <trkpt lat="48.63036" lon="6.18062">
        <ele>282</ele>
        <time>2013-07-21T13:48:32Z</time>
      </trkpt>
      <trkpt lat="48.63034" lon="6.18061">
        <ele>282</ele>
        <time>2013-07-21T13:48:33Z</time>
      </trkpt>
      <trkpt lat="48.63033" lon="6.1806">
        <ele>284</ele>
        <time>2013-07-21T13:48:35Z</time>
      </trkpt>
      <trkpt lat="48.63026" lon="6.18057">
        <ele>285</ele>
        <time>2013-07-21T13:48:39Z</time>
      </trkpt>
      <trkpt lat="48.63023" lon="6.18055">
        <ele>284</ele>
        <time>2013-07-21T13:48:41Z</time>
      </trkpt>
      <trkpt lat="48.63019" lon="6.18054">
        <ele>285</ele>
        <time>2013-07-21T13:48:43Z</time>
      </trkpt>
      <trkpt lat="48.63015" lon="6.18053">
        <ele>285</ele>
        <time>2013-07-21T13:48:46Z</time>
      </trkpt>
      <trkpt lat="48.63011" lon="6.18053">
        <ele>287</ele>
        <time>2013-07-21T13:48:47Z</time>
      </trkpt>
      <trkpt lat="48.63001" lon="6.18054">
        <ele>281</ele>
        <time>2013-07-21T13:48:51Z</time>
      </trkpt>
      <trkpt lat="48.62996" lon="6.18053">
        <ele>278</ele>
        <time>2013-07-21T13:48:53Z</time>
      </trkpt>
      <trkpt lat="48.62992" lon="6.18054">
        <ele>273</ele>
        <time>2013-07-21T13:48:55Z</time>
      </trkpt>
      <trkpt lat="48.62984" lon="6.18054">
        <ele>271</ele>
        <time>2013-07-21T13:49:00Z</time>
      </trkpt>
      <trkpt lat="48.62977" lon="6.18053">
        <ele>280</ele>
        <time>2013-07-21T13:49:02Z</time>
      </trkpt>
      <trkpt lat="48.62971" lon="6.18052">
        <ele>280</ele>
        <time>2013-07-21T13:49:03Z</time>
      </trkpt>
      <trkpt lat="48.62966" lon="6.18052">
        <ele>279</ele>
        <time>2013-07-21T13:49:05Z</time>
      </trkpt>
      <trkpt lat="48.62958" lon="6.18052">
        <ele>281</ele>
        <time>2013-07-21T13:49:09Z</time>
      </trkpt>
      <trkpt lat="48.62953" lon="6.1805">
        <ele>280</ele>
        <time>2013-07-21T13:49:11Z</time>
      </trkpt>
      <trkpt lat="48.62948" lon="6.18049">
        <ele>279</ele>
        <time>2013-07-21T13:49:13Z</time>
      </trkpt>
      <trkpt lat="48.62942" lon="6.18048">
        <ele>278</ele>
        <time>2013-07-21T13:49:15Z</time>
      </trkpt>
      <trkpt lat="48.62936" lon="6.18047">
        <ele>279</ele>
        <time>2013-07-21T13:49:17Z</time>
      </trkpt>
      <trkpt lat="48.62926" lon="6.18046">
        <ele>279</ele>
        <time>2013-07-21T13:49:20Z</time>
      </trkpt>
      <trkpt lat="48.62923" lon="6.18046">
        <ele>279</ele>
        <time>2013-07-21T13:49:21Z</time>
      </trkpt>
      <trkpt lat="48.62918" lon="6.18045">
        <ele>279</ele>
        <time>2013-07-21T13:49:23Z</time>
      </trkpt>
      <trkpt lat="48.62913" lon="6.18043">
        <ele>279</ele>
        <time>2013-07-21T13:49:25Z</time>
      </trkpt>
      <trkpt lat="48.62907" lon="6.18043">
        <ele>278</ele>
        <time>2013-07-21T13:49:27Z</time>
      </trkpt>
      <trkpt lat="48.62901" lon="6.18042">
        <ele>279</ele>
        <time>2013-07-21T13:49:29Z</time>
      </trkpt>
      <trkpt lat="48.62895" lon="6.18042">
        <ele>277</ele>
        <time>2013-07-21T13:49:31Z</time>
      </trkpt>
      <trkpt lat="48.62889" lon="6.18041">
        <ele>279</ele>
        <time>2013-07-21T13:49:33Z</time>
      </trkpt>
      <trkpt lat="48.62883" lon="6.1804">
        <ele>281</ele>
        <time>2013-07-21T13:49:35Z</time>
      </trkpt>
      <trkpt lat="48.6288" lon="6.18039">
        <ele>282</ele>
        <time>2013-07-21T13:49:36Z</time>
      </trkpt>
      <trkpt lat="48.62877" lon="6.18039">
        <ele>283</ele>
        <time>2013-07-21T13:49:37Z</time>
      </trkpt>
      <trkpt lat="48.6287" lon="6.18038">
        <ele>283</ele>
        <time>2013-07-21T13:49:40Z</time>
      </trkpt>
      <trkpt lat="48.62856" lon="6.18035">
        <ele>282</ele>
        <time>2013-07-21T13:49:43Z</time>
      </trkpt>
      <trkpt lat="48.62849" lon="6.18034">
        <ele>283</ele>
        <time>2013-07-21T13:49:45Z</time>
      </trkpt>
      <trkpt lat="48.62842" lon="6.18032">
        <ele>284</ele>
        <time>2013-07-21T13:49:47Z</time>
      </trkpt>
      <trkpt lat="48.62836" lon="6.1803">
        <ele>284</ele>
        <time>2013-07-21T13:49:49Z</time>
      </trkpt>
      <trkpt lat="48.62828" lon="6.18028">
        <ele>284</ele>
        <time>2013-07-21T13:49:51Z</time>
      </trkpt>
      <trkpt lat="48.62821" lon="6.18025">
        <ele>284</ele>
        <time>2013-07-21T13:49:53Z</time>
      </trkpt>
      <trkpt lat="48.62814" lon="6.18022">
        <ele>282</ele>
        <time>2013-07-21T13:49:55Z</time>
      </trkpt>
      <trkpt lat="48.62808" lon="6.1802">
        <ele>279</ele>
        <time>2013-07-21T13:49:57Z</time>
      </trkpt>
      <trkpt lat="48.628" lon="6.18017">
        <ele>281</ele>
        <time>2013-07-21T13:49:59Z</time>
      </trkpt>
      <trkpt lat="48.62796" lon="6.18015">
        <ele>282</ele>
        <time>2013-07-21T13:50:00Z</time>
      </trkpt>
      <trkpt lat="48.62791" lon="6.18014">
        <ele>282</ele>
        <time>2013-07-21T13:50:01Z</time>
      </trkpt>
      <trkpt lat="48.62783" lon="6.1801">
        <ele>282</ele>
        <time>2013-07-21T13:50:03Z</time>
      </trkpt>
      <trkpt lat="48.62776" lon="6.18007">
        <ele>281</ele>
        <time>2013-07-21T13:50:05Z</time>
      </trkpt>
      <trkpt lat="48.62768" lon="6.18004">
        <ele>279</ele>
        <time>2013-07-21T13:50:07Z</time>
      </trkpt>
      <trkpt lat="48.6276" lon="6.18001">
        <ele>278</ele>
        <time>2013-07-21T13:50:09Z</time>
      </trkpt>
      <trkpt lat="48.62752" lon="6.17997">
        <ele>277</ele>
        <time>2013-07-21T13:50:11Z</time>
      </trkpt>
      <trkpt lat="48.62745" lon="6.17992">
        <ele>277</ele>
        <time>2013-07-21T13:50:13Z</time>
      </trkpt>
      <trkpt lat="48.62739" lon="6.17988">
        <ele>278</ele>
        <time>2013-07-21T13:50:15Z</time>
      </trkpt>
      <trkpt lat="48.62732" lon="6.17984">
        <ele>278</ele>
        <time>2013-07-21T13:50:17Z</time>
      </trkpt>
      <trkpt lat="48.62725" lon="6.1798">
        <ele>277</ele>
        <time>2013-07-21T13:50:19Z</time>
      </trkpt>
      <trkpt lat="48.62718" lon="6.17975">
        <ele>277</ele>
        <time>2013-07-21T13:50:21Z</time>
      </trkpt>
      <trkpt lat="48.62711" lon="6.17971">
        <ele>277</ele>
        <time>2013-07-21T13:50:23Z</time>
      </trkpt>
      <trkpt lat="48.62704" lon="6.17968">
        <ele>277</ele>
        <time>2013-07-21T13:50:25Z</time>
      </trkpt>
      <trkpt lat="48.627" lon="6.17967">
        <ele>277</ele>
        <time>2013-07-21T13:50:27Z</time>
      </trkpt>
      <trkpt lat="48.62697" lon="6.17965">
        <ele>277</ele>
        <time>2013-07-21T13:50:27Z</time>
      </trkpt>
      <trkpt lat="48.62691" lon="6.17963">
        <ele>277</ele>
        <time>2013-07-21T13:50:29Z</time>
      </trkpt>
      <trkpt lat="48.62686" lon="6.17961">
        <ele>279</ele>
        <time>2013-07-21T13:50:31Z</time>
      </trkpt>
      <trkpt lat="48.6268" lon="6.17957">
        <ele>277</ele>
        <time>2013-07-21T13:50:33Z</time>
      </trkpt>
      <trkpt lat="48.62675" lon="6.17954">
        <ele>279</ele>
        <time>2013-07-21T13:50:35Z</time>
      </trkpt>
      <trkpt lat="48.62669" lon="6.1795">
        <ele>278</ele>
        <time>2013-07-21T13:50:37Z</time>
      </trkpt>
      <trkpt lat="48.62664" lon="6.17946">
        <ele>279</ele>
        <time>2013-07-21T13:50:39Z</time>
      </trkpt>
      <trkpt lat="48.62659" lon="6.17942">
        <ele>279</ele>
        <time>2013-07-21T13:50:41Z</time>
      </trkpt>
      <trkpt lat="48.62655" lon="6.17934">
        <ele>278</ele>
        <time>2013-07-21T13:50:43Z</time>
      </trkpt>
      <trkpt lat="48.62655" lon="6.17931">
        <ele>275</ele>
        <time>2013-07-21T13:50:46Z</time>
      </trkpt>
      <trkpt lat="48.62651" lon="6.17931">
        <ele>274</ele>
        <time>2013-07-21T13:50:47Z</time>
      </trkpt>
      <trkpt lat="48.6265" lon="6.17928">
        <ele>274</ele>
        <time>2013-07-21T13:50:48Z</time>
      </trkpt>
      <trkpt lat="48.62645" lon="6.17921">
        <ele>272</ele>
        <time>2013-07-21T13:50:49Z</time>
      </trkpt>
      <trkpt lat="48.62642" lon="6.17914">
        <ele>272</ele>
        <time>2013-07-21T13:50:51Z</time>
      </trkpt>
      <trkpt lat="48.62635" lon="6.1791">
        <ele>273</ele>
        <time>2013-07-21T13:50:53Z</time>
      </trkpt>
      <trkpt lat="48.62631" lon="6.17909">
        <ele>275</ele>
        <time>2013-07-21T13:50:55Z</time>
      </trkpt>
      <trkpt lat="48.62627" lon="6.17906">
        <ele>276</ele>
        <time>2013-07-21T13:50:55Z</time>
      </trkpt>
      <trkpt lat="48.62617" lon="6.17894">
        <ele>278</ele>
        <time>2013-07-21T13:50:57Z</time>
      </trkpt>
      <trkpt lat="48.62612" lon="6.17895">
        <ele>279</ele>
        <time>2013-07-21T13:50:59Z</time>
      </trkpt>
      <trkpt lat="48.62609" lon="6.17892">
        <ele>279</ele>
        <time>2013-07-21T13:51:01Z</time>
      </trkpt>
      <trkpt lat="48.62604" lon="6.17887">
        <ele>280</ele>
        <time>2013-07-21T13:51:03Z</time>
      </trkpt>
      <trkpt lat="48.62598" lon="6.17883">
        <ele>280</ele>
        <time>2013-07-21T13:51:05Z</time>
      </trkpt>
      <trkpt lat="48.62591" lon="6.17879">
        <ele>279</ele>
        <time>2013-07-21T13:51:07Z</time>
      </trkpt>
      <trkpt lat="48.62584" lon="6.17871">
        <ele>279</ele>
        <time>2013-07-21T13:51:09Z</time>
      </trkpt>
      <trkpt lat="48.62567" lon="6.17869">
        <ele>279</ele>
        <time>2013-07-21T13:51:11Z</time>
      </trkpt>
      <trkpt lat="48.62555" lon="6.17869">
        <ele>278</ele>
        <time>2013-07-21T13:51:13Z</time>
      </trkpt>
      <trkpt lat="48.62547" lon="6.17868">
        <ele>277</ele>
        <time>2013-07-21T13:51:15Z</time>
      </trkpt>
      <trkpt lat="48.6254" lon="6.17868">
        <ele>278</ele>
        <time>2013-07-21T13:51:17Z</time>
      </trkpt>
      <trkpt lat="48.62531" lon="6.1787">
        <ele>279</ele>
        <time>2013-07-21T13:51:19Z</time>
      </trkpt>
      <trkpt lat="48.62523" lon="6.17872">
        <ele>278</ele>
        <time>2013-07-21T13:51:21Z</time>
      </trkpt>
      <trkpt lat="48.62515" lon="6.17872">
        <ele>277</ele>
        <time>2013-07-21T13:51:23Z</time>
      </trkpt>
      <trkpt lat="48.62507" lon="6.17872">
        <ele>276</ele>
        <time>2013-07-21T13:51:25Z</time>
      </trkpt>
      <trkpt lat="48.625" lon="6.17872">
        <ele>277</ele>
        <time>2013-07-21T13:51:27Z</time>
      </trkpt>
      <trkpt lat="48.62492" lon="6.17871">
        <ele>276</ele>
        <time>2013-07-21T13:51:29Z</time>
      </trkpt>
      <trkpt lat="48.62486" lon="6.1787">
        <ele>276</ele>
        <time>2013-07-21T13:51:31Z</time>
      </trkpt>
      <trkpt lat="48.62479" lon="6.17868">
        <ele>275</ele>
        <time>2013-07-21T13:51:33Z</time>
      </trkpt>
      <trkpt lat="48.62475" lon="6.17868">
        <ele>274</ele>
        <time>2013-07-21T13:51:34Z</time>
      </trkpt>
      <trkpt lat="48.62473" lon="6.17867">
        <ele>273</ele>
        <time>2013-07-21T13:51:35Z</time>
      </trkpt>
      <trkpt lat="48.62468" lon="6.17865">
        <ele>275</ele>
        <time>2013-07-21T13:51:37Z</time>
      </trkpt>
      <trkpt lat="48.62463" lon="6.17862">
        <ele>275</ele>
        <time>2013-07-21T13:51:39Z</time>
      </trkpt>
      <trkpt lat="48.62458" lon="6.17859">
        <ele>276</ele>
        <time>2013-07-21T13:51:41Z</time>
      </trkpt>
      <trkpt lat="48.62452" lon="6.17856">
        <ele>276</ele>
        <time>2013-07-21T13:51:43Z</time>
      </trkpt>
      <trkpt lat="48.62445" lon="6.17854">
        <ele>276</ele>
        <time>2013-07-21T13:51:45Z</time>
      </trkpt>
      <trkpt lat="48.62438" lon="6.17852">
        <ele>276</ele>
        <time>2013-07-21T13:51:47Z</time>
      </trkpt>
      <trkpt lat="48.62429" lon="6.1785">
        <ele>275</ele>
        <time>2013-07-21T13:51:49Z</time>
      </trkpt>
      <trkpt lat="48.62421" lon="6.17849">
        <ele>276</ele>
        <time>2013-07-21T13:51:51Z</time>
      </trkpt>
      <trkpt lat="48.62413" lon="6.17847">
        <ele>275</ele>
        <time>2013-07-21T13:51:53Z</time>
      </trkpt>
      <trkpt lat="48.62405" lon="6.17845">
        <ele>275</ele>
        <time>2013-07-21T13:51:55Z</time>
      </trkpt>
      <trkpt lat="48.62396" lon="6.17843">
        <ele>275</ele>
        <time>2013-07-21T13:51:57Z</time>
      </trkpt>
      <trkpt lat="48.62388" lon="6.17842">
        <ele>275</ele>
        <time>2013-07-21T13:51:59Z</time>
      </trkpt>
      <trkpt lat="48.62381" lon="6.1784">
        <ele>275</ele>
        <time>2013-07-21T13:52:01Z</time>
      </trkpt>
      <trkpt lat="48.62374" lon="6.17838">
        <ele>275</ele>
        <time>2013-07-21T13:52:03Z</time>
      </trkpt>
      <trkpt lat="48.62366" lon="6.17837">
        <ele>275</ele>
        <time>2013-07-21T13:52:05Z</time>
      </trkpt>
      <trkpt lat="48.62357" lon="6.17836">
        <ele>274</ele>
        <time>2013-07-21T13:52:07Z</time>
      </trkpt>
      <trkpt lat="48.62348" lon="6.17835">
        <ele>273</ele>
        <time>2013-07-21T13:52:09Z</time>
      </trkpt>
      <trkpt lat="48.62341" lon="6.17835">
        <ele>273</ele>
        <time>2013-07-21T13:52:11Z</time>
      </trkpt>
      <trkpt lat="48.62333" lon="6.17835">
        <ele>276</ele>
        <time>2013-07-21T13:52:13Z</time>
      </trkpt>
      <trkpt lat="48.62326" lon="6.17837">
        <ele>276</ele>
        <time>2013-07-21T13:52:15Z</time>
      </trkpt>
      <trkpt lat="48.6232" lon="6.17838">
        <ele>277</ele>
        <time>2013-07-21T13:52:17Z</time>
      </trkpt>
      <trkpt lat="48.62312" lon="6.17841">
        <ele>277</ele>
        <time>2013-07-21T13:52:19Z</time>
      </trkpt>
      <trkpt lat="48.62306" lon="6.17845">
        <ele>277</ele>
        <time>2013-07-21T13:52:21Z</time>
      </trkpt>
      <trkpt lat="48.623" lon="6.17847">
        <ele>276</ele>
        <time>2013-07-21T13:52:23Z</time>
      </trkpt>
      <trkpt lat="48.62293" lon="6.17848">
        <ele>278</ele>
        <time>2013-07-21T13:52:25Z</time>
      </trkpt>
      <trkpt lat="48.62285" lon="6.17851">
        <ele>276</ele>
        <time>2013-07-21T13:52:27Z</time>
      </trkpt>
      <trkpt lat="48.62277" lon="6.17853">
        <ele>278</ele>
        <time>2013-07-21T13:52:29Z</time>
      </trkpt>
      <trkpt lat="48.62268" lon="6.17852">
        <ele>279</ele>
        <time>2013-07-21T13:52:31Z</time>
      </trkpt>
      <trkpt lat="48.6226" lon="6.17851">
        <ele>279</ele>
        <time>2013-07-21T13:52:33Z</time>
      </trkpt>
      <trkpt lat="48.62252" lon="6.17849">
        <ele>276</ele>
        <time>2013-07-21T13:52:35Z</time>
      </trkpt>
      <trkpt lat="48.62242" lon="6.17848">
        <ele>276</ele>
        <time>2013-07-21T13:52:37Z</time>
      </trkpt>
      <trkpt lat="48.62235" lon="6.17846">
        <ele>275</ele>
        <time>2013-07-21T13:52:39Z</time>
      </trkpt>
      <trkpt lat="48.62228" lon="6.17844">
        <ele>275</ele>
        <time>2013-07-21T13:52:41Z</time>
      </trkpt>
      <trkpt lat="48.62221" lon="6.17843">
        <ele>276</ele>
        <time>2013-07-21T13:52:43Z</time>
      </trkpt>
      <trkpt lat="48.62214" lon="6.17842">
        <ele>276</ele>
        <time>2013-07-21T13:52:45Z</time>
      </trkpt>
      <trkpt lat="48.62209" lon="6.17841">
        <ele>273</ele>
        <time>2013-07-21T13:52:47Z</time>
      </trkpt>
      <trkpt lat="48.62203" lon="6.1784">
        <ele>275</ele>
        <time>2013-07-21T13:52:49Z</time>
      </trkpt>
      <trkpt lat="48.62198" lon="6.17839">
        <ele>275</ele>
        <time>2013-07-21T13:52:51Z</time>
      </trkpt>
      <trkpt lat="48.62192" lon="6.17839">
        <ele>274</ele>
        <time>2013-07-21T13:52:53Z</time>
      </trkpt>
      <trkpt lat="48.62187" lon="6.17839">
        <ele>273</ele>
        <time>2013-07-21T13:52:55Z</time>
      </trkpt>
      <trkpt lat="48.62184" lon="6.17842">
        <ele>276</ele>
        <time>2013-07-21T13:52:57Z</time>
      </trkpt>
      <trkpt lat="48.62182" lon="6.17847">
        <ele>277</ele>
        <time>2013-07-21T13:52:59Z</time>
      </trkpt>
      <trkpt lat="48.62182" lon="6.17853">
        <ele>280</ele>
        <time>2013-07-21T13:53:01Z</time>
      </trkpt>
      <trkpt lat="48.62183" lon="6.17861">
        <ele>282</ele>
        <time>2013-07-21T13:53:03Z</time>
      </trkpt>
      <trkpt lat="48.62184" lon="6.17868">
        <ele>284</ele>
        <time>2013-07-21T13:53:05Z</time>
      </trkpt>
      <trkpt lat="48.62184" lon="6.17875">
        <ele>284</ele>
        <time>2013-07-21T13:53:07Z</time>
      </trkpt>
      <trkpt lat="48.62184" lon="6.17881">
        <ele>284</ele>
        <time>2013-07-21T13:53:09Z</time>
      </trkpt>
      <trkpt lat="48.62184" lon="6.17887">
        <ele>284</ele>
        <time>2013-07-21T13:53:11Z</time>
      </trkpt>
      <trkpt lat="48.62184" lon="6.17893">
        <ele>282</ele>
        <time>2013-07-21T13:53:13Z</time>
      </trkpt>
      <trkpt lat="48.62183" lon="6.179">
        <ele>281</ele>
        <time>2013-07-21T13:53:15Z</time>
      </trkpt>
      <trkpt lat="48.62183" lon="6.17906">
        <ele>280</ele>
        <time>2013-07-21T13:53:18Z</time>
      </trkpt>
      <trkpt lat="48.62182" lon="6.17912">
        <ele>279</ele>
        <time>2013-07-21T13:53:19Z</time>
      </trkpt>
      <trkpt lat="48.62182" lon="6.17918">
        <ele>281</ele>
        <time>2013-07-21T13:53:21Z</time>
      </trkpt>
      <trkpt lat="48.62182" lon="6.17925">
        <ele>284</ele>
        <time>2013-07-21T13:53:23Z</time>
      </trkpt>
      <trkpt lat="48.62182" lon="6.17931">
        <ele>289</ele>
        <time>2013-07-21T13:53:25Z</time>
      </trkpt>
      <trkpt lat="48.62182" lon="6.17937">
        <ele>293</ele>
        <time>2013-07-21T13:53:27Z</time>
      </trkpt>
      <trkpt lat="48.62184" lon="6.17942">
        <ele>290</ele>
        <time>2013-07-21T13:53:29Z</time>
      </trkpt>
      <trkpt lat="48.62185" lon="6.17948">
        <ele>289</ele>
        <time>2013-07-21T13:53:31Z</time>
      </trkpt>
      <trkpt lat="48.62186" lon="6.17954">
        <ele>291</ele>
        <time>2013-07-21T13:53:33Z</time>
      </trkpt>
      <trkpt lat="48.62189" lon="6.17959">
        <ele>294</ele>
        <time>2013-07-21T13:53:35Z</time>
      </trkpt>
      <trkpt lat="48.62191" lon="6.17964">
        <ele>296</ele>
        <time>2013-07-21T13:53:37Z</time>
      </trkpt>
      <trkpt lat="48.62193" lon="6.17969">
        <ele>296</ele>
        <time>2013-07-21T13:53:39Z</time>
      </trkpt>
      <trkpt lat="48.62195" lon="6.17976">
        <ele>299</ele>
        <time>2013-07-21T13:53:41Z</time>
      </trkpt>
      <trkpt lat="48.62197" lon="6.17984">
        <ele>300</ele>
        <time>2013-07-21T13:53:43Z</time>
      </trkpt>
      <trkpt lat="48.622" lon="6.17993">
        <ele>297</ele>
        <time>2013-07-21T13:53:45Z</time>
      </trkpt>
      <trkpt lat="48.62203" lon="6.18002">
        <ele>296</ele>
        <time>2013-07-21T13:53:47Z</time>
      </trkpt>
      <trkpt lat="48.62206" lon="6.18011">
        <ele>296</ele>
        <time>2013-07-21T13:53:49Z</time>
      </trkpt>
      <trkpt lat="48.62208" lon="6.18019">
        <ele>297</ele>
        <time>2013-07-21T13:53:51Z</time>
      </trkpt>
      <trkpt lat="48.62211" lon="6.18028">
        <ele>298</ele>
        <time>2013-07-21T13:53:53Z</time>
      </trkpt>
      <trkpt lat="48.62213" lon="6.18036">
        <ele>298</ele>
        <time>2013-07-21T13:53:55Z</time>
      </trkpt>
      <trkpt lat="48.62215" lon="6.18043">
        <ele>299</ele>
        <time>2013-07-21T13:53:57Z</time>
      </trkpt>
      <trkpt lat="48.62218" lon="6.18051">
        <ele>302</ele>
        <time>2013-07-21T13:54:00Z</time>
      </trkpt>
      <trkpt lat="48.62222" lon="6.1806">
        <ele>300</ele>
        <time>2013-07-21T13:54:01Z</time>
      </trkpt>
      <trkpt lat="48.62226" lon="6.18069">
        <ele>299</ele>
        <time>2013-07-21T13:54:03Z</time>
      </trkpt>
      <trkpt lat="48.62228" lon="6.18076">
        <ele>300</ele>
        <time>2013-07-21T13:54:06Z</time>
      </trkpt>
      <trkpt lat="48.62231" lon="6.18084">
        <ele>303</ele>
        <time>2013-07-21T13:54:07Z</time>
      </trkpt>
      <trkpt lat="48.62234" lon="6.18093">
        <ele>301</ele>
        <time>2013-07-21T13:54:09Z</time>
      </trkpt>
      <trkpt lat="48.62235" lon="6.18097">
        <ele>302</ele>
        <time>2013-07-21T13:54:10Z</time>
      </trkpt>
      <trkpt lat="48.62236" lon="6.18101">
        <ele>300</ele>
        <time>2013-07-21T13:54:11Z</time>
      </trkpt>
      <trkpt lat="48.62239" lon="6.18109">
        <ele>300</ele>
        <time>2013-07-21T13:54:13Z</time>
      </trkpt>
      <trkpt lat="48.62241" lon="6.18115">
        <ele>302</ele>
        <time>2013-07-21T13:54:15Z</time>
      </trkpt>
      <trkpt lat="48.62244" lon="6.18123">
        <ele>303</ele>
        <time>2013-07-21T13:54:17Z</time>
      </trkpt>
      <trkpt lat="48.62247" lon="6.18131">
        <ele>304</ele>
        <time>2013-07-21T13:54:19Z</time>
      </trkpt>
      <trkpt lat="48.6225" lon="6.18139">
        <ele>305</ele>
        <time>2013-07-21T13:54:21Z</time>
      </trkpt>
      <trkpt lat="48.62252" lon="6.18147">
        <ele>309</ele>
        <time>2013-07-21T13:54:23Z</time>
      </trkpt>
      <trkpt lat="48.62254" lon="6.18156">
        <ele>302</ele>
        <time>2013-07-21T13:54:25Z</time>
      </trkpt>
      <trkpt lat="48.62254" lon="6.18163">
        <ele>304</ele>
        <time>2013-07-21T13:54:27Z</time>
      </trkpt>
      <trkpt lat="48.62255" lon="6.18169">
        <ele>308</ele>
        <time>2013-07-21T13:54:29Z</time>
      </trkpt>
      <trkpt lat="48.62254" lon="6.18175">
        <ele>310</ele>
        <time>2013-07-21T13:54:31Z</time>
      </trkpt>
      <trkpt lat="48.62254" lon="6.18182">
        <ele>315</ele>
        <time>2013-07-21T13:54:33Z</time>
      </trkpt>
      <trkpt lat="48.62253" lon="6.18185">
        <ele>318</ele>
        <time>2013-07-21T13:54:34Z</time>
      </trkpt>
      <trkpt lat="48.62252" lon="6.18188">
        <ele>318</ele>
        <time>2013-07-21T13:54:35Z</time>
      </trkpt>
      <trkpt lat="48.62251" lon="6.18193">
        <ele>319</ele>
        <time>2013-07-21T13:54:37Z</time>
      </trkpt>
      <trkpt lat="48.62251" lon="6.18202">
        <ele>317</ele>
        <time>2013-07-21T13:54:40Z</time>
      </trkpt>
      <trkpt lat="48.62253" lon="6.18213">
        <ele>316</ele>
        <time>2013-07-21T13:54:41Z</time>
      </trkpt>
      <trkpt lat="48.62257" lon="6.18222">
        <ele>312</ele>
        <time>2013-07-21T13:54:44Z</time>
      </trkpt>
      <trkpt lat="48.6226" lon="6.18232">
        <ele>306</ele>
        <time>2013-07-21T13:54:45Z</time>
      </trkpt>
      <trkpt lat="48.62265" lon="6.1824">
        <ele>302</ele>
        <time>2013-07-21T13:54:48Z</time>
      </trkpt>
      <trkpt lat="48.62268" lon="6.18248">
        <ele>295</ele>
        <time>2013-07-21T13:54:49Z</time>
      </trkpt>
      <trkpt lat="48.62272" lon="6.18255">
        <ele>292</ele>
        <time>2013-07-21T13:54:51Z</time>
      </trkpt>
      <trkpt lat="48.62275" lon="6.18261">
        <ele>292</ele>
        <time>2013-07-21T13:54:53Z</time>
      </trkpt>
      <trkpt lat="48.62278" lon="6.18267">
        <ele>293</ele>
        <time>2013-07-21T13:54:56Z</time>
      </trkpt>
      <trkpt lat="48.62281" lon="6.18274">
        <ele>293</ele>
        <time>2013-07-21T13:54:57Z</time>
      </trkpt>
      <trkpt lat="48.62284" lon="6.1828">
        <ele>296</ele>
        <time>2013-07-21T13:54:59Z</time>
      </trkpt>
      <trkpt lat="48.62286" lon="6.18283">
        <ele>297</ele>
        <time>2013-07-21T13:55:00Z</time>
      </trkpt>
      <trkpt lat="48.62287" lon="6.18287">
        <ele>294</ele>
        <time>2013-07-21T13:55:01Z</time>
      </trkpt>
      <trkpt lat="48.62289" lon="6.18293">
        <ele>291</ele>
        <time>2013-07-21T13:55:03Z</time>
      </trkpt>
      <trkpt lat="48.62289" lon="6.18299">
        <ele>292</ele>
        <time>2013-07-21T13:55:05Z</time>
      </trkpt>
      <trkpt lat="48.6229" lon="6.18304">
        <ele>295</ele>
        <time>2013-07-21T13:55:07Z</time>
      </trkpt>
      <trkpt lat="48.62291" lon="6.18317">
        <ele>297</ele>
        <time>2013-07-21T13:55:11Z</time>
      </trkpt>
      <trkpt lat="48.62293" lon="6.18326">
        <ele>296</ele>
        <time>2013-07-21T13:55:13Z</time>
      </trkpt>
      <trkpt lat="48.62295" lon="6.18335">
        <ele>295</ele>
        <time>2013-07-21T13:55:15Z</time>
      </trkpt>
      <trkpt lat="48.62297" lon="6.18343">
        <ele>295</ele>
        <time>2013-07-21T13:55:17Z</time>
      </trkpt>
      <trkpt lat="48.62299" lon="6.18348">
        <ele>295</ele>
        <time>2013-07-21T13:55:19Z</time>
      </trkpt>
      <trkpt lat="48.623" lon="6.18354">
        <ele>295</ele>
        <time>2013-07-21T13:55:21Z</time>
      </trkpt>
      <trkpt lat="48.62301" lon="6.18358">
        <ele>294</ele>
        <time>2013-07-21T13:55:23Z</time>
      </trkpt>
      <trkpt lat="48.62302" lon="6.18362">
        <ele>294</ele>
        <time>2013-07-21T13:55:26Z</time>
      </trkpt>
      <trkpt lat="48.62303" lon="6.18363">
        <ele>286</ele>
        <time>2013-07-21T13:55:29Z</time>
      </trkpt>
      <trkpt lat="48.62304" lon="6.18364">
        <ele>286</ele>
        <time>2013-07-21T13:55:41Z</time>
      </trkpt>
      <trkpt lat="48.62308" lon="6.1837">
        <ele>280</ele>
        <time>2013-07-21T13:55:47Z</time>
      </trkpt>
      <trkpt lat="48.62306" lon="6.18369">
        <ele>278</ele>
        <time>2013-07-21T13:55:51Z</time>
      </trkpt>
      <trkpt lat="48.62306" lon="6.18363">
        <ele>275</ele>
        <time>2013-07-21T13:56:00Z</time>
      </trkpt>
      <trkpt lat="48.62306" lon="6.18361">
        <ele>279</ele>
        <time>2013-07-21T13:56:01Z</time>
      </trkpt>
      <trkpt lat="48.62305" lon="6.18359">
        <ele>281</ele>
        <time>2013-07-21T13:56:03Z</time>
      </trkpt>
      <trkpt lat="48.62306" lon="6.18358">
        <ele>285</ele>
        <time>2013-07-21T13:56:09Z</time>
      </trkpt>
      <trkpt lat="48.62308" lon="6.18358">
        <ele>279</ele>
        <time>2013-07-21T13:56:11Z</time>
      </trkpt>
      <trkpt lat="48.6231" lon="6.18357">
        <ele>278</ele>
        <time>2013-07-21T13:56:15Z</time>
      </trkpt>
      <trkpt lat="48.6231" lon="6.18358">
        <ele>281</ele>
        <time>2013-07-21T13:56:18Z</time>
      </trkpt>
      <trkpt lat="48.6231" lon="6.18361">
        <ele>287</ele>
        <time>2013-07-21T13:56:22Z</time>
      </trkpt>
      <trkpt lat="48.6231" lon="6.18362">
        <ele>288</ele>
        <time>2013-07-21T13:56:24Z</time>
      </trkpt>
      <trkpt lat="48.6231" lon="6.18362">
        <ele>286</ele>
        <time>2013-07-21T13:56:33Z</time>
      </trkpt>
      <trkpt lat="48.62311" lon="6.18362">
        <ele>281</ele>
        <time>2013-07-21T13:56:35Z</time>
      </trkpt>
      <trkpt lat="48.6231" lon="6.18359">
        <ele>280</ele>
        <time>2013-07-21T13:56:37Z</time>
      </trkpt>
      <trkpt lat="48.62309" lon="6.18357">
        <ele>286</ele>
        <time>2013-07-21T13:56:41Z</time>
      </trkpt>
      <trkpt lat="48.62309" lon="6.18359">
        <ele>284</ele>
        <time>2013-07-21T13:57:09Z</time>
      </trkpt>
      <trkpt lat="48.6231" lon="6.1836">
        <ele>287</ele>
        <time>2013-07-21T13:57:13Z</time>
      </trkpt>
      <trkpt lat="48.62311" lon="6.18358">
        <ele>281</ele>
        <time>2013-07-21T13:57:21Z</time>
      </trkpt>
      <trkpt lat="48.62314" lon="6.1836">
        <ele>287</ele>
        <time>2013-07-21T13:57:31Z</time>
      </trkpt>
      <trkpt lat="48.62315" lon="6.18358">
        <ele>283</ele>
        <time>2013-07-21T13:57:33Z</time>
      </trkpt>
      <trkpt lat="48.62315" lon="6.18356">
        <ele>282</ele>
        <time>2013-07-21T13:57:35Z</time>
      </trkpt>
      <trkpt lat="48.62315" lon="6.18354">
        <ele>284</ele>
        <time>2013-07-21T13:57:37Z</time>
      </trkpt>
      <trkpt lat="48.62316" lon="6.18351">
        <ele>284</ele>
        <time>2013-07-21T13:57:44Z</time>
      </trkpt>
      <trkpt lat="48.62315" lon="6.18353">
        <ele>282</ele>
        <time>2013-07-21T13:57:48Z</time>
      </trkpt>
      <trkpt lat="48.62314" lon="6.18354">
        <ele>277</ele>
        <time>2013-07-21T13:57:53Z</time>
      </trkpt>
      <trkpt lat="48.62315" lon="6.18356">
        <ele>277</ele>
        <time>2013-07-21T13:58:07Z</time>
      </trkpt>
      <trkpt lat="48.62315" lon="6.18359">
        <ele>279</ele>
        <time>2013-07-21T13:58:09Z</time>
      </trkpt>
      <trkpt lat="48.62314" lon="6.1836">
        <ele>273</ele>
        <time>2013-07-21T13:58:13Z</time>
      </trkpt>
      <trkpt lat="48.62312" lon="6.18363">
        <ele>285</ele>
        <time>2013-07-21T13:58:23Z</time>
      </trkpt>
      <trkpt lat="48.62312" lon="6.18364">
        <ele>278</ele>
        <time>2013-07-21T13:58:29Z</time>
      </trkpt>
      <trkpt lat="48.62312" lon="6.18365">
        <ele>280</ele>
        <time>2013-07-21T13:58:31Z</time>
      </trkpt>
      <trkpt lat="48.62313" lon="6.18363">
        <ele>294</ele>
        <time>2013-07-21T13:58:43Z</time>
      </trkpt>
      <trkpt lat="48.62313" lon="6.18363">
        <ele>291</ele>
        <time>2013-07-21T13:58:47Z</time>
      </trkpt>
      <trkpt lat="48.62313" lon="6.18364">
        <ele>279</ele>
        <time>2013-07-21T13:58:55Z</time>
      </trkpt>
      <trkpt lat="48.62313" lon="6.18364">
        <ele>289</ele>
        <time>2013-07-21T13:59:03Z</time>
      </trkpt>
      <trkpt lat="48.62313" lon="6.18365">
        <ele>287</ele>
        <time>2013-07-21T13:59:12Z</time>
      </trkpt>
      <trkpt lat="48.62312" lon="6.18365">
        <ele>284</ele>
        <time>2013-07-21T13:59:27Z</time>
      </trkpt>
      <trkpt lat="48.62312" lon="6.18364">
        <ele>282</ele>
        <time>2013-07-21T13:59:29Z</time>
      </trkpt>
      <trkpt lat="48.62311" lon="6.18362">
        <ele>282</ele>
        <time>2013-07-21T13:59:31Z</time>
      </trkpt>
      <trkpt lat="48.62311" lon="6.18359">
        <ele>284</ele>
        <time>2013-07-21T13:59:33Z</time>
      </trkpt>
      <trkpt lat="48.6231" lon="6.18357">
        <ele>287</ele>
        <time>2013-07-21T13:59:35Z</time>
      </trkpt>
      <trkpt lat="48.62311" lon="6.18355">
        <ele>278</ele>
        <time>2013-07-21T13:59:47Z</time>
      </trkpt>
      <trkpt lat="48.6231" lon="6.18352">
        <ele>279</ele>
        <time>2013-07-21T14:00:07Z</time>
      </trkpt>
      <trkpt lat="48.6231" lon="6.18347">
        <ele>273</ele>
        <time>2013-07-21T14:00:23Z</time>
      </trkpt>
      <trkpt lat="48.62314" lon="6.18353">
        <ele>277</ele>
        <time>2013-07-21T14:00:33Z</time>
      </trkpt>
      <trkpt lat="48.62314" lon="6.18355">
        <ele>284</ele>
        <time>2013-07-21T14:00:55Z</time>
      </trkpt>
      <trkpt lat="48.62315" lon="6.18364">
        <ele>282</ele>
        <time>2013-07-21T14:00:57Z</time>
      </trkpt>
      <trkpt lat="48.62316" lon="6.18373">
        <ele>283</ele>
        <time>2013-07-21T14:00:59Z</time>
      </trkpt>
      <trkpt lat="48.62318" lon="6.18383">
        <ele>284</ele>
        <time>2013-07-21T14:01:01Z</time>
      </trkpt>
      <trkpt lat="48.62319" lon="6.18391">
        <ele>285</ele>
        <time>2013-07-21T14:01:03Z</time>
      </trkpt>
      <trkpt lat="48.62321" lon="6.18399">
        <ele>286</ele>
        <time>2013-07-21T14:01:05Z</time>
      </trkpt>
      <trkpt lat="48.62323" lon="6.18406">
        <ele>285</ele>
        <time>2013-07-21T14:01:07Z</time>
      </trkpt>
      <trkpt lat="48.62325" lon="6.18413">
        <ele>285</ele>
        <time>2013-07-21T14:01:09Z</time>
      </trkpt>
      <trkpt lat="48.62326" lon="6.18421">
        <ele>285</ele>
        <time>2013-07-21T14:01:12Z</time>
      </trkpt>
      <trkpt lat="48.62328" lon="6.18428">
        <ele>285</ele>
        <time>2013-07-21T14:01:13Z</time>
      </trkpt>
      <trkpt lat="48.6233" lon="6.18436">
        <ele>285</ele>
        <time>2013-07-21T14:01:16Z</time>
      </trkpt>
      <trkpt lat="48.62332" lon="6.1845">
        <ele>286</ele>
        <time>2013-07-21T14:01:20Z</time>
      </trkpt>
      <trkpt lat="48.62333" lon="6.18456">
        <ele>289</ele>
        <time>2013-07-21T14:01:22Z</time>
      </trkpt>
      <trkpt lat="48.62334" lon="6.1846">
        <ele>291</ele>
        <time>2013-07-21T14:01:24Z</time>
      </trkpt>
      <trkpt lat="48.62335" lon="6.18464">
        <ele>291</ele>
        <time>2013-07-21T14:01:26Z</time>
      </trkpt>
      <trkpt lat="48.62336" lon="6.18469">
        <ele>291</ele>
        <time>2013-07-21T14:01:28Z</time>
      </trkpt>
      <trkpt lat="48.62336" lon="6.18475">
        <ele>291</ele>
        <time>2013-07-21T14:01:30Z</time>
      </trkpt>
      <trkpt lat="48.62338" lon="6.18481">
        <ele>291</ele>
        <time>2013-07-21T14:01:32Z</time>
      </trkpt>
      <trkpt lat="48.6234" lon="6.18491">
        <ele>291</ele>
        <time>2013-07-21T14:01:34Z</time>
      </trkpt>
      <trkpt lat="48.62343" lon="6.18504">
        <ele>292</ele>
        <time>2013-07-21T14:01:36Z</time>
      </trkpt>
      <trkpt lat="48.62344" lon="6.18515">
        <ele>300</ele>
        <time>2013-07-21T14:01:37Z</time>
      </trkpt>
      <trkpt lat="48.62345" lon="6.18532">
        <ele>301</ele>
        <time>2013-07-21T14:01:39Z</time>
      </trkpt>
      <trkpt lat="48.62347" lon="6.18549">
        <ele>300</ele>
        <time>2013-07-21T14:01:42Z</time>
      </trkpt>
      <trkpt lat="48.62353" lon="6.18584">
        <ele>301</ele>
        <time>2013-07-21T14:01:45Z</time>
      </trkpt>
      <trkpt lat="48.62357" lon="6.18602">
        <ele>300</ele>
        <time>2013-07-21T14:01:47Z</time>
      </trkpt>
      <trkpt lat="48.62359" lon="6.18619">
        <ele>298</ele>
        <time>2013-07-21T14:01:49Z</time>
      </trkpt>
      <trkpt lat="48.62362" lon="6.18633">
        <ele>297</ele>
        <time>2013-07-21T14:01:52Z</time>
      </trkpt>
      <trkpt lat="48.62364" lon="6.18645">
        <ele>296</ele>
        <time>2013-07-21T14:01:53Z</time>
      </trkpt>
      <trkpt lat="48.62366" lon="6.18658">
        <ele>295</ele>
        <time>2013-07-21T14:01:55Z</time>
      </trkpt>
      <trkpt lat="48.62369" lon="6.18669">
        <ele>296</ele>
        <time>2013-07-21T14:01:58Z</time>
      </trkpt>
      <trkpt lat="48.62373" lon="6.1868">
        <ele>298</ele>
        <time>2013-07-21T14:02:00Z</time>
      </trkpt>
      <trkpt lat="48.62377" lon="6.1869">
        <ele>298</ele>
        <time>2013-07-21T14:02:02Z</time>
      </trkpt>
      <trkpt lat="48.62381" lon="6.18704">
        <ele>293</ele>
        <time>2013-07-21T14:02:03Z</time>
      </trkpt>
      <trkpt lat="48.62386" lon="6.1872">
        <ele>289</ele>
        <time>2013-07-21T14:02:06Z</time>
      </trkpt>
      <trkpt lat="48.62391" lon="6.18737">
        <ele>291</ele>
        <time>2013-07-21T14:02:08Z</time>
      </trkpt>
      <trkpt lat="48.62397" lon="6.18753">
        <ele>292</ele>
        <time>2013-07-21T14:02:09Z</time>
      </trkpt>
      <trkpt lat="48.624" lon="6.18762">
        <ele>294</ele>
        <time>2013-07-21T14:02:11Z</time>
      </trkpt>
      <trkpt lat="48.62404" lon="6.18771">
        <ele>295</ele>
        <time>2013-07-21T14:02:12Z</time>
      </trkpt>
      <trkpt lat="48.62409" lon="6.18789">
        <ele>293</ele>
        <time>2013-07-21T14:02:14Z</time>
      </trkpt>
      <trkpt lat="48.62414" lon="6.18809">
        <ele>292</ele>
        <time>2013-07-21T14:02:16Z</time>
      </trkpt>
      <trkpt lat="48.62418" lon="6.1883">
        <ele>289</ele>
        <time>2013-07-21T14:02:18Z</time>
      </trkpt>
      <trkpt lat="48.6242" lon="6.18852">
        <ele>286</ele>
        <time>2013-07-21T14:02:19Z</time>
      </trkpt>
      <trkpt lat="48.62414" lon="6.18899">
        <ele>283</ele>
        <time>2013-07-21T14:02:23Z</time>
      </trkpt>
      <trkpt lat="48.6241" lon="6.1892">
        <ele>280</ele>
        <time>2013-07-21T14:02:25Z</time>
      </trkpt>
      <trkpt lat="48.62407" lon="6.18941">
        <ele>278</ele>
        <time>2013-07-21T14:02:27Z</time>
      </trkpt>
      <trkpt lat="48.62405" lon="6.18963">
        <ele>275</ele>
        <time>2013-07-21T14:02:29Z</time>
      </trkpt>
      <trkpt lat="48.62404" lon="6.18983">
        <ele>274</ele>
        <time>2013-07-21T14:02:31Z</time>
      </trkpt>
      <trkpt lat="48.62404" lon="6.18992">
        <ele>273</ele>
        <time>2013-07-21T14:02:32Z</time>
      </trkpt>
      <trkpt lat="48.62405" lon="6.19002">
        <ele>272</ele>
        <time>2013-07-21T14:02:33Z</time>
      </trkpt>
      <trkpt lat="48.62408" lon="6.1902">
        <ele>270</ele>
        <time>2013-07-21T14:02:36Z</time>
      </trkpt>
      <trkpt lat="48.62411" lon="6.19037">
        <ele>268</ele>
        <time>2013-07-21T14:02:37Z</time>
      </trkpt>
      <trkpt lat="48.62413" lon="6.19052">
        <ele>267</ele>
        <time>2013-07-21T14:02:40Z</time>
      </trkpt>
      <trkpt lat="48.62416" lon="6.19065">
        <ele>266</ele>
        <time>2013-07-21T14:02:41Z</time>
      </trkpt>
      <trkpt lat="48.62417" lon="6.19077">
        <ele>264</ele>
        <time>2013-07-21T14:02:43Z</time>
      </trkpt>
      <trkpt lat="48.62417" lon="6.19084">
        <ele>261</ele>
        <time>2013-07-21T14:02:45Z</time>
      </trkpt>
      <trkpt lat="48.62415" lon="6.19091">
        <ele>261</ele>
        <time>2013-07-21T14:02:48Z</time>
      </trkpt>
      <trkpt lat="48.62415" lon="6.19096">
        <ele>262</ele>
        <time>2013-07-21T14:02:49Z</time>
      </trkpt>
      <trkpt lat="48.62415" lon="6.191">
        <ele>261</ele>
        <time>2013-07-21T14:02:51Z</time>
      </trkpt>
      <trkpt lat="48.62417" lon="6.19105">
        <ele>262</ele>
        <time>2013-07-21T14:02:54Z</time>
      </trkpt>
      <trkpt lat="48.62417" lon="6.19112">
        <ele>260</ele>
        <time>2013-07-21T14:02:56Z</time>
      </trkpt>
      <trkpt lat="48.62415" lon="6.19119">
        <ele>260</ele>
        <time>2013-07-21T14:02:58Z</time>
      </trkpt>
      <trkpt lat="48.62415" lon="6.19127">
        <ele>261</ele>
        <time>2013-07-21T14:02:59Z</time>
      </trkpt>
      <trkpt lat="48.62418" lon="6.19136">
        <ele>261</ele>
        <time>2013-07-21T14:03:01Z</time>
      </trkpt>
      <trkpt lat="48.62421" lon="6.19151">
        <ele>260</ele>
        <time>2013-07-21T14:03:03Z</time>
      </trkpt>
      <trkpt lat="48.62425" lon="6.19165">
        <ele>259</ele>
        <time>2013-07-21T14:03:06Z</time>
      </trkpt>
      <trkpt lat="48.62429" lon="6.1918">
        <ele>260</ele>
        <time>2013-07-21T14:03:08Z</time>
      </trkpt>
      <trkpt lat="48.62434" lon="6.19194">
        <ele>259</ele>
        <time>2013-07-21T14:03:10Z</time>
      </trkpt>
      <trkpt lat="48.62439" lon="6.1921">
        <ele>258</ele>
        <time>2013-07-21T14:03:12Z</time>
      </trkpt>
      <trkpt lat="48.62445" lon="6.19227">
        <ele>258</ele>
        <time>2013-07-21T14:03:13Z</time>
      </trkpt>
      <trkpt lat="48.62448" lon="6.19244">
        <ele>257</ele>
        <time>2013-07-21T14:03:15Z</time>
      </trkpt>
      <trkpt lat="48.62452" lon="6.19261">
        <ele>258</ele>
        <time>2013-07-21T14:03:18Z</time>
      </trkpt>
      <trkpt lat="48.62456" lon="6.19278">
        <ele>260</ele>
        <time>2013-07-21T14:03:20Z</time>
      </trkpt>
      <trkpt lat="48.6246" lon="6.19294">
        <ele>259</ele>
        <time>2013-07-21T14:03:22Z</time>
      </trkpt>
      <trkpt lat="48.62468" lon="6.19325">
        <ele>256</ele>
        <time>2013-07-21T14:03:26Z</time>
      </trkpt>
      <trkpt lat="48.62472" lon="6.19345">
        <ele>255</ele>
        <time>2013-07-21T14:03:28Z</time>
      </trkpt>
      <trkpt lat="48.62473" lon="6.19366">
        <ele>254</ele>
        <time>2013-07-21T14:03:30Z</time>
      </trkpt>
      <trkpt lat="48.62471" lon="6.19384">
        <ele>253</ele>
        <time>2013-07-21T14:03:32Z</time>
      </trkpt>
      <trkpt lat="48.62466" lon="6.19399">
        <ele>253</ele>
        <time>2013-07-21T14:03:34Z</time>
      </trkpt>
      <trkpt lat="48.62458" lon="6.1941">
        <ele>253</ele>
        <time>2013-07-21T14:03:36Z</time>
      </trkpt>
      <trkpt lat="48.6244" lon="6.19435">
        <ele>252</ele>
        <time>2013-07-21T14:03:39Z</time>
      </trkpt>
      <trkpt lat="48.62433" lon="6.19451">
        <ele>250</ele>
        <time>2013-07-21T14:03:41Z</time>
      </trkpt>
      <trkpt lat="48.62427" lon="6.19466">
        <ele>250</ele>
        <time>2013-07-21T14:03:43Z</time>
      </trkpt>
      <trkpt lat="48.62423" lon="6.19479">
        <ele>249</ele>
        <time>2013-07-21T14:03:46Z</time>
      </trkpt>
      <trkpt lat="48.62419" lon="6.19494">
        <ele>248</ele>
        <time>2013-07-21T14:03:48Z</time>
      </trkpt>
      <trkpt lat="48.62418" lon="6.19499">
        <ele>246</ele>
        <time>2013-07-21T14:03:49Z</time>
      </trkpt>
      <trkpt lat="48.62417" lon="6.19507">
        <ele>246</ele>
        <time>2013-07-21T14:03:51Z</time>
      </trkpt>
      <trkpt lat="48.62415" lon="6.19514">
        <ele>246</ele>
        <time>2013-07-21T14:03:53Z</time>
      </trkpt>
      <trkpt lat="48.62414" lon="6.19523">
        <ele>246</ele>
        <time>2013-07-21T14:03:55Z</time>
      </trkpt>
      <trkpt lat="48.62413" lon="6.19531">
        <ele>246</ele>
        <time>2013-07-21T14:03:57Z</time>
      </trkpt>
      <trkpt lat="48.62414" lon="6.19539">
        <ele>246</ele>
        <time>2013-07-21T14:04:00Z</time>
      </trkpt>
      <trkpt lat="48.62413" lon="6.19548">
        <ele>246</ele>
        <time>2013-07-21T14:04:02Z</time>
      </trkpt>
      <trkpt lat="48.62412" lon="6.19556">
        <ele>245</ele>
        <time>2013-07-21T14:04:03Z</time>
      </trkpt>
      <trkpt lat="48.62411" lon="6.19563">
        <ele>244</ele>
        <time>2013-07-21T14:04:05Z</time>
      </trkpt>
      <trkpt lat="48.6241" lon="6.19569">
        <ele>245</ele>
        <time>2013-07-21T14:04:08Z</time>
      </trkpt>
      <trkpt lat="48.62408" lon="6.19575">
        <ele>246</ele>
        <time>2013-07-21T14:04:10Z</time>
      </trkpt>
      <trkpt lat="48.62409" lon="6.19592">
        <ele>247</ele>
        <time>2013-07-21T14:04:13Z</time>
      </trkpt>
      <trkpt lat="48.6241" lon="6.19605">
        <ele>247</ele>
        <time>2013-07-21T14:04:16Z</time>
      </trkpt>
      <trkpt lat="48.62414" lon="6.19626">
        <ele>247</ele>
        <time>2013-07-21T14:04:18Z</time>
      </trkpt>
      <trkpt lat="48.62417" lon="6.19636">
        <ele>248</ele>
        <time>2013-07-21T14:04:19Z</time>
      </trkpt>
      <trkpt lat="48.6242" lon="6.19646">
        <ele>247</ele>
        <time>2013-07-21T14:04:20Z</time>
      </trkpt>
      <trkpt lat="48.62423" lon="6.19665">
        <ele>247</ele>
        <time>2013-07-21T14:04:22Z</time>
      </trkpt>
      <trkpt lat="48.62428" lon="6.19683">
        <ele>249</ele>
        <time>2013-07-21T14:04:24Z</time>
      </trkpt>
      <trkpt lat="48.62432" lon="6.19696">
        <ele>250</ele>
        <time>2013-07-21T14:04:26Z</time>
      </trkpt>
      <trkpt lat="48.62434" lon="6.19706">
        <ele>250</ele>
        <time>2013-07-21T14:04:27Z</time>
      </trkpt>
      <trkpt lat="48.62434" lon="6.19713">
        <ele>249</ele>
        <time>2013-07-21T14:04:29Z</time>
      </trkpt>
      <trkpt lat="48.62436" lon="6.19718">
        <ele>249</ele>
        <time>2013-07-21T14:04:32Z</time>
      </trkpt>
      <trkpt lat="48.62434" lon="6.19739">
        <ele>247</ele>
        <time>2013-07-21T14:04:39Z</time>
      </trkpt>
      <trkpt lat="48.62432" lon="6.19744">
        <ele>245</ele>
        <time>2013-07-21T14:04:41Z</time>
      </trkpt>
      <trkpt lat="48.62431" lon="6.1975">
        <ele>241</ele>
        <time>2013-07-21T14:04:43Z</time>
      </trkpt>
      <trkpt lat="48.6243" lon="6.19756">
        <ele>239</ele>
        <time>2013-07-21T14:04:45Z</time>
      </trkpt>
      <trkpt lat="48.62425" lon="6.19768">
        <ele>238</ele>
        <time>2013-07-21T14:04:50Z</time>
      </trkpt>
      <trkpt lat="48.62423" lon="6.19773">
        <ele>237</ele>
        <time>2013-07-21T14:04:52Z</time>
      </trkpt>
      <trkpt lat="48.62418" lon="6.19782">
        <ele>238</ele>
        <time>2013-07-21T14:04:54Z</time>
      </trkpt>
      <trkpt lat="48.62413" lon="6.19795">
        <ele>237</ele>
        <time>2013-07-21T14:04:56Z</time>
      </trkpt>
      <trkpt lat="48.6241" lon="6.19808">
        <ele>239</ele>
        <time>2013-07-21T14:04:57Z</time>
      </trkpt>
      <trkpt lat="48.62409" lon="6.19821">
        <ele>241</ele>
        <time>2013-07-21T14:04:59Z</time>
      </trkpt>
      <trkpt lat="48.6241" lon="6.19835">
        <ele>241</ele>
        <time>2013-07-21T14:05:01Z</time>
      </trkpt>
      <trkpt lat="48.62412" lon="6.19847">
        <ele>241</ele>
        <time>2013-07-21T14:05:03Z</time>
      </trkpt>
      <trkpt lat="48.62417" lon="6.19861">
        <ele>240</ele>
        <time>2013-07-21T14:05:06Z</time>
      </trkpt>
      <trkpt lat="48.62423" lon="6.19875">
        <ele>239</ele>
        <time>2013-07-21T14:05:07Z</time>
      </trkpt>
      <trkpt lat="48.62429" lon="6.19888">
        <ele>239</ele>
        <time>2013-07-21T14:05:09Z</time>
      </trkpt>
      <trkpt lat="48.62435" lon="6.19897">
        <ele>238</ele>
        <time>2013-07-21T14:05:11Z</time>
      </trkpt>
      <trkpt lat="48.62438" lon="6.19905">
        <ele>237</ele>
        <time>2013-07-21T14:05:13Z</time>
      </trkpt>
      <trkpt lat="48.62442" lon="6.19912">
        <ele>235</ele>
        <time>2013-07-21T14:05:15Z</time>
      </trkpt>
      <trkpt lat="48.62446" lon="6.19918">
        <ele>235</ele>
        <time>2013-07-21T14:05:17Z</time>
      </trkpt>
      <trkpt lat="48.62451" lon="6.19925">
        <ele>235</ele>
        <time>2013-07-21T14:05:20Z</time>
      </trkpt>
      <trkpt lat="48.62459" lon="6.19938">
        <ele>233</ele>
        <time>2013-07-21T14:05:22Z</time>
      </trkpt>
      <trkpt lat="48.62463" lon="6.19943">
        <ele>234</ele>
        <time>2013-07-21T14:05:23Z</time>
      </trkpt>
      <trkpt lat="48.62471" lon="6.19954">
        <ele>233</ele>
        <time>2013-07-21T14:05:26Z</time>
      </trkpt>
      <trkpt lat="48.62479" lon="6.19964">
        <ele>231</ele>
        <time>2013-07-21T14:05:28Z</time>
      </trkpt>
      <trkpt lat="48.62486" lon="6.19976">
        <ele>231</ele>
        <time>2013-07-21T14:05:30Z</time>
      </trkpt>
      <trkpt lat="48.6249" lon="6.19988">
        <ele>228</ele>
        <time>2013-07-21T14:05:31Z</time>
      </trkpt>
      <trkpt lat="48.62492" lon="6.2">
        <ele>228</ele>
        <time>2013-07-21T14:05:33Z</time>
      </trkpt>
      <trkpt lat="48.62493" lon="6.20011">
        <ele>224</ele>
        <time>2013-07-21T14:05:36Z</time>
      </trkpt>
      <trkpt lat="48.62492" lon="6.20024">
        <ele>222</ele>
        <time>2013-07-21T14:05:37Z</time>
      </trkpt>
      <trkpt lat="48.62492" lon="6.20036">
        <ele>222</ele>
        <time>2013-07-21T14:05:40Z</time>
      </trkpt>
      <trkpt lat="48.62491" lon="6.20048">
        <ele>221</ele>
        <time>2013-07-21T14:05:41Z</time>
      </trkpt>
      <trkpt lat="48.6249" lon="6.2006">
        <ele>220</ele>
        <time>2013-07-21T14:05:43Z</time>
      </trkpt>
      <trkpt lat="48.62489" lon="6.2007">
        <ele>219</ele>
        <time>2013-07-21T14:05:45Z</time>
      </trkpt>
      <trkpt lat="48.62488" lon="6.2008">
        <ele>220</ele>
        <time>2013-07-21T14:05:47Z</time>
      </trkpt>
      <trkpt lat="48.62487" lon="6.20089">
        <ele>221</ele>
        <time>2013-07-21T14:05:49Z</time>
      </trkpt>
      <trkpt lat="48.62487" lon="6.20098">
        <ele>223</ele>
        <time>2013-07-21T14:05:52Z</time>
      </trkpt>
      <trkpt lat="48.62486" lon="6.20107">
        <ele>224</ele>
        <time>2013-07-21T14:05:53Z</time>
      </trkpt>
      <trkpt lat="48.62487" lon="6.20115">
        <ele>225</ele>
        <time>2013-07-21T14:05:55Z</time>
      </trkpt>
      <trkpt lat="48.62487" lon="6.20123">
        <ele>225</ele>
        <time>2013-07-21T14:05:58Z</time>
      </trkpt>
      <trkpt lat="48.62487" lon="6.2013">
        <ele>227</ele>
        <time>2013-07-21T14:06:00Z</time>
      </trkpt>
      <trkpt lat="48.62487" lon="6.20136">
        <ele>228</ele>
        <time>2013-07-21T14:06:02Z</time>
      </trkpt>
      <trkpt lat="48.62487" lon="6.20143">
        <ele>227</ele>
        <time>2013-07-21T14:06:04Z</time>
      </trkpt>
      <trkpt lat="48.62487" lon="6.20152">
        <ele>229</ele>
        <time>2013-07-21T14:06:06Z</time>
      </trkpt>
      <trkpt lat="48.62487" lon="6.20156">
        <ele>228</ele>
        <time>2013-07-21T14:06:07Z</time>
      </trkpt>
      <trkpt lat="48.62487" lon="6.2016">
        <ele>227</ele>
        <time>2013-07-21T14:06:07Z</time>
      </trkpt>
      <trkpt lat="48.62487" lon="6.20168">
        <ele>226</ele>
        <time>2013-07-21T14:06:09Z</time>
      </trkpt>
      <trkpt lat="48.62487" lon="6.20175">
        <ele>226</ele>
        <time>2013-07-21T14:06:11Z</time>
      </trkpt>
      <trkpt lat="48.62488" lon="6.20183">
        <ele>226</ele>
        <time>2013-07-21T14:06:13Z</time>
      </trkpt>
      <trkpt lat="48.6249" lon="6.2019">
        <ele>227</ele>
        <time>2013-07-21T14:06:16Z</time>
      </trkpt>
      <trkpt lat="48.62492" lon="6.20198">
        <ele>229</ele>
        <time>2013-07-21T14:06:18Z</time>
      </trkpt>
      <trkpt lat="48.62495" lon="6.20205">
        <ele>228</ele>
        <time>2013-07-21T14:06:19Z</time>
      </trkpt>
      <trkpt lat="48.62499" lon="6.20211">
        <ele>227</ele>
        <time>2013-07-21T14:06:21Z</time>
      </trkpt>
      <trkpt lat="48.62503" lon="6.20216">
        <ele>227</ele>
        <time>2013-07-21T14:06:24Z</time>
      </trkpt>
      <trkpt lat="48.62507" lon="6.20223">
        <ele>226</ele>
        <time>2013-07-21T14:06:26Z</time>
      </trkpt>
      <trkpt lat="48.6251" lon="6.2023">
        <ele>227</ele>
        <time>2013-07-21T14:06:28Z</time>
      </trkpt>
      <trkpt lat="48.62511" lon="6.20238">
        <ele>224</ele>
        <time>2013-07-21T14:06:29Z</time>
      </trkpt>
      <trkpt lat="48.62512" lon="6.20247">
        <ele>223</ele>
        <time>2013-07-21T14:06:32Z</time>
      </trkpt>
      <trkpt lat="48.62515" lon="6.20257">
        <ele>223</ele>
        <time>2013-07-21T14:06:33Z</time>
      </trkpt>
      <trkpt lat="48.62519" lon="6.20268">
        <ele>224</ele>
        <time>2013-07-21T14:06:35Z</time>
      </trkpt>
      <trkpt lat="48.62524" lon="6.20276">
        <ele>224</ele>
        <time>2013-07-21T14:06:38Z</time>
      </trkpt>
      <trkpt lat="48.62531" lon="6.20279">
        <ele>225</ele>
        <time>2013-07-21T14:06:40Z</time>
      </trkpt>
      <trkpt lat="48.62537" lon="6.2028">
        <ele>225</ele>
        <time>2013-07-21T14:06:42Z</time>
      </trkpt>
      <trkpt lat="48.62544" lon="6.2028">
        <ele>226</ele>
        <time>2013-07-21T14:06:44Z</time>
      </trkpt>
      <trkpt lat="48.62551" lon="6.2028">
        <ele>227</ele>
        <time>2013-07-21T14:06:46Z</time>
      </trkpt>
      <trkpt lat="48.62557" lon="6.20283">
        <ele>229</ele>
        <time>2013-07-21T14:06:47Z</time>
      </trkpt>
      <trkpt lat="48.62561" lon="6.20292">
        <ele>227</ele>
        <time>2013-07-21T14:06:51Z</time>
      </trkpt>
      <trkpt lat="48.62562" lon="6.20297">
        <ele>225</ele>
        <time>2013-07-21T14:06:54Z</time>
      </trkpt>
      <trkpt lat="48.62563" lon="6.20314">
        <ele>228</ele>
        <time>2013-07-21T14:06:58Z</time>
      </trkpt>
      <trkpt lat="48.62563" lon="6.20322">
        <ele>226</ele>
        <time>2013-07-21T14:06:59Z</time>
      </trkpt>
      <trkpt lat="48.62562" lon="6.20329">
        <ele>226</ele>
        <time>2013-07-21T14:07:02Z</time>
      </trkpt>
      <trkpt lat="48.62562" lon="6.20336">
        <ele>225</ele>
        <time>2013-07-21T14:07:03Z</time>
      </trkpt>
      <trkpt lat="48.62562" lon="6.20345">
        <ele>226</ele>
        <time>2013-07-21T14:07:05Z</time>
      </trkpt>
      <trkpt lat="48.62561" lon="6.20354">
        <ele>225</ele>
        <time>2013-07-21T14:07:08Z</time>
      </trkpt>
      <trkpt lat="48.6256" lon="6.20364">
        <ele>226</ele>
        <time>2013-07-21T14:07:10Z</time>
      </trkpt>
      <trkpt lat="48.6256" lon="6.20375">
        <ele>225</ele>
        <time>2013-07-21T14:07:12Z</time>
      </trkpt>
      <trkpt lat="48.6256" lon="6.20385">
        <ele>224</ele>
        <time>2013-07-21T14:07:13Z</time>
      </trkpt>
      <trkpt lat="48.6256" lon="6.20395">
        <ele>223</ele>
        <time>2013-07-21T14:07:16Z</time>
      </trkpt>
      <trkpt lat="48.6256" lon="6.20405">
        <ele>223</ele>
        <time>2013-07-21T14:07:18Z</time>
      </trkpt>
      <trkpt lat="48.62559" lon="6.20416">
        <ele>223</ele>
        <time>2013-07-21T14:07:20Z</time>
      </trkpt>
      <trkpt lat="48.6256" lon="6.20428">
        <ele>222</ele>
        <time>2013-07-21T14:07:22Z</time>
      </trkpt>
      <trkpt lat="48.6256" lon="6.20435">
        <ele>223</ele>
        <time>2013-07-21T14:07:22Z</time>
      </trkpt>
      <trkpt lat="48.6256" lon="6.20441">
        <ele>223</ele>
        <time>2013-07-21T14:07:23Z</time>
      </trkpt>
      <trkpt lat="48.6256" lon="6.20452">
        <ele>224</ele>
        <time>2013-07-21T14:07:26Z</time>
      </trkpt>
      <trkpt lat="48.6256" lon="6.20466">
        <ele>225</ele>
        <time>2013-07-21T14:07:27Z</time>
      </trkpt>
      <trkpt lat="48.62561" lon="6.20479">
        <ele>224</ele>
        <time>2013-07-21T14:07:29Z</time>
      </trkpt>
      <trkpt lat="48.62561" lon="6.20491">
        <ele>222</ele>
        <time>2013-07-21T14:07:32Z</time>
      </trkpt>
      <trkpt lat="48.62561" lon="6.20502">
        <ele>226</ele>
        <time>2013-07-21T14:07:34Z</time>
      </trkpt>
      <trkpt lat="48.62561" lon="6.20516">
        <ele>227</ele>
        <time>2013-07-21T14:07:36Z</time>
      </trkpt>
      <trkpt lat="48.6256" lon="6.2053">
        <ele>224</ele>
        <time>2013-07-21T14:07:38Z</time>
      </trkpt>
      <trkpt lat="48.62559" lon="6.20543">
        <ele>223</ele>
        <time>2013-07-21T14:07:40Z</time>
      </trkpt>
      <trkpt lat="48.62558" lon="6.20556">
        <ele>222</ele>
        <time>2013-07-21T14:07:41Z</time>
      </trkpt>
      <trkpt lat="48.62558" lon="6.20561">
        <ele>223</ele>
        <time>2013-07-21T14:07:43Z</time>
      </trkpt>
      <trkpt lat="48.62557" lon="6.20565">
        <ele>224</ele>
        <time>2013-07-21T14:07:43Z</time>
      </trkpt>
      <trkpt lat="48.62557" lon="6.20572">
        <ele>226</ele>
        <time>2013-07-21T14:07:46Z</time>
      </trkpt>
      <trkpt lat="48.62555" lon="6.2058">
        <ele>225</ele>
        <time>2013-07-21T14:07:47Z</time>
      </trkpt>
      <trkpt lat="48.62554" lon="6.20588">
        <ele>225</ele>
        <time>2013-07-21T14:07:49Z</time>
      </trkpt>
      <trkpt lat="48.62556" lon="6.20592">
        <ele>224</ele>
        <time>2013-07-21T14:07:51Z</time>
      </trkpt>
      <trkpt lat="48.62557" lon="6.20592">
        <ele>224</ele>
        <time>2013-07-21T14:07:53Z</time>
      </trkpt>
      <trkpt lat="48.6256" lon="6.20592">
        <ele>227</ele>
        <time>2013-07-21T14:07:55Z</time>
      </trkpt>
      <trkpt lat="48.62564" lon="6.20592">
        <ele>227</ele>
        <time>2013-07-21T14:07:57Z</time>
      </trkpt>
      <trkpt lat="48.62569" lon="6.20592">
        <ele>229</ele>
        <time>2013-07-21T14:07:59Z</time>
      </trkpt>
      <trkpt lat="48.62573" lon="6.20594">
        <ele>231</ele>
        <time>2013-07-21T14:08:01Z</time>
      </trkpt>
      <trkpt lat="48.62577" lon="6.20596">
        <ele>232</ele>
        <time>2013-07-21T14:08:03Z</time>
      </trkpt>
      <trkpt lat="48.62584" lon="6.206">
        <ele>232</ele>
        <time>2013-07-21T14:08:05Z</time>
      </trkpt>
      <trkpt lat="48.62593" lon="6.20603">
        <ele>233</ele>
        <time>2013-07-21T14:08:07Z</time>
      </trkpt>
      <trkpt lat="48.62601" lon="6.20609">
        <ele>235</ele>
        <time>2013-07-21T14:08:09Z</time>
      </trkpt>
      <trkpt lat="48.62608" lon="6.20614">
        <ele>237</ele>
        <time>2013-07-21T14:08:12Z</time>
      </trkpt>
      <trkpt lat="48.62614" lon="6.20618">
        <ele>236</ele>
        <time>2013-07-21T14:08:13Z</time>
      </trkpt>
      <trkpt lat="48.62622" lon="6.20623">
        <ele>237</ele>
        <time>2013-07-21T14:08:16Z</time>
      </trkpt>
      <trkpt lat="48.62631" lon="6.20628">
        <ele>240</ele>
        <time>2013-07-21T14:08:18Z</time>
      </trkpt>
      <trkpt lat="48.6264" lon="6.20634">
        <ele>240</ele>
        <time>2013-07-21T14:08:20Z</time>
      </trkpt>
      <trkpt lat="48.6265" lon="6.20641">
        <ele>240</ele>
        <time>2013-07-21T14:08:22Z</time>
      </trkpt>
      <trkpt lat="48.62658" lon="6.20647">
        <ele>239</ele>
        <time>2013-07-21T14:08:24Z</time>
      </trkpt>
      <trkpt lat="48.62668" lon="6.20648">
        <ele>236</ele>
        <time>2013-07-21T14:08:26Z</time>
      </trkpt>
      <trkpt lat="48.62676" lon="6.20653">
        <ele>233</ele>
        <time>2013-07-21T14:08:28Z</time>
      </trkpt>
      <trkpt lat="48.62683" lon="6.20657">
        <ele>232</ele>
        <time>2013-07-21T14:08:29Z</time>
      </trkpt>
      <trkpt lat="48.62691" lon="6.20662">
        <ele>233</ele>
        <time>2013-07-21T14:08:32Z</time>
      </trkpt>
      <trkpt lat="48.62699" lon="6.20666">
        <ele>231</ele>
        <time>2013-07-21T14:08:33Z</time>
      </trkpt>
      <trkpt lat="48.62707" lon="6.20672">
        <ele>230</ele>
        <time>2013-07-21T14:08:35Z</time>
      </trkpt>
      <trkpt lat="48.62716" lon="6.20678">
        <ele>226</ele>
        <time>2013-07-21T14:08:38Z</time>
      </trkpt>
      <trkpt lat="48.62725" lon="6.20683">
        <ele>227</ele>
        <time>2013-07-21T14:08:39Z</time>
      </trkpt>
      <trkpt lat="48.62733" lon="6.20687">
        <ele>225</ele>
        <time>2013-07-21T14:08:42Z</time>
      </trkpt>
      <trkpt lat="48.62741" lon="6.20692">
        <ele>225</ele>
        <time>2013-07-21T14:08:44Z</time>
      </trkpt>
      <trkpt lat="48.6275" lon="6.20698">
        <ele>224</ele>
        <time>2013-07-21T14:08:46Z</time>
      </trkpt>
      <trkpt lat="48.62758" lon="6.20706">
        <ele>224</ele>
        <time>2013-07-21T14:08:48Z</time>
      </trkpt>
      <trkpt lat="48.62769" lon="6.20713">
        <ele>228</ele>
        <time>2013-07-21T14:08:49Z</time>
      </trkpt>
      <trkpt lat="48.62779" lon="6.2072">
        <ele>228</ele>
        <time>2013-07-21T14:08:51Z</time>
      </trkpt>
      <trkpt lat="48.62788" lon="6.20727">
        <ele>232</ele>
        <time>2013-07-21T14:08:53Z</time>
      </trkpt>
      <trkpt lat="48.62797" lon="6.20733">
        <ele>234</ele>
        <time>2013-07-21T14:08:56Z</time>
      </trkpt>
      <trkpt lat="48.62801" lon="6.20737">
        <ele>234</ele>
        <time>2013-07-21T14:08:57Z</time>
      </trkpt>
      <trkpt lat="48.62806" lon="6.2074">
        <ele>232</ele>
        <time>2013-07-21T14:08:57Z</time>
      </trkpt>
      <trkpt lat="48.62814" lon="6.20747">
        <ele>229</ele>
        <time>2013-07-21T14:09:00Z</time>
      </trkpt>
      <trkpt lat="48.6282" lon="6.20751">
        <ele>223</ele>
        <time>2013-07-21T14:09:02Z</time>
      </trkpt>
      <trkpt lat="48.62826" lon="6.20754">
        <ele>223</ele>
        <time>2013-07-21T14:09:04Z</time>
      </trkpt>
      <trkpt lat="48.62832" lon="6.20755">
        <ele>222</ele>
        <time>2013-07-21T14:09:06Z</time>
      </trkpt>
      <trkpt lat="48.62837" lon="6.20756">
        <ele>222</ele>
        <time>2013-07-21T14:09:08Z</time>
      </trkpt>
      <trkpt lat="48.62842" lon="6.20751">
        <ele>217</ele>
        <time>2013-07-21T14:09:09Z</time>
      </trkpt>
      <trkpt lat="48.62846" lon="6.20745">
        <ele>216</ele>
        <time>2013-07-21T14:09:11Z</time>
      </trkpt>
      <trkpt lat="48.62853" lon="6.20739">
        <ele>217</ele>
        <time>2013-07-21T14:09:13Z</time>
      </trkpt>
      <trkpt lat="48.62859" lon="6.20734">
        <ele>218</ele>
        <time>2013-07-21T14:09:16Z</time>
      </trkpt>
      <trkpt lat="48.62865" lon="6.20729">
        <ele>219</ele>
        <time>2013-07-21T14:09:18Z</time>
      </trkpt>
      <trkpt lat="48.62871" lon="6.20725">
        <ele>216</ele>
        <time>2013-07-21T14:09:19Z</time>
      </trkpt>
      <trkpt lat="48.62884" lon="6.20729">
        <ele>219</ele>
        <time>2013-07-21T14:09:23Z</time>
      </trkpt>
      <trkpt lat="48.62888" lon="6.20733">
        <ele>219</ele>
        <time>2013-07-21T14:09:25Z</time>
      </trkpt>
      <trkpt lat="48.62891" lon="6.20737">
        <ele>219</ele>
        <time>2013-07-21T14:09:27Z</time>
      </trkpt>
      <trkpt lat="48.62894" lon="6.20741">
        <ele>218</ele>
        <time>2013-07-21T14:09:29Z</time>
      </trkpt>
      <trkpt lat="48.62898" lon="6.20745">
        <ele>221</ele>
        <time>2013-07-21T14:09:32Z</time>
      </trkpt>
      <trkpt lat="48.62903" lon="6.2075">
        <ele>223</ele>
        <time>2013-07-21T14:09:33Z</time>
      </trkpt>
      <trkpt lat="48.62908" lon="6.20757">
        <ele>222</ele>
        <time>2013-07-21T14:09:35Z</time>
      </trkpt>
      <trkpt lat="48.62913" lon="6.20762">
        <ele>223</ele>
        <time>2013-07-21T14:09:37Z</time>
      </trkpt>
      <trkpt lat="48.62918" lon="6.20767">
        <ele>221</ele>
        <time>2013-07-21T14:09:40Z</time>
      </trkpt>
      <trkpt lat="48.62923" lon="6.20773">
        <ele>224</ele>
        <time>2013-07-21T14:09:42Z</time>
      </trkpt>
      <trkpt lat="48.62928" lon="6.20779">
        <ele>225</ele>
        <time>2013-07-21T14:09:44Z</time>
      </trkpt>
      <trkpt lat="48.62933" lon="6.20785">
        <ele>223</ele>
        <time>2013-07-21T14:09:46Z</time>
      </trkpt>
      <trkpt lat="48.62938" lon="6.2079">
        <ele>222</ele>
        <time>2013-07-21T14:09:48Z</time>
      </trkpt>
      <trkpt lat="48.6294" lon="6.20793">
        <ele>222</ele>
        <time>2013-07-21T14:09:48Z</time>
      </trkpt>
      <trkpt lat="48.62941" lon="6.20795">
        <ele>224</ele>
        <time>2013-07-21T14:09:49Z</time>
      </trkpt>
      <trkpt lat="48.62944" lon="6.20798">
        <ele>225</ele>
        <time>2013-07-21T14:09:52Z</time>
      </trkpt>
      <trkpt lat="48.62946" lon="6.20803">
        <ele>225</ele>
        <time>2013-07-21T14:09:53Z</time>
      </trkpt>
      <trkpt lat="48.62949" lon="6.20806">
        <ele>224</ele>
        <time>2013-07-21T14:09:56Z</time>
      </trkpt>
      <trkpt lat="48.62951" lon="6.2081">
        <ele>223</ele>
        <time>2013-07-21T14:09:57Z</time>
      </trkpt>
      <trkpt lat="48.62954" lon="6.20815">
        <ele>224</ele>
        <time>2013-07-21T14:10:00Z</time>
      </trkpt>
      <trkpt lat="48.62957" lon="6.20819">
        <ele>225</ele>
        <time>2013-07-21T14:10:02Z</time>
      </trkpt>
      <trkpt lat="48.6296" lon="6.20824">
        <ele>225</ele>
        <time>2013-07-21T14:10:04Z</time>
      </trkpt>
      <trkpt lat="48.62963" lon="6.2083">
        <ele>224</ele>
        <time>2013-07-21T14:10:06Z</time>
      </trkpt>
      <trkpt lat="48.62967" lon="6.20835">
        <ele>223</ele>
        <time>2013-07-21T14:10:07Z</time>
      </trkpt>
      <trkpt lat="48.6297" lon="6.20839">
        <ele>222</ele>
        <time>2013-07-21T14:10:10Z</time>
      </trkpt>
      <trkpt lat="48.62972" lon="6.20843">
        <ele>223</ele>
        <time>2013-07-21T14:10:12Z</time>
      </trkpt>
      <trkpt lat="48.62975" lon="6.20847">
        <ele>224</ele>
        <time>2013-07-21T14:10:14Z</time>
      </trkpt>
      <trkpt lat="48.6298" lon="6.20854">
        <ele>223</ele>
        <time>2013-07-21T14:10:18Z</time>
      </trkpt>
      <trkpt lat="48.62983" lon="6.20858">
        <ele>220</ele>
        <time>2013-07-21T14:10:19Z</time>
      </trkpt>
      <trkpt lat="48.62985" lon="6.20862">
        <ele>218</ele>
        <time>2013-07-21T14:10:22Z</time>
      </trkpt>
      <trkpt lat="48.62988" lon="6.20865">
        <ele>220</ele>
        <time>2013-07-21T14:10:24Z</time>
      </trkpt>
      <trkpt lat="48.62991" lon="6.20868">
        <ele>222</ele>
        <time>2013-07-21T14:10:26Z</time>
      </trkpt>
      <trkpt lat="48.62993" lon="6.2087">
        <ele>222</ele>
        <time>2013-07-21T14:10:28Z</time>
      </trkpt>
      <trkpt lat="48.62996" lon="6.20873">
        <ele>224</ele>
        <time>2013-07-21T14:10:30Z</time>
      </trkpt>
      <trkpt lat="48.62998" lon="6.20876">
        <ele>224</ele>
        <time>2013-07-21T14:10:32Z</time>
      </trkpt>
      <trkpt lat="48.63001" lon="6.20879">
        <ele>228</ele>
        <time>2013-07-21T14:10:34Z</time>
      </trkpt>
      <trkpt lat="48.63004" lon="6.20883">
        <ele>229</ele>
        <time>2013-07-21T14:10:36Z</time>
      </trkpt>
      <trkpt lat="48.63007" lon="6.20886">
        <ele>230</ele>
        <time>2013-07-21T14:10:37Z</time>
      </trkpt>
      <trkpt lat="48.6301" lon="6.20889">
        <ele>226</ele>
        <time>2013-07-21T14:10:40Z</time>
      </trkpt>
      <trkpt lat="48.63012" lon="6.20891">
        <ele>225</ele>
        <time>2013-07-21T14:10:41Z</time>
      </trkpt>
      <trkpt lat="48.63013" lon="6.20893">
        <ele>224</ele>
        <time>2013-07-21T14:10:42Z</time>
      </trkpt>
      <trkpt lat="48.63016" lon="6.20897">
        <ele>223</ele>
        <time>2013-07-21T14:10:44Z</time>
      </trkpt>
      <trkpt lat="48.6302" lon="6.20902">
        <ele>221</ele>
        <time>2013-07-21T14:10:46Z</time>
      </trkpt>
      <trkpt lat="48.63024" lon="6.20906">
        <ele>221</ele>
        <time>2013-07-21T14:10:47Z</time>
      </trkpt>
      <trkpt lat="48.63028" lon="6.2091">
        <ele>221</ele>
        <time>2013-07-21T14:10:50Z</time>
      </trkpt>
      <trkpt lat="48.63032" lon="6.20915">
        <ele>223</ele>
        <time>2013-07-21T14:10:52Z</time>
      </trkpt>
      <trkpt lat="48.63036" lon="6.2092">
        <ele>224</ele>
        <time>2013-07-21T14:10:53Z</time>
      </trkpt>
      <trkpt lat="48.6304" lon="6.20924">
        <ele>226</ele>
        <time>2013-07-21T14:10:56Z</time>
      </trkpt>
      <trkpt lat="48.63045" lon="6.2093">
        <ele>225</ele>
        <time>2013-07-21T14:10:58Z</time>
      </trkpt>
      <trkpt lat="48.63052" lon="6.20937">
        <ele>227</ele>
        <time>2013-07-21T14:11:00Z</time>
      </trkpt>
      <trkpt lat="48.63058" lon="6.20943">
        <ele>227</ele>
        <time>2013-07-21T14:11:02Z</time>
      </trkpt>
      <trkpt lat="48.63064" lon="6.20949">
        <ele>227</ele>
        <time>2013-07-21T14:11:04Z</time>
      </trkpt>
      <trkpt lat="48.63071" lon="6.20955">
        <ele>225</ele>
        <time>2013-07-21T14:11:06Z</time>
      </trkpt>
      <trkpt lat="48.63077" lon="6.20961">
        <ele>224</ele>
        <time>2013-07-21T14:11:08Z</time>
      </trkpt>
      <trkpt lat="48.63083" lon="6.20967">
        <ele>224</ele>
        <time>2013-07-21T14:11:10Z</time>
      </trkpt>
      <trkpt lat="48.63089" lon="6.20972">
        <ele>222</ele>
        <time>2013-07-21T14:11:12Z</time>
      </trkpt>
      <trkpt lat="48.63097" lon="6.20979">
        <ele>224</ele>
        <time>2013-07-21T14:11:14Z</time>
      </trkpt>
      <trkpt lat="48.63106" lon="6.20985">
        <ele>223</ele>
        <time>2013-07-21T14:11:15Z</time>
      </trkpt>
      <trkpt lat="48.63117" lon="6.20991">
        <ele>220</ele>
        <time>2013-07-21T14:11:18Z</time>
      </trkpt>
      <trkpt lat="48.63128" lon="6.20998">
        <ele>218</ele>
        <time>2013-07-21T14:11:20Z</time>
      </trkpt>
      <trkpt lat="48.63141" lon="6.21002">
        <ele>217</ele>
        <time>2013-07-21T14:11:22Z</time>
      </trkpt>
      <trkpt lat="48.63155" lon="6.21005">
        <ele>217</ele>
        <time>2013-07-21T14:11:24Z</time>
      </trkpt>
      <trkpt lat="48.6317" lon="6.21007">
        <ele>218</ele>
        <time>2013-07-21T14:11:26Z</time>
      </trkpt>
      <trkpt lat="48.63184" lon="6.2101">
        <ele>219</ele>
        <time>2013-07-21T14:11:28Z</time>
      </trkpt>
      <trkpt lat="48.63199" lon="6.21013">
        <ele>219</ele>
        <time>2013-07-21T14:11:30Z</time>
      </trkpt>
      <trkpt lat="48.63213" lon="6.21015">
        <ele>219</ele>
        <time>2013-07-21T14:11:31Z</time>
      </trkpt>
      <trkpt lat="48.63227" lon="6.21018">
        <ele>218</ele>
        <time>2013-07-21T14:11:33Z</time>
      </trkpt>
      <trkpt lat="48.63239" lon="6.21021">
        <ele>218</ele>
        <time>2013-07-21T14:11:36Z</time>
      </trkpt>
      <trkpt lat="48.63251" lon="6.21023">
        <ele>218</ele>
        <time>2013-07-21T14:11:38Z</time>
      </trkpt>
      <trkpt lat="48.63263" lon="6.21025">
        <ele>217</ele>
        <time>2013-07-21T14:11:40Z</time>
      </trkpt>
      <trkpt lat="48.63274" lon="6.21027">
        <ele>217</ele>
        <time>2013-07-21T14:11:42Z</time>
      </trkpt>
      <trkpt lat="48.63284" lon="6.21029">
        <ele>217</ele>
        <time>2013-07-21T14:11:44Z</time>
      </trkpt>
      <trkpt lat="48.63294" lon="6.21031">
        <ele>217</ele>
        <time>2013-07-21T14:11:46Z</time>
      </trkpt>
      <trkpt lat="48.63303" lon="6.21032">
        <ele>217</ele>
        <time>2013-07-21T14:11:47Z</time>
      </trkpt>
      <trkpt lat="48.63312" lon="6.21033">
        <ele>217</ele>
        <time>2013-07-21T14:11:50Z</time>
      </trkpt>
      <trkpt lat="48.6332" lon="6.21034">
        <ele>217</ele>
        <time>2013-07-21T14:11:52Z</time>
      </trkpt>
      <trkpt lat="48.63328" lon="6.21036">
        <ele>217</ele>
        <time>2013-07-21T14:11:54Z</time>
      </trkpt>
      <trkpt lat="48.63336" lon="6.21036">
        <ele>217</ele>
        <time>2013-07-21T14:11:56Z</time>
      </trkpt>
      <trkpt lat="48.63342" lon="6.21037">
        <ele>220</ele>
        <time>2013-07-21T14:11:58Z</time>
      </trkpt>
      <trkpt lat="48.63347" lon="6.21037">
        <ele>220</ele>
        <time>2013-07-21T14:11:59Z</time>
      </trkpt>
      <trkpt lat="48.63358" lon="6.21038">
        <ele>221</ele>
        <time>2013-07-21T14:12:02Z</time>
      </trkpt>
      <trkpt lat="48.63368" lon="6.2104">
        <ele>221</ele>
        <time>2013-07-21T14:12:03Z</time>
      </trkpt>
      <trkpt lat="48.63376" lon="6.21041">
        <ele>219</ele>
        <time>2013-07-21T14:12:06Z</time>
      </trkpt>
      <trkpt lat="48.63384" lon="6.21042">
        <ele>218</ele>
        <time>2013-07-21T14:12:08Z</time>
      </trkpt>
      <trkpt lat="48.63391" lon="6.21043">
        <ele>217</ele>
        <time>2013-07-21T14:12:10Z</time>
      </trkpt>
      <trkpt lat="48.63398" lon="6.21044">
        <ele>217</ele>
        <time>2013-07-21T14:12:12Z</time>
      </trkpt>
      <trkpt lat="48.63405" lon="6.21046">
        <ele>218</ele>
        <time>2013-07-21T14:12:14Z</time>
      </trkpt>
      <trkpt lat="48.63413" lon="6.21048">
        <ele>218</ele>
        <time>2013-07-21T14:12:16Z</time>
      </trkpt>
      <trkpt lat="48.63421" lon="6.2105">
        <ele>218</ele>
        <time>2013-07-21T14:12:18Z</time>
      </trkpt>
      <trkpt lat="48.63428" lon="6.21051">
        <ele>218</ele>
        <time>2013-07-21T14:12:20Z</time>
      </trkpt>
      <trkpt lat="48.63437" lon="6.21052">
        <ele>216</ele>
        <time>2013-07-21T14:12:22Z</time>
      </trkpt>
      <trkpt lat="48.63444" lon="6.21054">
        <ele>216</ele>
        <time>2013-07-21T14:12:24Z</time>
      </trkpt>
      <trkpt lat="48.63452" lon="6.21055">
        <ele>216</ele>
        <time>2013-07-21T14:12:26Z</time>
      </trkpt>
      <trkpt lat="48.6346" lon="6.21057">
        <ele>217</ele>
        <time>2013-07-21T14:12:28Z</time>
      </trkpt>
      <trkpt lat="48.63468" lon="6.21058">
        <ele>216</ele>
        <time>2013-07-21T14:12:30Z</time>
      </trkpt>
      <trkpt lat="48.63476" lon="6.2106">
        <ele>217</ele>
        <time>2013-07-21T14:12:32Z</time>
      </trkpt>
      <trkpt lat="48.63485" lon="6.21061">
        <ele>217</ele>
        <time>2013-07-21T14:12:34Z</time>
      </trkpt>
      <trkpt lat="48.63493" lon="6.21062">
        <ele>217</ele>
        <time>2013-07-21T14:12:36Z</time>
      </trkpt>
      <trkpt lat="48.63502" lon="6.21064">
        <ele>218</ele>
        <time>2013-07-21T14:12:38Z</time>
      </trkpt>
      <trkpt lat="48.63511" lon="6.21065">
        <ele>219</ele>
        <time>2013-07-21T14:12:40Z</time>
      </trkpt>
      <trkpt lat="48.63519" lon="6.21066">
        <ele>219</ele>
        <time>2013-07-21T14:12:42Z</time>
      </trkpt>
      <trkpt lat="48.63528" lon="6.21068">
        <ele>218</ele>
        <time>2013-07-21T14:12:44Z</time>
      </trkpt>
      <trkpt lat="48.63536" lon="6.21069">
        <ele>217</ele>
        <time>2013-07-21T14:12:46Z</time>
      </trkpt>
      <trkpt lat="48.63545" lon="6.21071">
        <ele>217</ele>
        <time>2013-07-21T14:12:48Z</time>
      </trkpt>
      <trkpt lat="48.63554" lon="6.21072">
        <ele>211</ele>
        <time>2013-07-21T14:12:50Z</time>
      </trkpt>
      <trkpt lat="48.63564" lon="6.21073">
        <ele>210</ele>
        <time>2013-07-21T14:12:52Z</time>
      </trkpt>
      <trkpt lat="48.63572" lon="6.21073">
        <ele>209</ele>
        <time>2013-07-21T14:12:54Z</time>
      </trkpt>
      <trkpt lat="48.6358" lon="6.21075">
        <ele>210</ele>
        <time>2013-07-21T14:12:56Z</time>
      </trkpt>
      <trkpt lat="48.63588" lon="6.21076">
        <ele>210</ele>
        <time>2013-07-21T14:12:58Z</time>
      </trkpt>
      <trkpt lat="48.63596" lon="6.21077">
        <ele>209</ele>
        <time>2013-07-21T14:13:00Z</time>
      </trkpt>
      <trkpt lat="48.63604" lon="6.21079">
        <ele>211</ele>
        <time>2013-07-21T14:13:02Z</time>
      </trkpt>
      <trkpt lat="48.63613" lon="6.21079">
        <ele>209</ele>
        <time>2013-07-21T14:13:04Z</time>
      </trkpt>
      <trkpt lat="48.63622" lon="6.2108">
        <ele>209</ele>
        <time>2013-07-21T14:13:06Z</time>
      </trkpt>
      <trkpt lat="48.6363" lon="6.21081">
        <ele>208</ele>
        <time>2013-07-21T14:13:08Z</time>
      </trkpt>
      <trkpt lat="48.63639" lon="6.21082">
        <ele>208</ele>
        <time>2013-07-21T14:13:10Z</time>
      </trkpt>
      <trkpt lat="48.63647" lon="6.21083">
        <ele>209</ele>
        <time>2013-07-21T14:13:12Z</time>
      </trkpt>
      <trkpt lat="48.63656" lon="6.21084">
        <ele>209</ele>
        <time>2013-07-21T14:13:14Z</time>
      </trkpt>
      <trkpt lat="48.63664" lon="6.21086">
        <ele>209</ele>
        <time>2013-07-21T14:13:16Z</time>
      </trkpt>
      <trkpt lat="48.63669" lon="6.21087">
        <ele>209</ele>
        <time>2013-07-21T14:13:17Z</time>
      </trkpt>
      <trkpt lat="48.63673" lon="6.21088">
        <ele>209</ele>
        <time>2013-07-21T14:13:18Z</time>
      </trkpt>
      <trkpt lat="48.63681" lon="6.21089">
        <ele>209</ele>
        <time>2013-07-21T14:13:19Z</time>
      </trkpt>
      <trkpt lat="48.63689" lon="6.21091">
        <ele>211</ele>
        <time>2013-07-21T14:13:22Z</time>
      </trkpt>
      <trkpt lat="48.63697" lon="6.21092">
        <ele>210</ele>
        <time>2013-07-21T14:13:23Z</time>
      </trkpt>
      <trkpt lat="48.63705" lon="6.21094">
        <ele>209</ele>
        <time>2013-07-21T14:13:26Z</time>
      </trkpt>
      <trkpt lat="48.63713" lon="6.21095">
        <ele>208</ele>
        <time>2013-07-21T14:13:28Z</time>
      </trkpt>
      <trkpt lat="48.6372" lon="6.21097">
        <ele>208</ele>
        <time>2013-07-21T14:13:30Z</time>
      </trkpt>
      <trkpt lat="48.63728" lon="6.21098">
        <ele>209</ele>
        <time>2013-07-21T14:13:32Z</time>
      </trkpt>
      <trkpt lat="48.63736" lon="6.21099">
        <ele>209</ele>
        <time>2013-07-21T14:13:34Z</time>
      </trkpt>
      <trkpt lat="48.63745" lon="6.211">
        <ele>207</ele>
        <time>2013-07-21T14:13:36Z</time>
      </trkpt>
      <trkpt lat="48.63752" lon="6.21102">
        <ele>210</ele>
        <time>2013-07-21T14:13:37Z</time>
      </trkpt>
      <trkpt lat="48.63767" lon="6.21104">
        <ele>212</ele>
        <time>2013-07-21T14:13:42Z</time>
      </trkpt>
      <trkpt lat="48.63774" lon="6.21106">
        <ele>212</ele>
        <time>2013-07-21T14:13:44Z</time>
      </trkpt>
      <trkpt lat="48.63783" lon="6.21107">
        <ele>210</ele>
        <time>2013-07-21T14:13:46Z</time>
      </trkpt>
      <trkpt lat="48.6379" lon="6.21109">
        <ele>209</ele>
        <time>2013-07-21T14:13:48Z</time>
      </trkpt>
      <trkpt lat="48.63797" lon="6.2111">
        <ele>211</ele>
        <time>2013-07-21T14:13:50Z</time>
      </trkpt>
      <trkpt lat="48.63805" lon="6.21111">
        <ele>213</ele>
        <time>2013-07-21T14:13:52Z</time>
      </trkpt>
      <trkpt lat="48.63812" lon="6.21113">
        <ele>210</ele>
        <time>2013-07-21T14:13:53Z</time>
      </trkpt>
      <trkpt lat="48.6382" lon="6.21113">
        <ele>211</ele>
        <time>2013-07-21T14:13:56Z</time>
      </trkpt>
      <trkpt lat="48.63827" lon="6.21115">
        <ele>212</ele>
        <time>2013-07-21T14:13:58Z</time>
      </trkpt>
      <trkpt lat="48.63834" lon="6.21116">
        <ele>215</ele>
        <time>2013-07-21T14:14:00Z</time>
      </trkpt>
      <trkpt lat="48.63841" lon="6.21117">
        <ele>214</ele>
        <time>2013-07-21T14:14:02Z</time>
      </trkpt>
      <trkpt lat="48.63849" lon="6.21118">
        <ele>213</ele>
        <time>2013-07-21T14:14:03Z</time>
      </trkpt>
      <trkpt lat="48.63856" lon="6.21119">
        <ele>213</ele>
        <time>2013-07-21T14:14:06Z</time>
      </trkpt>
      <trkpt lat="48.63863" lon="6.2112">
        <ele>214</ele>
        <time>2013-07-21T14:14:08Z</time>
      </trkpt>
      <trkpt lat="48.6387" lon="6.21121">
        <ele>215</ele>
        <time>2013-07-21T14:14:09Z</time>
      </trkpt>
      <trkpt lat="48.63877" lon="6.21123">
        <ele>216</ele>
        <time>2013-07-21T14:14:12Z</time>
      </trkpt>
      <trkpt lat="48.63885" lon="6.21124">
        <ele>216</ele>
        <time>2013-07-21T14:14:14Z</time>
      </trkpt>
      <trkpt lat="48.63892" lon="6.21126">
        <ele>215</ele>
        <time>2013-07-21T14:14:16Z</time>
      </trkpt>
      <trkpt lat="48.639" lon="6.21128">
        <ele>212</ele>
        <time>2013-07-21T14:14:17Z</time>
      </trkpt>
      <trkpt lat="48.63908" lon="6.21129">
        <ele>211</ele>
        <time>2013-07-21T14:14:20Z</time>
      </trkpt>
      <trkpt lat="48.63915" lon="6.21131">
        <ele>211</ele>
        <time>2013-07-21T14:14:22Z</time>
      </trkpt>
      <trkpt lat="48.63923" lon="6.21132">
        <ele>212</ele>
        <time>2013-07-21T14:14:24Z</time>
      </trkpt>
      <trkpt lat="48.63931" lon="6.21133">
        <ele>213</ele>
        <time>2013-07-21T14:14:25Z</time>
      </trkpt>
      <trkpt lat="48.63938" lon="6.21135">
        <ele>214</ele>
        <time>2013-07-21T14:14:28Z</time>
      </trkpt>
      <trkpt lat="48.63945" lon="6.21136">
        <ele>215</ele>
        <time>2013-07-21T14:14:30Z</time>
      </trkpt>
      <trkpt lat="48.63953" lon="6.21138">
        <ele>215</ele>
        <time>2013-07-21T14:14:32Z</time>
      </trkpt>
      <trkpt lat="48.6396" lon="6.21139">
        <ele>215</ele>
        <time>2013-07-21T14:14:34Z</time>
      </trkpt>
      <trkpt lat="48.63968" lon="6.2114">
        <ele>216</ele>
        <time>2013-07-21T14:14:36Z</time>
      </trkpt>
      <trkpt lat="48.63976" lon="6.21139">
        <ele>216</ele>
        <time>2013-07-21T14:14:37Z</time>
      </trkpt>
      <trkpt lat="48.63984" lon="6.21138">
        <ele>214</ele>
        <time>2013-07-21T14:14:40Z</time>
      </trkpt>
      <trkpt lat="48.63991" lon="6.21137">
        <ele>213</ele>
        <time>2013-07-21T14:14:42Z</time>
      </trkpt>
      <trkpt lat="48.63998" lon="6.21135">
        <ele>213</ele>
        <time>2013-07-21T14:14:44Z</time>
      </trkpt>
      <trkpt lat="48.64005" lon="6.21134">
        <ele>211</ele>
        <time>2013-07-21T14:14:45Z</time>
      </trkpt>
      <trkpt lat="48.64013" lon="6.21131">
        <ele>210</ele>
        <time>2013-07-21T14:14:48Z</time>
      </trkpt>
      <trkpt lat="48.64021" lon="6.21128">
        <ele>210</ele>
        <time>2013-07-21T14:14:50Z</time>
      </trkpt>
      <trkpt lat="48.64029" lon="6.21124">
        <ele>210</ele>
        <time>2013-07-21T14:14:51Z</time>
      </trkpt>
      <trkpt lat="48.64037" lon="6.21122">
        <ele>211</ele>
        <time>2013-07-21T14:14:53Z</time>
      </trkpt>
      <trkpt lat="48.64045" lon="6.2112">
        <ele>211</ele>
        <time>2013-07-21T14:14:55Z</time>
      </trkpt>
      <trkpt lat="48.64054" lon="6.21118">
        <ele>206</ele>
        <time>2013-07-21T14:14:57Z</time>
      </trkpt>
      <trkpt lat="48.64062" lon="6.21116">
        <ele>206</ele>
        <time>2013-07-21T14:15:00Z</time>
      </trkpt>
      <trkpt lat="48.64074" lon="6.21112">
        <ele>211</ele>
        <time>2013-07-21T14:15:03Z</time>
      </trkpt>
      <trkpt lat="48.64082" lon="6.2111">
        <ele>212</ele>
        <time>2013-07-21T14:15:06Z</time>
      </trkpt>
      <trkpt lat="48.6409" lon="6.21108">
        <ele>213</ele>
        <time>2013-07-21T14:15:08Z</time>
      </trkpt>
      <trkpt lat="48.64097" lon="6.21107">
        <ele>213</ele>
        <time>2013-07-21T14:15:10Z</time>
      </trkpt>
      <trkpt lat="48.64105" lon="6.21105">
        <ele>214</ele>
        <time>2013-07-21T14:15:12Z</time>
      </trkpt>
      <trkpt lat="48.64111" lon="6.21104">
        <ele>212</ele>
        <time>2013-07-21T14:15:14Z</time>
      </trkpt>
      <trkpt lat="48.64119" lon="6.21102">
        <ele>208</ele>
        <time>2013-07-21T14:15:15Z</time>
      </trkpt>
      <trkpt lat="48.64126" lon="6.21099">
        <ele>208</ele>
        <time>2013-07-21T14:15:18Z</time>
      </trkpt>
      <trkpt lat="48.64132" lon="6.21097">
        <ele>210</ele>
        <time>2013-07-21T14:15:20Z</time>
      </trkpt>
      <trkpt lat="48.64138" lon="6.21096">
        <ele>210</ele>
        <time>2013-07-21T14:15:22Z</time>
      </trkpt>
      <trkpt lat="48.64143" lon="6.21094">
        <ele>210</ele>
        <time>2013-07-21T14:15:24Z</time>
      </trkpt>
      <trkpt lat="48.64148" lon="6.21093">
        <ele>211</ele>
        <time>2013-07-21T14:15:26Z</time>
      </trkpt>
      <trkpt lat="48.64157" lon="6.21091">
        <ele>212</ele>
        <time>2013-07-21T14:15:29Z</time>
      </trkpt>
      <trkpt lat="48.64159" lon="6.2109">
        <ele>213</ele>
        <time>2013-07-21T14:15:29Z</time>
      </trkpt>
      <trkpt lat="48.64164" lon="6.21089">
        <ele>214</ele>
        <time>2013-07-21T14:15:32Z</time>
      </trkpt>
      <trkpt lat="48.64169" lon="6.21087">
        <ele>216</ele>
        <time>2013-07-21T14:15:34Z</time>
      </trkpt>
      <trkpt lat="48.64174" lon="6.21086">
        <ele>217</ele>
        <time>2013-07-21T14:15:36Z</time>
      </trkpt>
      <trkpt lat="48.6418" lon="6.21084">
        <ele>214</ele>
        <time>2013-07-21T14:15:37Z</time>
      </trkpt>
      <trkpt lat="48.64186" lon="6.21082">
        <ele>213</ele>
        <time>2013-07-21T14:15:40Z</time>
      </trkpt>
      <trkpt lat="48.64191" lon="6.21081">
        <ele>214</ele>
        <time>2013-07-21T14:15:42Z</time>
      </trkpt>
      <trkpt lat="48.64196" lon="6.21079">
        <ele>214</ele>
        <time>2013-07-21T14:15:43Z</time>
      </trkpt>
      <trkpt lat="48.64201" lon="6.21077">
        <ele>214</ele>
        <time>2013-07-21T14:15:46Z</time>
      </trkpt>
      <trkpt lat="48.64207" lon="6.21076">
        <ele>214</ele>
        <time>2013-07-21T14:15:48Z</time>
      </trkpt>
      <trkpt lat="48.64212" lon="6.21074">
        <ele>213</ele>
        <time>2013-07-21T14:15:50Z</time>
      </trkpt>
      <trkpt lat="48.64218" lon="6.21073">
        <ele>213</ele>
        <time>2013-07-21T14:15:52Z</time>
      </trkpt>
      <trkpt lat="48.64223" lon="6.21072">
        <ele>212</ele>
        <time>2013-07-21T14:15:54Z</time>
      </trkpt>
      <trkpt lat="48.64228" lon="6.21071">
        <ele>212</ele>
        <time>2013-07-21T14:15:56Z</time>
      </trkpt>
      <trkpt lat="48.64233" lon="6.2107">
        <ele>212</ele>
        <time>2013-07-21T14:15:58Z</time>
      </trkpt>
      <trkpt lat="48.64238" lon="6.21069">
        <ele>214</ele>
        <time>2013-07-21T14:15:59Z</time>
      </trkpt>
      <trkpt lat="48.64242" lon="6.21068">
        <ele>216</ele>
        <time>2013-07-21T14:16:02Z</time>
      </trkpt>
      <trkpt lat="48.64247" lon="6.21068">
        <ele>218</ele>
        <time>2013-07-21T14:16:04Z</time>
      </trkpt>
      <trkpt lat="48.64252" lon="6.21067">
        <ele>218</ele>
        <time>2013-07-21T14:16:06Z</time>
      </trkpt>
      <trkpt lat="48.64257" lon="6.21066">
        <ele>219</ele>
        <time>2013-07-21T14:16:08Z</time>
      </trkpt>
      <trkpt lat="48.64261" lon="6.21065">
        <ele>217</ele>
        <time>2013-07-21T14:16:10Z</time>
      </trkpt>
      <trkpt lat="48.64265" lon="6.21064">
        <ele>218</ele>
        <time>2013-07-21T14:16:12Z</time>
      </trkpt>
      <trkpt lat="48.6427" lon="6.21062">
        <ele>215</ele>
        <time>2013-07-21T14:16:13Z</time>
      </trkpt>
      <trkpt lat="48.64275" lon="6.2106">
        <ele>214</ele>
        <time>2013-07-21T14:16:15Z</time>
      </trkpt>
      <trkpt lat="48.6428" lon="6.21058">
        <ele>214</ele>
        <time>2013-07-21T14:16:18Z</time>
      </trkpt>
      <trkpt lat="48.64288" lon="6.21055">
        <ele>219</ele>
        <time>2013-07-21T14:16:22Z</time>
      </trkpt>
      <trkpt lat="48.64292" lon="6.21054">
        <ele>218</ele>
        <time>2013-07-21T14:16:23Z</time>
      </trkpt>
      <trkpt lat="48.64297" lon="6.21052">
        <ele>216</ele>
        <time>2013-07-21T14:16:25Z</time>
      </trkpt>
      <trkpt lat="48.64302" lon="6.21051">
        <ele>216</ele>
        <time>2013-07-21T14:16:28Z</time>
      </trkpt>
      <trkpt lat="48.64307" lon="6.2105">
        <ele>214</ele>
        <time>2013-07-21T14:16:29Z</time>
      </trkpt>
      <trkpt lat="48.64311" lon="6.21048">
        <ele>215</ele>
        <time>2013-07-21T14:16:32Z</time>
      </trkpt>
      <trkpt lat="48.64314" lon="6.21046">
        <ele>214</ele>
        <time>2013-07-21T14:16:34Z</time>
      </trkpt>
      <trkpt lat="48.64317" lon="6.21044">
        <ele>215</ele>
        <time>2013-07-21T14:16:36Z</time>
      </trkpt>
      <trkpt lat="48.6432" lon="6.21041">
        <ele>215</ele>
        <time>2013-07-21T14:16:38Z</time>
      </trkpt>
      <trkpt lat="48.64323" lon="6.21038">
        <ele>215</ele>
        <time>2013-07-21T14:16:40Z</time>
      </trkpt>
      <trkpt lat="48.64327" lon="6.21034">
        <ele>214</ele>
        <time>2013-07-21T14:16:42Z</time>
      </trkpt>
      <trkpt lat="48.64331" lon="6.21031">
        <ele>213</ele>
        <time>2013-07-21T14:16:43Z</time>
      </trkpt>
      <trkpt lat="48.64337" lon="6.2103">
        <ele>211</ele>
        <time>2013-07-21T14:16:46Z</time>
      </trkpt>
      <trkpt lat="48.64342" lon="6.2103">
        <ele>210</ele>
        <time>2013-07-21T14:16:48Z</time>
      </trkpt>
      <trkpt lat="48.64346" lon="6.21031">
        <ele>210</ele>
        <time>2013-07-21T14:16:50Z</time>
      </trkpt>
      <trkpt lat="48.64349" lon="6.21031">
        <ele>212</ele>
        <time>2013-07-21T14:16:52Z</time>
      </trkpt>
      <trkpt lat="48.64353" lon="6.21032">
        <ele>212</ele>
        <time>2013-07-21T14:16:54Z</time>
      </trkpt>
      <trkpt lat="48.64356" lon="6.21033">
        <ele>212</ele>
        <time>2013-07-21T14:16:55Z</time>
      </trkpt>
      <trkpt lat="48.64359" lon="6.21033">
        <ele>214</ele>
        <time>2013-07-21T14:16:58Z</time>
      </trkpt>
      <trkpt lat="48.64362" lon="6.21034">
        <ele>216</ele>
        <time>2013-07-21T14:17:00Z</time>
      </trkpt>
      <trkpt lat="48.64365" lon="6.21034">
        <ele>214</ele>
        <time>2013-07-21T14:17:01Z</time>
      </trkpt>
      <trkpt lat="48.64368" lon="6.21034">
        <ele>217</ele>
        <time>2013-07-21T14:17:03Z</time>
      </trkpt>
      <trkpt lat="48.64371" lon="6.21033">
        <ele>217</ele>
        <time>2013-07-21T14:17:06Z</time>
      </trkpt>
      <trkpt lat="48.64375" lon="6.21032">
        <ele>215</ele>
        <time>2013-07-21T14:17:08Z</time>
      </trkpt>
      <trkpt lat="48.64378" lon="6.2103">
        <ele>214</ele>
        <time>2013-07-21T14:17:10Z</time>
      </trkpt>
      <trkpt lat="48.64384" lon="6.21026">
        <ele>214</ele>
        <time>2013-07-21T14:17:14Z</time>
      </trkpt>
      <trkpt lat="48.64388" lon="6.21023">
        <ele>214</ele>
        <time>2013-07-21T14:17:16Z</time>
      </trkpt>
      <trkpt lat="48.64391" lon="6.21021">
        <ele>214</ele>
        <time>2013-07-21T14:17:18Z</time>
      </trkpt>
      <trkpt lat="48.64394" lon="6.21019">
        <ele>216</ele>
        <time>2013-07-21T14:17:20Z</time>
      </trkpt>
      <trkpt lat="48.64397" lon="6.21017">
        <ele>214</ele>
        <time>2013-07-21T14:17:22Z</time>
      </trkpt>
      <trkpt lat="48.644" lon="6.21015">
        <ele>216</ele>
        <time>2013-07-21T14:17:24Z</time>
      </trkpt>
      <trkpt lat="48.64402" lon="6.21014">
        <ele>219</ele>
        <time>2013-07-21T14:17:25Z</time>
      </trkpt>
      <trkpt lat="48.64405" lon="6.21013">
        <ele>222</ele>
        <time>2013-07-21T14:17:27Z</time>
      </trkpt>
      <trkpt lat="48.64407" lon="6.21012">
        <ele>221</ele>
        <time>2013-07-21T14:17:30Z</time>
      </trkpt>
      <trkpt lat="48.6441" lon="6.21011">
        <ele>222</ele>
        <time>2013-07-21T14:17:32Z</time>
      </trkpt>
      <trkpt lat="48.64413" lon="6.21011">
        <ele>223</ele>
        <time>2013-07-21T14:17:33Z</time>
      </trkpt>
      <trkpt lat="48.64416" lon="6.21009">
        <ele>223</ele>
        <time>2013-07-21T14:17:36Z</time>
      </trkpt>
      <trkpt lat="48.6442" lon="6.21008">
        <ele>223</ele>
        <time>2013-07-21T14:17:37Z</time>
      </trkpt>
      <trkpt lat="48.64423" lon="6.21006">
        <ele>222</ele>
        <time>2013-07-21T14:17:40Z</time>
      </trkpt>
      <trkpt lat="48.64426" lon="6.21005">
        <ele>223</ele>
        <time>2013-07-21T14:17:42Z</time>
      </trkpt>
      <trkpt lat="48.64428" lon="6.21003">
        <ele>225</ele>
        <time>2013-07-21T14:17:43Z</time>
      </trkpt>
      <trkpt lat="48.64431" lon="6.21001">
        <ele>223</ele>
        <time>2013-07-21T14:17:45Z</time>
      </trkpt>
      <trkpt lat="48.64435" lon="6.20999">
        <ele>222</ele>
        <time>2013-07-21T14:17:48Z</time>
      </trkpt>
      <trkpt lat="48.64438" lon="6.20998">
        <ele>222</ele>
        <time>2013-07-21T14:17:50Z</time>
      </trkpt>
      <trkpt lat="48.64441" lon="6.20996">
        <ele>224</ele>
        <time>2013-07-21T14:17:51Z</time>
      </trkpt>
      <trkpt lat="48.64445" lon="6.20994">
        <ele>220</ele>
        <time>2013-07-21T14:17:53Z</time>
      </trkpt>
      <trkpt lat="48.64449" lon="6.20994">
        <ele>221</ele>
        <time>2013-07-21T14:17:55Z</time>
      </trkpt>
      <trkpt lat="48.64454" lon="6.20992">
        <ele>220</ele>
        <time>2013-07-21T14:17:58Z</time>
      </trkpt>
      <trkpt lat="48.64457" lon="6.20992">
        <ele>223</ele>
        <time>2013-07-21T14:18:00Z</time>
      </trkpt>
      <trkpt lat="48.64461" lon="6.20991">
        <ele>224</ele>
        <time>2013-07-21T14:18:02Z</time>
      </trkpt>
      <trkpt lat="48.64464" lon="6.2099">
        <ele>222</ele>
        <time>2013-07-21T14:18:04Z</time>
      </trkpt>
      <trkpt lat="48.64468" lon="6.2099">
        <ele>224</ele>
        <time>2013-07-21T14:18:06Z</time>
      </trkpt>
      <trkpt lat="48.64471" lon="6.20989">
        <ele>223</ele>
        <time>2013-07-21T14:18:08Z</time>
      </trkpt>
      <trkpt lat="48.64474" lon="6.20988">
        <ele>225</ele>
        <time>2013-07-21T14:18:09Z</time>
      </trkpt>
      <trkpt lat="48.64476" lon="6.20986">
        <ele>226</ele>
        <time>2013-07-21T14:18:12Z</time>
      </trkpt>
      <trkpt lat="48.6448" lon="6.20985">
        <ele>222</ele>
        <time>2013-07-21T14:18:14Z</time>
      </trkpt>
      <trkpt lat="48.64483" lon="6.20984">
        <ele>222</ele>
        <time>2013-07-21T14:18:15Z</time>
      </trkpt>
      <trkpt lat="48.64485" lon="6.20983">
        <ele>224</ele>
        <time>2013-07-21T14:18:18Z</time>
      </trkpt>
      <trkpt lat="48.64488" lon="6.20981">
        <ele>226</ele>
        <time>2013-07-21T14:18:20Z</time>
      </trkpt>
      <trkpt lat="48.64492" lon="6.20978">
        <ele>223</ele>
        <time>2013-07-21T14:18:21Z</time>
      </trkpt>
      <trkpt lat="48.64494" lon="6.20975">
        <ele>225</ele>
        <time>2013-07-21T14:18:24Z</time>
      </trkpt>
      <trkpt lat="48.64497" lon="6.20973">
        <ele>229</ele>
        <time>2013-07-21T14:18:25Z</time>
      </trkpt>
      <trkpt lat="48.64501" lon="6.20971">
        <ele>228</ele>
        <time>2013-07-21T14:18:28Z</time>
      </trkpt>
      <trkpt lat="48.64502" lon="6.20969">
        <ele>227</ele>
        <time>2013-07-21T14:18:28Z</time>
      </trkpt>
      <trkpt lat="48.64503" lon="6.20968">
        <ele>225</ele>
        <time>2013-07-21T14:18:29Z</time>
      </trkpt>
      <trkpt lat="48.64507" lon="6.20965">
        <ele>226</ele>
        <time>2013-07-21T14:18:31Z</time>
      </trkpt>
      <trkpt lat="48.64509" lon="6.20962">
        <ele>226</ele>
        <time>2013-07-21T14:18:33Z</time>
      </trkpt>
      <trkpt lat="48.64512" lon="6.20958">
        <ele>225</ele>
        <time>2013-07-21T14:18:36Z</time>
      </trkpt>
      <trkpt lat="48.64515" lon="6.20956">
        <ele>223</ele>
        <time>2013-07-21T14:18:38Z</time>
      </trkpt>
      <trkpt lat="48.64517" lon="6.20954">
        <ele>224</ele>
        <time>2013-07-21T14:18:40Z</time>
      </trkpt>
      <trkpt lat="48.6452" lon="6.20952">
        <ele>225</ele>
        <time>2013-07-21T14:18:42Z</time>
      </trkpt>
      <trkpt lat="48.64523" lon="6.20951">
        <ele>223</ele>
        <time>2013-07-21T14:18:44Z</time>
      </trkpt>
      <trkpt lat="48.64526" lon="6.2095">
        <ele>226</ele>
        <time>2013-07-21T14:18:46Z</time>
      </trkpt>
      <trkpt lat="48.6453" lon="6.2095">
        <ele>227</ele>
        <time>2013-07-21T14:18:47Z</time>
      </trkpt>
      <trkpt lat="48.64533" lon="6.2095">
        <ele>228</ele>
        <time>2013-07-21T14:18:49Z</time>
      </trkpt>
      <trkpt lat="48.64536" lon="6.2095">
        <ele>231</ele>
        <time>2013-07-21T14:18:52Z</time>
      </trkpt>
      <trkpt lat="48.64539" lon="6.2095">
        <ele>233</ele>
        <time>2013-07-21T14:18:53Z</time>
      </trkpt>
      <trkpt lat="48.64541" lon="6.2095">
        <ele>233</ele>
        <time>2013-07-21T14:18:54Z</time>
      </trkpt>
      <trkpt lat="48.64544" lon="6.20948">
        <ele>235</ele>
        <time>2013-07-21T14:18:57Z</time>
      </trkpt>
      <trkpt lat="48.64548" lon="6.20947">
        <ele>235</ele>
        <time>2013-07-21T14:18:58Z</time>
      </trkpt>
      <trkpt lat="48.64551" lon="6.20945">
        <ele>235</ele>
        <time>2013-07-21T14:19:00Z</time>
      </trkpt>
      <trkpt lat="48.64555" lon="6.20944">
        <ele>236</ele>
        <time>2013-07-21T14:19:02Z</time>
      </trkpt>
      <trkpt lat="48.64558" lon="6.20942">
        <ele>232</ele>
        <time>2013-07-21T14:19:04Z</time>
      </trkpt>
      <trkpt lat="48.64562" lon="6.2094">
        <ele>235</ele>
        <time>2013-07-21T14:19:07Z</time>
      </trkpt>
      <trkpt lat="48.64565" lon="6.20939">
        <ele>236</ele>
        <time>2013-07-21T14:19:08Z</time>
      </trkpt>
      <trkpt lat="48.64568" lon="6.20938">
        <ele>239</ele>
        <time>2013-07-21T14:19:10Z</time>
      </trkpt>
      <trkpt lat="48.64572" lon="6.20936">
        <ele>238</ele>
        <time>2013-07-21T14:19:13Z</time>
      </trkpt>
      <trkpt lat="48.64575" lon="6.20934">
        <ele>237</ele>
        <time>2013-07-21T14:19:15Z</time>
      </trkpt>
      <trkpt lat="48.64578" lon="6.20933">
        <ele>237</ele>
        <time>2013-07-21T14:19:16Z</time>
      </trkpt>
      <trkpt lat="48.64581" lon="6.20931">
        <ele>237</ele>
        <time>2013-07-21T14:19:18Z</time>
      </trkpt>
      <trkpt lat="48.64584" lon="6.20929">
        <ele>236</ele>
        <time>2013-07-21T14:19:21Z</time>
      </trkpt>
      <trkpt lat="48.64587" lon="6.20927">
        <ele>234</ele>
        <time>2013-07-21T14:19:23Z</time>
      </trkpt>
      <trkpt lat="48.64591" lon="6.20925">
        <ele>233</ele>
        <time>2013-07-21T14:19:24Z</time>
      </trkpt>
      <trkpt lat="48.64595" lon="6.20924">
        <ele>232</ele>
        <time>2013-07-21T14:19:27Z</time>
      </trkpt>
      <trkpt lat="48.64599" lon="6.20922">
        <ele>232</ele>
        <time>2013-07-21T14:19:29Z</time>
      </trkpt>
      <trkpt lat="48.64602" lon="6.20921">
        <ele>229</ele>
        <time>2013-07-21T14:19:31Z</time>
      </trkpt>
      <trkpt lat="48.64605" lon="6.2092">
        <ele>230</ele>
        <time>2013-07-21T14:19:32Z</time>
      </trkpt>
      <trkpt lat="48.6461" lon="6.20918">
        <ele>229</ele>
        <time>2013-07-21T14:19:34Z</time>
      </trkpt>
      <trkpt lat="48.64615" lon="6.20915">
        <ele>230</ele>
        <time>2013-07-21T14:19:37Z</time>
      </trkpt>
      <trkpt lat="48.64623" lon="6.20914">
        <ele>230</ele>
        <time>2013-07-21T14:19:38Z</time>
      </trkpt>
      <trkpt lat="48.64631" lon="6.20912">
        <ele>229</ele>
        <time>2013-07-21T14:19:40Z</time>
      </trkpt>
      <trkpt lat="48.64639" lon="6.2091">
        <ele>230</ele>
        <time>2013-07-21T14:19:42Z</time>
      </trkpt>
      <trkpt lat="48.64644" lon="6.20909">
        <ele>232</ele>
        <time>2013-07-21T14:19:43Z</time>
      </trkpt>
      <trkpt lat="48.64647" lon="6.20909">
        <ele>233</ele>
        <time>2013-07-21T14:19:44Z</time>
      </trkpt>
      <trkpt lat="48.64655" lon="6.20907">
        <ele>233</ele>
        <time>2013-07-21T14:19:46Z</time>
      </trkpt>
      <trkpt lat="48.64665" lon="6.20905">
        <ele>231</ele>
        <time>2013-07-21T14:19:48Z</time>
      </trkpt>
      <trkpt lat="48.64673" lon="6.20902">
        <ele>230</ele>
        <time>2013-07-21T14:19:51Z</time>
      </trkpt>
      <trkpt lat="48.64682" lon="6.209">
        <ele>229</ele>
        <time>2013-07-21T14:19:52Z</time>
      </trkpt>
      <trkpt lat="48.6469" lon="6.20897">
        <ele>230</ele>
        <time>2013-07-21T14:19:54Z</time>
      </trkpt>
      <trkpt lat="48.64697" lon="6.20895">
        <ele>229</ele>
        <time>2013-07-21T14:19:56Z</time>
      </trkpt>
      <trkpt lat="48.64706" lon="6.20891">
        <ele>232</ele>
        <time>2013-07-21T14:19:58Z</time>
      </trkpt>
      <trkpt lat="48.64716" lon="6.20888">
        <ele>233</ele>
        <time>2013-07-21T14:20:00Z</time>
      </trkpt>
      <trkpt lat="48.64725" lon="6.20886">
        <ele>234</ele>
        <time>2013-07-21T14:20:02Z</time>
      </trkpt>
      <trkpt lat="48.64733" lon="6.20885">
        <ele>237</ele>
        <time>2013-07-21T14:20:04Z</time>
      </trkpt>
      <trkpt lat="48.64741" lon="6.20882">
        <ele>236</ele>
        <time>2013-07-21T14:20:06Z</time>
      </trkpt>
      <trkpt lat="48.6475" lon="6.20879">
        <ele>239</ele>
        <time>2013-07-21T14:20:08Z</time>
      </trkpt>
      <trkpt lat="48.64753" lon="6.20878">
        <ele>238</ele>
        <time>2013-07-21T14:20:10Z</time>
      </trkpt>
      <trkpt lat="48.64766" lon="6.20873">
        <ele>243</ele>
        <time>2013-07-21T14:20:13Z</time>
      </trkpt>
      <trkpt lat="48.64774" lon="6.20871">
        <ele>243</ele>
        <time>2013-07-21T14:20:15Z</time>
      </trkpt>
      <trkpt lat="48.64782" lon="6.20868">
        <ele>240</ele>
        <time>2013-07-21T14:20:17Z</time>
      </trkpt>
      <trkpt lat="48.64789" lon="6.20867">
        <ele>241</ele>
        <time>2013-07-21T14:20:19Z</time>
      </trkpt>
      <trkpt lat="48.64795" lon="6.20866">
        <ele>240</ele>
        <time>2013-07-21T14:20:21Z</time>
      </trkpt>
      <trkpt lat="48.64802" lon="6.20865">
        <ele>237</ele>
        <time>2013-07-21T14:20:23Z</time>
      </trkpt>
      <trkpt lat="48.6481" lon="6.20863">
        <ele>233</ele>
        <time>2013-07-21T14:20:25Z</time>
      </trkpt>
      <trkpt lat="48.64818" lon="6.20861">
        <ele>228</ele>
        <time>2013-07-21T14:20:27Z</time>
      </trkpt>
      <trkpt lat="48.64824" lon="6.2086">
        <ele>228</ele>
        <time>2013-07-21T14:20:29Z</time>
      </trkpt>
      <trkpt lat="48.6483" lon="6.20858">
        <ele>229</ele>
        <time>2013-07-21T14:20:31Z</time>
      </trkpt>
      <trkpt lat="48.64837" lon="6.20856">
        <ele>230</ele>
        <time>2013-07-21T14:20:32Z</time>
      </trkpt>
      <trkpt lat="48.64844" lon="6.20854">
        <ele>229</ele>
        <time>2013-07-21T14:20:35Z</time>
      </trkpt>
      <trkpt lat="48.64848" lon="6.20853">
        <ele>229</ele>
        <time>2013-07-21T14:20:36Z</time>
      </trkpt>
      <trkpt lat="48.64851" lon="6.20852">
        <ele>230</ele>
        <time>2013-07-21T14:20:37Z</time>
      </trkpt>
      <trkpt lat="48.64858" lon="6.2085">
        <ele>233</ele>
        <time>2013-07-21T14:20:39Z</time>
      </trkpt>
      <trkpt lat="48.64866" lon="6.20848">
        <ele>236</ele>
        <time>2013-07-21T14:20:41Z</time>
      </trkpt>
      <trkpt lat="48.64874" lon="6.20847">
        <ele>236</ele>
        <time>2013-07-21T14:20:43Z</time>
      </trkpt>
      <trkpt lat="48.64882" lon="6.20844">
        <ele>235</ele>
        <time>2013-07-21T14:20:45Z</time>
      </trkpt>
      <trkpt lat="48.6489" lon="6.20842">
        <ele>236</ele>
        <time>2013-07-21T14:20:47Z</time>
      </trkpt>
      <trkpt lat="48.64899" lon="6.2084">
        <ele>236</ele>
        <time>2013-07-21T14:20:49Z</time>
      </trkpt>
      <trkpt lat="48.64907" lon="6.20839">
        <ele>238</ele>
        <time>2013-07-21T14:20:51Z</time>
      </trkpt>
      <trkpt lat="48.64916" lon="6.20837">
        <ele>240</ele>
        <time>2013-07-21T14:20:53Z</time>
      </trkpt>
      <trkpt lat="48.64924" lon="6.20835">
        <ele>240</ele>
        <time>2013-07-21T14:20:55Z</time>
      </trkpt>
      <trkpt lat="48.64932" lon="6.20833">
        <ele>240</ele>
        <time>2013-07-21T14:20:57Z</time>
      </trkpt>
      <trkpt lat="48.6494" lon="6.20831">
        <ele>240</ele>
        <time>2013-07-21T14:20:59Z</time>
      </trkpt>
      <trkpt lat="48.64947" lon="6.20829">
        <ele>241</ele>
        <time>2013-07-21T14:21:01Z</time>
      </trkpt>
      <trkpt lat="48.6495" lon="6.20829">
        <ele>243</ele>
        <time>2013-07-21T14:21:02Z</time>
      </trkpt>
      <trkpt lat="48.64954" lon="6.20828">
        <ele>244</ele>
        <time>2013-07-21T14:21:03Z</time>
      </trkpt>
      <trkpt lat="48.64961" lon="6.20827">
        <ele>246</ele>
        <time>2013-07-21T14:21:05Z</time>
      </trkpt>
      <trkpt lat="48.64968" lon="6.20825">
        <ele>248</ele>
        <time>2013-07-21T14:21:07Z</time>
      </trkpt>
      <trkpt lat="48.64975" lon="6.20823">
        <ele>250</ele>
        <time>2013-07-21T14:21:08Z</time>
      </trkpt>
      <trkpt lat="48.64982" lon="6.20824">
        <ele>240</ele>
        <time>2013-07-21T14:21:12Z</time>
      </trkpt>
      <trkpt lat="48.64983" lon="6.20822">
        <ele>232</ele>
        <time>2013-07-21T14:21:12Z</time>
      </trkpt>
      <trkpt lat="48.64988" lon="6.20818">
        <ele>236</ele>
        <time>2013-07-21T14:21:14Z</time>
      </trkpt>
      <trkpt lat="48.64996" lon="6.20812">
        <ele>231</ele>
        <time>2013-07-21T14:21:16Z</time>
      </trkpt>
      <trkpt lat="48.65004" lon="6.20811">
        <ele>228</ele>
        <time>2013-07-21T14:21:18Z</time>
      </trkpt>
      <trkpt lat="48.65008" lon="6.20812">
        <ele>225</ele>
        <time>2013-07-21T14:21:19Z</time>
      </trkpt>
      <trkpt lat="48.65017" lon="6.20809">
        <ele>226</ele>
        <time>2013-07-21T14:21:20Z</time>
      </trkpt>
      <trkpt lat="48.65029" lon="6.20803">
        <ele>229</ele>
        <time>2013-07-21T14:21:23Z</time>
      </trkpt>
      <trkpt lat="48.65036" lon="6.20799">
        <ele>231</ele>
        <time>2013-07-21T14:21:25Z</time>
      </trkpt>
      <trkpt lat="48.65044" lon="6.20796">
        <ele>238</ele>
        <time>2013-07-21T14:21:27Z</time>
      </trkpt>
      <trkpt lat="48.65052" lon="6.20793">
        <ele>243</ele>
        <time>2013-07-21T14:21:28Z</time>
      </trkpt>
      <trkpt lat="48.65059" lon="6.20792">
        <ele>244</ele>
        <time>2013-07-21T14:21:30Z</time>
      </trkpt>
      <trkpt lat="48.65066" lon="6.20791">
        <ele>244</ele>
        <time>2013-07-21T14:21:33Z</time>
      </trkpt>
      <trkpt lat="48.65073" lon="6.2079">
        <ele>245</ele>
        <time>2013-07-21T14:21:35Z</time>
      </trkpt>
      <trkpt lat="48.65081" lon="6.2079">
        <ele>246</ele>
        <time>2013-07-21T14:21:37Z</time>
      </trkpt>
      <trkpt lat="48.65088" lon="6.20788">
        <ele>245</ele>
        <time>2013-07-21T14:21:38Z</time>
      </trkpt>
      <trkpt lat="48.65094" lon="6.20787">
        <ele>244</ele>
        <time>2013-07-21T14:21:41Z</time>
      </trkpt>
      <trkpt lat="48.651" lon="6.20785">
        <ele>244</ele>
        <time>2013-07-21T14:21:43Z</time>
      </trkpt>
      <trkpt lat="48.65107" lon="6.20783">
        <ele>244</ele>
        <time>2013-07-21T14:21:45Z</time>
      </trkpt>
      <trkpt lat="48.65114" lon="6.20781">
        <ele>243</ele>
        <time>2013-07-21T14:21:47Z</time>
      </trkpt>
      <trkpt lat="48.65121" lon="6.2078">
        <ele>245</ele>
        <time>2013-07-21T14:21:49Z</time>
      </trkpt>
      <trkpt lat="48.65124" lon="6.2078">
        <ele>245</ele>
        <time>2013-07-21T14:21:50Z</time>
      </trkpt>
      <trkpt lat="48.65128" lon="6.20779">
        <ele>246</ele>
        <time>2013-07-21T14:21:51Z</time>
      </trkpt>
      <trkpt lat="48.65135" lon="6.20778">
        <ele>247</ele>
        <time>2013-07-21T14:21:53Z</time>
      </trkpt>
      <trkpt lat="48.65142" lon="6.20777">
        <ele>247</ele>
        <time>2013-07-21T14:21:54Z</time>
      </trkpt>
      <trkpt lat="48.65148" lon="6.20776">
        <ele>247</ele>
        <time>2013-07-21T14:21:56Z</time>
      </trkpt>
      <trkpt lat="48.65155" lon="6.20773">
        <ele>247</ele>
        <time>2013-07-21T14:21:59Z</time>
      </trkpt>
      <trkpt lat="48.65163" lon="6.20771">
        <ele>247</ele>
        <time>2013-07-21T14:22:01Z</time>
      </trkpt>
      <trkpt lat="48.6517" lon="6.20769">
        <ele>246</ele>
        <time>2013-07-21T14:22:02Z</time>
      </trkpt>
      <trkpt lat="48.65177" lon="6.20767">
        <ele>246</ele>
        <time>2013-07-21T14:22:05Z</time>
      </trkpt>
      <trkpt lat="48.65185" lon="6.20766">
        <ele>246</ele>
        <time>2013-07-21T14:22:07Z</time>
      </trkpt>
      <trkpt lat="48.65192" lon="6.20763">
        <ele>250</ele>
        <time>2013-07-21T14:22:08Z</time>
      </trkpt>
      <trkpt lat="48.652" lon="6.20762">
        <ele>252</ele>
        <time>2013-07-21T14:22:10Z</time>
      </trkpt>
      <trkpt lat="48.65206" lon="6.2076">
        <ele>253</ele>
        <time>2013-07-21T14:22:13Z</time>
      </trkpt>
      <trkpt lat="48.65212" lon="6.20759">
        <ele>252</ele>
        <time>2013-07-21T14:22:15Z</time>
      </trkpt>
      <trkpt lat="48.65217" lon="6.20758">
        <ele>251</ele>
        <time>2013-07-21T14:22:17Z</time>
      </trkpt>
      <trkpt lat="48.6522" lon="6.20757">
        <ele>252</ele>
        <time>2013-07-21T14:22:17Z</time>
      </trkpt>
      <trkpt lat="48.65223" lon="6.20756">
        <ele>251</ele>
        <time>2013-07-21T14:22:19Z</time>
      </trkpt>
      <trkpt lat="48.65228" lon="6.20755">
        <ele>253</ele>
        <time>2013-07-21T14:22:21Z</time>
      </trkpt>
      <trkpt lat="48.65233" lon="6.20754">
        <ele>253</ele>
        <time>2013-07-21T14:22:22Z</time>
      </trkpt>
      <trkpt lat="48.65239" lon="6.20751">
        <ele>253</ele>
        <time>2013-07-21T14:22:25Z</time>
      </trkpt>
      <trkpt lat="48.65247" lon="6.20748">
        <ele>252</ele>
        <time>2013-07-21T14:22:27Z</time>
      </trkpt>
      <trkpt lat="48.65254" lon="6.20746">
        <ele>249</ele>
        <time>2013-07-21T14:22:29Z</time>
      </trkpt>
      <trkpt lat="48.65265" lon="6.20743">
        <ele>243</ele>
        <time>2013-07-21T14:22:30Z</time>
      </trkpt>
      <trkpt lat="48.65273" lon="6.20742">
        <ele>240</ele>
        <time>2013-07-21T14:22:32Z</time>
      </trkpt>
      <trkpt lat="48.65282" lon="6.20739">
        <ele>236</ele>
        <time>2013-07-21T14:22:34Z</time>
      </trkpt>
      <trkpt lat="48.65291" lon="6.20734">
        <ele>233</ele>
        <time>2013-07-21T14:22:37Z</time>
      </trkpt>
      <trkpt lat="48.65299" lon="6.2073">
        <ele>231</ele>
        <time>2013-07-21T14:22:38Z</time>
      </trkpt>
      <trkpt lat="48.65302" lon="6.20723">
        <ele>227</ele>
        <time>2013-07-21T14:22:40Z</time>
      </trkpt>
      <trkpt lat="48.65304" lon="6.20716">
        <ele>227</ele>
        <time>2013-07-21T14:22:42Z</time>
      </trkpt>
      <trkpt lat="48.65305" lon="6.2071">
        <ele>228</ele>
        <time>2013-07-21T14:22:45Z</time>
      </trkpt>
      <trkpt lat="48.65305" lon="6.20704">
        <ele>228</ele>
        <time>2013-07-21T14:22:47Z</time>
      </trkpt>
      <trkpt lat="48.65305" lon="6.207">
        <ele>227</ele>
        <time>2013-07-21T14:22:49Z</time>
      </trkpt>
      <trkpt lat="48.65305" lon="6.20695">
        <ele>225</ele>
        <time>2013-07-21T14:22:51Z</time>
      </trkpt>
      <trkpt lat="48.65304" lon="6.2069">
        <ele>223</ele>
        <time>2013-07-21T14:22:53Z</time>
      </trkpt>
      <trkpt lat="48.65304" lon="6.20679">
        <ele>223</ele>
        <time>2013-07-21T14:22:55Z</time>
      </trkpt>
      <trkpt lat="48.65303" lon="6.20663">
        <ele>223</ele>
        <time>2013-07-21T14:22:57Z</time>
      </trkpt>
      <trkpt lat="48.65301" lon="6.20644">
        <ele>222</ele>
        <time>2013-07-21T14:22:59Z</time>
      </trkpt>
      <trkpt lat="48.65299" lon="6.20625">
        <ele>221</ele>
        <time>2013-07-21T14:23:01Z</time>
      </trkpt>
      <trkpt lat="48.65297" lon="6.20606">
        <ele>221</ele>
        <time>2013-07-21T14:23:03Z</time>
      </trkpt>
      <trkpt lat="48.65294" lon="6.20586">
        <ele>221</ele>
        <time>2013-07-21T14:23:05Z</time>
      </trkpt>
      <trkpt lat="48.65291" lon="6.20563">
        <ele>221</ele>
        <time>2013-07-21T14:23:07Z</time>
      </trkpt>
      <trkpt lat="48.65288" lon="6.20537">
        <ele>220</ele>
        <time>2013-07-21T14:23:09Z</time>
      </trkpt>
      <trkpt lat="48.65284" lon="6.2051">
        <ele>220</ele>
        <time>2013-07-21T14:23:11Z</time>
      </trkpt>
      <trkpt lat="48.65281" lon="6.20484">
        <ele>222</ele>
        <time>2013-07-21T14:23:13Z</time>
      </trkpt>
      <trkpt lat="48.65279" lon="6.20458">
        <ele>220</ele>
        <time>2013-07-21T14:23:15Z</time>
      </trkpt>
      <trkpt lat="48.65277" lon="6.20435">
        <ele>217</ele>
        <time>2013-07-21T14:23:17Z</time>
      </trkpt>
      <trkpt lat="48.65278" lon="6.20414">
        <ele>216</ele>
        <time>2013-07-21T14:23:19Z</time>
      </trkpt>
      <trkpt lat="48.6528" lon="6.20394">
        <ele>217</ele>
        <time>2013-07-21T14:23:21Z</time>
      </trkpt>
      <trkpt lat="48.65285" lon="6.20376">
        <ele>212</ele>
        <time>2013-07-21T14:23:23Z</time>
      </trkpt>
      <trkpt lat="48.6529" lon="6.2036">
        <ele>213</ele>
        <time>2013-07-21T14:23:25Z</time>
      </trkpt>
      <trkpt lat="48.65295" lon="6.20349">
        <ele>215</ele>
        <time>2013-07-21T14:23:27Z</time>
      </trkpt>
      <trkpt lat="48.65298" lon="6.20345">
        <ele>213</ele>
        <time>2013-07-21T14:23:28Z</time>
      </trkpt>
      <trkpt lat="48.65301" lon="6.2034">
        <ele>216</ele>
        <time>2013-07-21T14:23:29Z</time>
      </trkpt>
      <trkpt lat="48.65308" lon="6.20333">
        <ele>214</ele>
        <time>2013-07-21T14:23:31Z</time>
      </trkpt>
      <trkpt lat="48.65314" lon="6.20327">
        <ele>214</ele>
        <time>2013-07-21T14:23:33Z</time>
      </trkpt>
      <trkpt lat="48.65321" lon="6.20321">
        <ele>218</ele>
        <time>2013-07-21T14:23:35Z</time>
      </trkpt>
      <trkpt lat="48.65328" lon="6.20313">
        <ele>218</ele>
        <time>2013-07-21T14:23:37Z</time>
      </trkpt>
      <trkpt lat="48.65334" lon="6.20307">
        <ele>219</ele>
        <time>2013-07-21T14:23:38Z</time>
      </trkpt>
      <trkpt lat="48.65341" lon="6.20299">
        <ele>221</ele>
        <time>2013-07-21T14:23:40Z</time>
      </trkpt>
      <trkpt lat="48.65348" lon="6.20293">
        <ele>224</ele>
        <time>2013-07-21T14:23:42Z</time>
      </trkpt>
      <trkpt lat="48.65353" lon="6.20287">
        <ele>224</ele>
        <time>2013-07-21T14:23:45Z</time>
      </trkpt>
      <trkpt lat="48.65358" lon="6.2028">
        <ele>227</ele>
        <time>2013-07-21T14:23:47Z</time>
      </trkpt>
      <trkpt lat="48.65364" lon="6.20274">
        <ele>229</ele>
        <time>2013-07-21T14:23:49Z</time>
      </trkpt>
      <trkpt lat="48.6537" lon="6.20268">
        <ele>230</ele>
        <time>2013-07-21T14:23:51Z</time>
      </trkpt>
      <trkpt lat="48.65376" lon="6.20262">
        <ele>231</ele>
        <time>2013-07-21T14:23:52Z</time>
      </trkpt>
      <trkpt lat="48.65384" lon="6.20256">
        <ele>235</ele>
        <time>2013-07-21T14:23:54Z</time>
      </trkpt>
      <trkpt lat="48.65392" lon="6.20249">
        <ele>234</ele>
        <time>2013-07-21T14:23:56Z</time>
      </trkpt>
      <trkpt lat="48.654" lon="6.20242">
        <ele>236</ele>
        <time>2013-07-21T14:23:58Z</time>
      </trkpt>
      <trkpt lat="48.65407" lon="6.20236">
        <ele>238</ele>
        <time>2013-07-21T14:24:00Z</time>
      </trkpt>
      <trkpt lat="48.65414" lon="6.20231">
        <ele>239</ele>
        <time>2013-07-21T14:24:02Z</time>
      </trkpt>
      <trkpt lat="48.6542" lon="6.20226">
        <ele>240</ele>
        <time>2013-07-21T14:24:05Z</time>
      </trkpt>
      <trkpt lat="48.65425" lon="6.20222">
        <ele>243</ele>
        <time>2013-07-21T14:24:07Z</time>
      </trkpt>
      <trkpt lat="48.65431" lon="6.20217">
        <ele>244</ele>
        <time>2013-07-21T14:24:08Z</time>
      </trkpt>
      <trkpt lat="48.65435" lon="6.2021">
        <ele>235</ele>
        <time>2013-07-21T14:24:10Z</time>
      </trkpt>
      <trkpt lat="48.6544" lon="6.20207">
        <ele>237</ele>
        <time>2013-07-21T14:24:13Z</time>
      </trkpt>
      <trkpt lat="48.65443" lon="6.20204">
        <ele>236</ele>
        <time>2013-07-21T14:24:14Z</time>
      </trkpt>
      <trkpt lat="48.65446" lon="6.20202">
        <ele>236</ele>
        <time>2013-07-21T14:24:15Z</time>
      </trkpt>
      <trkpt lat="48.65448" lon="6.202">
        <ele>234</ele>
        <time>2013-07-21T14:24:16Z</time>
      </trkpt>
      <trkpt lat="48.65452" lon="6.20196">
        <ele>234</ele>
        <time>2013-07-21T14:24:19Z</time>
      </trkpt>
      <trkpt lat="48.65457" lon="6.20191">
        <ele>242</ele>
        <time>2013-07-21T14:24:21Z</time>
      </trkpt>
      <trkpt lat="48.65462" lon="6.20186">
        <ele>243</ele>
        <time>2013-07-21T14:24:23Z</time>
      </trkpt>
      <trkpt lat="48.65466" lon="6.20183">
        <ele>240</ele>
        <time>2013-07-21T14:24:25Z</time>
      </trkpt>
      <trkpt lat="48.6547" lon="6.20179">
        <ele>239</ele>
        <time>2013-07-21T14:24:26Z</time>
      </trkpt>
      <trkpt lat="48.65474" lon="6.20175">
        <ele>246</ele>
        <time>2013-07-21T14:24:28Z</time>
      </trkpt>
      <trkpt lat="48.6548" lon="6.20169">
        <ele>248</ele>
        <time>2013-07-21T14:24:31Z</time>
      </trkpt>
      <trkpt lat="48.65487" lon="6.20163">
        <ele>245</ele>
        <time>2013-07-21T14:24:32Z</time>
      </trkpt>
      <trkpt lat="48.65489" lon="6.2016">
        <ele>239</ele>
        <time>2013-07-21T14:24:34Z</time>
      </trkpt>
      <trkpt lat="48.65492" lon="6.20157">
        <ele>240</ele>
        <time>2013-07-21T14:24:34Z</time>
      </trkpt>
      <trkpt lat="48.65497" lon="6.20151">
        <ele>242</ele>
        <time>2013-07-21T14:24:36Z</time>
      </trkpt>
      <trkpt lat="48.65502" lon="6.20146">
        <ele>239</ele>
        <time>2013-07-21T14:24:38Z</time>
      </trkpt>
      <trkpt lat="48.65506" lon="6.2014">
        <ele>239</ele>
        <time>2013-07-21T14:24:41Z</time>
      </trkpt>
      <trkpt lat="48.65509" lon="6.20136">
        <ele>240</ele>
        <time>2013-07-21T14:24:42Z</time>
      </trkpt>
      <trkpt lat="48.65512" lon="6.20131">
        <ele>240</ele>
        <time>2013-07-21T14:24:44Z</time>
      </trkpt>
      <trkpt lat="48.65515" lon="6.20126">
        <ele>238</ele>
        <time>2013-07-21T14:24:46Z</time>
      </trkpt>
      <trkpt lat="48.65519" lon="6.2012">
        <ele>238</ele>
        <time>2013-07-21T14:24:48Z</time>
      </trkpt>
      <trkpt lat="48.65522" lon="6.20112">
        <ele>234</ele>
        <time>2013-07-21T14:24:50Z</time>
      </trkpt>
      <trkpt lat="48.65526" lon="6.20105">
        <ele>232</ele>
        <time>2013-07-21T14:24:53Z</time>
      </trkpt>
      <trkpt lat="48.6553" lon="6.20096">
        <ele>237</ele>
        <time>2013-07-21T14:24:54Z</time>
      </trkpt>
      <trkpt lat="48.65535" lon="6.20087">
        <ele>236</ele>
        <time>2013-07-21T14:24:56Z</time>
      </trkpt>
      <trkpt lat="48.6554" lon="6.20078">
        <ele>236</ele>
        <time>2013-07-21T14:24:58Z</time>
      </trkpt>
      <trkpt lat="48.65546" lon="6.20068">
        <ele>242</ele>
        <time>2013-07-21T14:25:00Z</time>
      </trkpt>
      <trkpt lat="48.65553" lon="6.20057">
        <ele>242</ele>
        <time>2013-07-21T14:25:03Z</time>
      </trkpt>
      <trkpt lat="48.65558" lon="6.20048">
        <ele>240</ele>
        <time>2013-07-21T14:25:05Z</time>
      </trkpt>
      <trkpt lat="48.65569" lon="6.20028">
        <ele>239</ele>
        <time>2013-07-21T14:25:09Z</time>
      </trkpt>
      <trkpt lat="48.65573" lon="6.20016">
        <ele>240</ele>
        <time>2013-07-21T14:25:11Z</time>
      </trkpt>
      <trkpt lat="48.65579" lon="6.20007">
        <ele>236</ele>
        <time>2013-07-21T14:25:12Z</time>
      </trkpt>
      <trkpt lat="48.65585" lon="6.19995">
        <ele>236</ele>
        <time>2013-07-21T14:25:15Z</time>
      </trkpt>
      <trkpt lat="48.65599" lon="6.19971">
        <ele>238</ele>
        <time>2013-07-21T14:25:18Z</time>
      </trkpt>
      <trkpt lat="48.65607" lon="6.19959">
        <ele>240</ele>
        <time>2013-07-21T14:25:20Z</time>
      </trkpt>
      <trkpt lat="48.65617" lon="6.19946">
        <ele>245</ele>
        <time>2013-07-21T14:25:22Z</time>
      </trkpt>
      <trkpt lat="48.65627" lon="6.19931">
        <ele>247</ele>
        <time>2013-07-21T14:25:24Z</time>
      </trkpt>
      <trkpt lat="48.65636" lon="6.19927">
        <ele>233</ele>
        <time>2013-07-21T14:25:26Z</time>
      </trkpt>
      <trkpt lat="48.65643" lon="6.19916">
        <ele>225</ele>
        <time>2013-07-21T14:25:28Z</time>
      </trkpt>
      <trkpt lat="48.65655" lon="6.19908">
        <ele>222</ele>
        <time>2013-07-21T14:25:30Z</time>
      </trkpt>
      <trkpt lat="48.65667" lon="6.19902">
        <ele>219</ele>
        <time>2013-07-21T14:25:32Z</time>
      </trkpt>
      <trkpt lat="48.65685" lon="6.19885">
        <ele>220</ele>
        <time>2013-07-21T14:25:35Z</time>
      </trkpt>
      <trkpt lat="48.65695" lon="6.19884">
        <ele>225</ele>
        <time>2013-07-21T14:25:37Z</time>
      </trkpt>
      <trkpt lat="48.65704" lon="6.19886">
        <ele>227</ele>
        <time>2013-07-21T14:25:39Z</time>
      </trkpt>
      <trkpt lat="48.65722" lon="6.19875">
        <ele>231</ele>
        <time>2013-07-21T14:25:43Z</time>
      </trkpt>
      <trkpt lat="48.6573" lon="6.1988">
        <ele>232</ele>
        <time>2013-07-21T14:25:44Z</time>
      </trkpt>
      <trkpt lat="48.65736" lon="6.19884">
        <ele>234</ele>
        <time>2013-07-21T14:25:46Z</time>
      </trkpt>
      <trkpt lat="48.65743" lon="6.19882">
        <ele>238</ele>
        <time>2013-07-21T14:25:48Z</time>
      </trkpt>
      <trkpt lat="48.65748" lon="6.19877">
        <ele>231</ele>
        <time>2013-07-21T14:25:50Z</time>
      </trkpt>
      <trkpt lat="48.65766" lon="6.19875">
        <ele>232</ele>
        <time>2013-07-21T14:25:56Z</time>
      </trkpt>
      <trkpt lat="48.65775" lon="6.19876">
        <ele>230</ele>
        <time>2013-07-21T14:25:58Z</time>
      </trkpt>
      <trkpt lat="48.65783" lon="6.19875">
        <ele>230</ele>
        <time>2013-07-21T14:26:00Z</time>
      </trkpt>
      <trkpt lat="48.65789" lon="6.19874">
        <ele>229</ele>
        <time>2013-07-21T14:26:02Z</time>
      </trkpt>
      <trkpt lat="48.65794" lon="6.19874">
        <ele>232</ele>
        <time>2013-07-21T14:26:04Z</time>
      </trkpt>
      <trkpt lat="48.65799" lon="6.19874">
        <ele>235</ele>
        <time>2013-07-21T14:26:07Z</time>
      </trkpt>
      <trkpt lat="48.65803" lon="6.19876">
        <ele>235</ele>
        <time>2013-07-21T14:26:09Z</time>
      </trkpt>
      <trkpt lat="48.65807" lon="6.19875">
        <ele>234</ele>
        <time>2013-07-21T14:26:11Z</time>
      </trkpt>
      <trkpt lat="48.65817" lon="6.19878">
        <ele>231</ele>
        <time>2013-07-21T14:26:15Z</time>
      </trkpt>
      <trkpt lat="48.65822" lon="6.19879">
        <ele>230</ele>
        <time>2013-07-21T14:26:17Z</time>
      </trkpt>
      <trkpt lat="48.65826" lon="6.1988">
        <ele>231</ele>
        <time>2013-07-21T14:26:19Z</time>
      </trkpt>
      <trkpt lat="48.65831" lon="6.19882">
        <ele>230</ele>
        <time>2013-07-21T14:26:21Z</time>
      </trkpt>
      <trkpt lat="48.65836" lon="6.19883">
        <ele>231</ele>
        <time>2013-07-21T14:26:22Z</time>
      </trkpt>
      <trkpt lat="48.6584" lon="6.19885">
        <ele>231</ele>
        <time>2013-07-21T14:26:25Z</time>
      </trkpt>
      <trkpt lat="48.65843" lon="6.19886">
        <ele>231</ele>
        <time>2013-07-21T14:26:26Z</time>
      </trkpt>
      <trkpt lat="48.65846" lon="6.19887">
        <ele>231</ele>
        <time>2013-07-21T14:26:27Z</time>
      </trkpt>
      <trkpt lat="48.6585" lon="6.19888">
        <ele>234</ele>
        <time>2013-07-21T14:26:28Z</time>
      </trkpt>
      <trkpt lat="48.65855" lon="6.19889">
        <ele>235</ele>
        <time>2013-07-21T14:26:30Z</time>
      </trkpt>
      <trkpt lat="48.65859" lon="6.1989">
        <ele>236</ele>
        <time>2013-07-21T14:26:32Z</time>
      </trkpt>
      <trkpt lat="48.65862" lon="6.19891">
        <ele>238</ele>
        <time>2013-07-21T14:26:34Z</time>
      </trkpt>
      <trkpt lat="48.65865" lon="6.19892">
        <ele>239</ele>
        <time>2013-07-21T14:26:35Z</time>
      </trkpt>
      <trkpt lat="48.65867" lon="6.19893">
        <ele>241</ele>
        <time>2013-07-21T14:26:36Z</time>
      </trkpt>
      <trkpt lat="48.65871" lon="6.19894">
        <ele>242</ele>
        <time>2013-07-21T14:26:38Z</time>
      </trkpt>
      <trkpt lat="48.65876" lon="6.19896">
        <ele>240</ele>
        <time>2013-07-21T14:26:40Z</time>
      </trkpt>
      <trkpt lat="48.6588" lon="6.19897">
        <ele>239</ele>
        <time>2013-07-21T14:26:42Z</time>
      </trkpt>
      <trkpt lat="48.65882" lon="6.19899">
        <ele>239</ele>
        <time>2013-07-21T14:26:44Z</time>
      </trkpt>
      <trkpt lat="48.65884" lon="6.199">
        <ele>240</ele>
        <time>2013-07-21T14:26:44Z</time>
      </trkpt>
      <trkpt lat="48.65888" lon="6.19902">
        <ele>236</ele>
        <time>2013-07-21T14:26:46Z</time>
      </trkpt>
      <trkpt lat="48.65892" lon="6.19904">
        <ele>235</ele>
        <time>2013-07-21T14:26:48Z</time>
      </trkpt>
      <trkpt lat="48.65896" lon="6.19907">
        <ele>236</ele>
        <time>2013-07-21T14:26:50Z</time>
      </trkpt>
      <trkpt lat="48.65899" lon="6.1991">
        <ele>236</ele>
        <time>2013-07-21T14:26:52Z</time>
      </trkpt>
      <trkpt lat="48.65903" lon="6.19912">
        <ele>236</ele>
        <time>2013-07-21T14:26:55Z</time>
      </trkpt>
      <trkpt lat="48.65907" lon="6.19915">
        <ele>235</ele>
        <time>2013-07-21T14:26:57Z</time>
      </trkpt>
      <trkpt lat="48.65909" lon="6.19916">
        <ele>236</ele>
        <time>2013-07-21T14:26:57Z</time>
      </trkpt>
      <trkpt lat="48.6591" lon="6.19917">
        <ele>239</ele>
        <time>2013-07-21T14:26:58Z</time>
      </trkpt>
      <trkpt lat="48.65914" lon="6.19918">
        <ele>242</ele>
        <time>2013-07-21T14:27:00Z</time>
      </trkpt>
      <trkpt lat="48.65918" lon="6.19921">
        <ele>240</ele>
        <time>2013-07-21T14:27:02Z</time>
      </trkpt>
      <trkpt lat="48.65922" lon="6.19923">
        <ele>238</ele>
        <time>2013-07-21T14:27:04Z</time>
      </trkpt>
      <trkpt lat="48.65926" lon="6.19925">
        <ele>237</ele>
        <time>2013-07-21T14:27:06Z</time>
      </trkpt>
      <trkpt lat="48.6593" lon="6.19928">
        <ele>235</ele>
        <time>2013-07-21T14:27:08Z</time>
      </trkpt>
      <trkpt lat="48.65934" lon="6.19931">
        <ele>236</ele>
        <time>2013-07-21T14:27:10Z</time>
      </trkpt>
      <trkpt lat="48.65937" lon="6.19934">
        <ele>238</ele>
        <time>2013-07-21T14:27:12Z</time>
      </trkpt>
      <trkpt lat="48.65939" lon="6.19936">
        <ele>237</ele>
        <time>2013-07-21T14:27:14Z</time>
      </trkpt>
      <trkpt lat="48.65942" lon="6.19939">
        <ele>238</ele>
        <time>2013-07-21T14:27:16Z</time>
      </trkpt>
      <trkpt lat="48.65945" lon="6.19942">
        <ele>239</ele>
        <time>2013-07-21T14:27:18Z</time>
      </trkpt>
      <trkpt lat="48.65949" lon="6.19946">
        <ele>237</ele>
        <time>2013-07-21T14:27:20Z</time>
      </trkpt>
      <trkpt lat="48.65953" lon="6.19949">
        <ele>235</ele>
        <time>2013-07-21T14:27:22Z</time>
      </trkpt>
      <trkpt lat="48.65957" lon="6.19952">
        <ele>234</ele>
        <time>2013-07-21T14:27:24Z</time>
      </trkpt>
      <trkpt lat="48.65959" lon="6.19954">
        <ele>235</ele>
        <time>2013-07-21T14:27:26Z</time>
      </trkpt>
      <trkpt lat="48.65962" lon="6.19957">
        <ele>237</ele>
        <time>2013-07-21T14:27:29Z</time>
      </trkpt>
      <trkpt lat="48.65965" lon="6.19961">
        <ele>236</ele>
        <time>2013-07-21T14:27:31Z</time>
      </trkpt>
      <trkpt lat="48.65969" lon="6.19964">
        <ele>236</ele>
        <time>2013-07-21T14:27:33Z</time>
      </trkpt>
      <trkpt lat="48.6597" lon="6.19966">
        <ele>237</ele>
        <time>2013-07-21T14:27:34Z</time>
      </trkpt>
      <trkpt lat="48.65972" lon="6.19967">
        <ele>237</ele>
        <time>2013-07-21T14:27:35Z</time>
      </trkpt>
      <trkpt lat="48.65976" lon="6.1997">
        <ele>237</ele>
        <time>2013-07-21T14:27:37Z</time>
      </trkpt>
      <trkpt lat="48.65979" lon="6.19973">
        <ele>236</ele>
        <time>2013-07-21T14:27:38Z</time>
      </trkpt>
      <trkpt lat="48.65982" lon="6.19976">
        <ele>237</ele>
        <time>2013-07-21T14:27:40Z</time>
      </trkpt>
      <trkpt lat="48.65986" lon="6.19979">
        <ele>241</ele>
        <time>2013-07-21T14:27:42Z</time>
      </trkpt>
      <trkpt lat="48.65989" lon="6.19982">
        <ele>240</ele>
        <time>2013-07-21T14:27:44Z</time>
      </trkpt>
      <trkpt lat="48.65991" lon="6.19983">
        <ele>240</ele>
        <time>2013-07-21T14:27:45Z</time>
      </trkpt>
      <trkpt lat="48.65993" lon="6.19985">
        <ele>241</ele>
        <time>2013-07-21T14:27:46Z</time>
      </trkpt>
      <trkpt lat="48.65996" lon="6.19987">
        <ele>240</ele>
        <time>2013-07-21T14:27:48Z</time>
      </trkpt>
      <trkpt lat="48.65999" lon="6.19989">
        <ele>242</ele>
        <time>2013-07-21T14:27:50Z</time>
      </trkpt>
      <trkpt lat="48.66003" lon="6.19992">
        <ele>243</ele>
        <time>2013-07-21T14:27:52Z</time>
      </trkpt>
      <trkpt lat="48.66006" lon="6.19995">
        <ele>245</ele>
        <time>2013-07-21T14:27:54Z</time>
      </trkpt>
      <trkpt lat="48.6601" lon="6.19997">
        <ele>244</ele>
        <time>2013-07-21T14:27:56Z</time>
      </trkpt>
      <trkpt lat="48.66013" lon="6.2">
        <ele>245</ele>
        <time>2013-07-21T14:27:59Z</time>
      </trkpt>
      <trkpt lat="48.66018" lon="6.20002">
        <ele>243</ele>
        <time>2013-07-21T14:28:00Z</time>
      </trkpt>
      <trkpt lat="48.66024" lon="6.20005">
        <ele>241</ele>
        <time>2013-07-21T14:28:03Z</time>
      </trkpt>
      <trkpt lat="48.66028" lon="6.20006">
        <ele>239</ele>
        <time>2013-07-21T14:28:04Z</time>
      </trkpt>
      <trkpt lat="48.66031" lon="6.20007">
        <ele>238</ele>
        <time>2013-07-21T14:28:05Z</time>
      </trkpt>
      <trkpt lat="48.66037" lon="6.2001">
        <ele>234</ele>
        <time>2013-07-21T14:28:07Z</time>
      </trkpt>
      <trkpt lat="48.66042" lon="6.20011">
        <ele>234</ele>
        <time>2013-07-21T14:28:08Z</time>
      </trkpt>
      <trkpt lat="48.66051" lon="6.20015">
        <ele>236</ele>
        <time>2013-07-21T14:28:12Z</time>
      </trkpt>
      <trkpt lat="48.66055" lon="6.20017">
        <ele>236</ele>
        <time>2013-07-21T14:28:14Z</time>
      </trkpt>
      <trkpt lat="48.66059" lon="6.20018">
        <ele>236</ele>
        <time>2013-07-21T14:28:16Z</time>
      </trkpt>
      <trkpt lat="48.66063" lon="6.2002">
        <ele>236</ele>
        <time>2013-07-21T14:28:19Z</time>
      </trkpt>
      <trkpt lat="48.66067" lon="6.2002">
        <ele>236</ele>
        <time>2013-07-21T14:28:20Z</time>
      </trkpt>
      <trkpt lat="48.66072" lon="6.20021">
        <ele>236</ele>
        <time>2013-07-21T14:28:22Z</time>
      </trkpt>
      <trkpt lat="48.66078" lon="6.20021">
        <ele>236</ele>
        <time>2013-07-21T14:28:24Z</time>
      </trkpt>
      <trkpt lat="48.66086" lon="6.20022">
        <ele>236</ele>
        <time>2013-07-21T14:28:26Z</time>
      </trkpt>
      <trkpt lat="48.66094" lon="6.20024">
        <ele>237</ele>
        <time>2013-07-21T14:28:28Z</time>
      </trkpt>
      <trkpt lat="48.66103" lon="6.20025">
        <ele>234</ele>
        <time>2013-07-21T14:28:30Z</time>
      </trkpt>
      <trkpt lat="48.66111" lon="6.20024">
        <ele>234</ele>
        <time>2013-07-21T14:28:32Z</time>
      </trkpt>
      <trkpt lat="48.6612" lon="6.20023">
        <ele>235</ele>
        <time>2013-07-21T14:28:35Z</time>
      </trkpt>
      <trkpt lat="48.66129" lon="6.20021">
        <ele>238</ele>
        <time>2013-07-21T14:28:37Z</time>
      </trkpt>
      <trkpt lat="48.66138" lon="6.20019">
        <ele>233</ele>
        <time>2013-07-21T14:28:39Z</time>
      </trkpt>
      <trkpt lat="48.66148" lon="6.20017">
        <ele>229</ele>
        <time>2013-07-21T14:28:41Z</time>
      </trkpt>
      <trkpt lat="48.66158" lon="6.20014">
        <ele>226</ele>
        <time>2013-07-21T14:28:43Z</time>
      </trkpt>
      <trkpt lat="48.66168" lon="6.20009">
        <ele>225</ele>
        <time>2013-07-21T14:28:45Z</time>
      </trkpt>
      <trkpt lat="48.66179" lon="6.20005">
        <ele>225</ele>
        <time>2013-07-21T14:28:46Z</time>
      </trkpt>
      <trkpt lat="48.66189" lon="6.20001">
        <ele>228</ele>
        <time>2013-07-21T14:28:49Z</time>
      </trkpt>
      <trkpt lat="48.662" lon="6.19998">
        <ele>231</ele>
        <time>2013-07-21T14:28:51Z</time>
      </trkpt>
      <trkpt lat="48.6621" lon="6.19993">
        <ele>233</ele>
        <time>2013-07-21T14:28:53Z</time>
      </trkpt>
      <trkpt lat="48.66221" lon="6.19988">
        <ele>233</ele>
        <time>2013-07-21T14:28:54Z</time>
      </trkpt>
      <trkpt lat="48.66227" lon="6.19986">
        <ele>233</ele>
        <time>2013-07-21T14:28:55Z</time>
      </trkpt>
      <trkpt lat="48.66232" lon="6.19983">
        <ele>234</ele>
        <time>2013-07-21T14:28:57Z</time>
      </trkpt>
      <trkpt lat="48.66243" lon="6.19979">
        <ele>229</ele>
        <time>2013-07-21T14:28:59Z</time>
      </trkpt>
      <trkpt lat="48.66253" lon="6.19975">
        <ele>227</ele>
        <time>2013-07-21T14:29:01Z</time>
      </trkpt>
      <trkpt lat="48.66262" lon="6.1997">
        <ele>225</ele>
        <time>2013-07-21T14:29:03Z</time>
      </trkpt>
      <trkpt lat="48.66272" lon="6.19965">
        <ele>227</ele>
        <time>2013-07-21T14:29:04Z</time>
      </trkpt>
      <trkpt lat="48.66282" lon="6.19961">
        <ele>227</ele>
        <time>2013-07-21T14:29:06Z</time>
      </trkpt>
      <trkpt lat="48.66292" lon="6.19957">
        <ele>228</ele>
        <time>2013-07-21T14:29:09Z</time>
      </trkpt>
      <trkpt lat="48.66302" lon="6.19953">
        <ele>229</ele>
        <time>2013-07-21T14:29:11Z</time>
      </trkpt>
      <trkpt lat="48.66312" lon="6.19948">
        <ele>226</ele>
        <time>2013-07-21T14:29:12Z</time>
      </trkpt>
      <trkpt lat="48.6632" lon="6.19944">
        <ele>226</ele>
        <time>2013-07-21T14:29:14Z</time>
      </trkpt>
      <trkpt lat="48.66331" lon="6.19938">
        <ele>225</ele>
        <time>2013-07-21T14:29:17Z</time>
      </trkpt>
      <trkpt lat="48.66343" lon="6.19932">
        <ele>222</ele>
        <time>2013-07-21T14:29:19Z</time>
      </trkpt>
      <trkpt lat="48.66349" lon="6.19929">
        <ele>223</ele>
        <time>2013-07-21T14:29:20Z</time>
      </trkpt>
      <trkpt lat="48.66354" lon="6.19926">
        <ele>223</ele>
        <time>2013-07-21T14:29:21Z</time>
      </trkpt>
      <trkpt lat="48.66364" lon="6.19921">
        <ele>225</ele>
        <time>2013-07-21T14:29:23Z</time>
      </trkpt>
      <trkpt lat="48.66373" lon="6.19916">
        <ele>228</ele>
        <time>2013-07-21T14:29:25Z</time>
      </trkpt>
      <trkpt lat="48.66382" lon="6.19911">
        <ele>229</ele>
        <time>2013-07-21T14:29:27Z</time>
      </trkpt>
      <trkpt lat="48.66391" lon="6.19905">
        <ele>230</ele>
        <time>2013-07-21T14:29:29Z</time>
      </trkpt>
      <trkpt lat="48.664" lon="6.19898">
        <ele>232</ele>
        <time>2013-07-21T14:29:31Z</time>
      </trkpt>
      <trkpt lat="48.66409" lon="6.19891">
        <ele>233</ele>
        <time>2013-07-21T14:29:33Z</time>
      </trkpt>
      <trkpt lat="48.66417" lon="6.19884">
        <ele>233</ele>
        <time>2013-07-21T14:29:35Z</time>
      </trkpt>
      <trkpt lat="48.66425" lon="6.19876">
        <ele>233</ele>
        <time>2013-07-21T14:29:37Z</time>
      </trkpt>
      <trkpt lat="48.66433" lon="6.19869">
        <ele>229</ele>
        <time>2013-07-21T14:29:38Z</time>
      </trkpt>
      <trkpt lat="48.66442" lon="6.19861">
        <ele>226</ele>
        <time>2013-07-21T14:29:41Z</time>
      </trkpt>
      <trkpt lat="48.66449" lon="6.19854">
        <ele>226</ele>
        <time>2013-07-21T14:29:43Z</time>
      </trkpt>
      <trkpt lat="48.66459" lon="6.19842">
        <ele>226</ele>
        <time>2013-07-21T14:29:46Z</time>
      </trkpt>
      <trkpt lat="48.66462" lon="6.19838">
        <ele>225</ele>
        <time>2013-07-21T14:29:46Z</time>
      </trkpt>
      <trkpt lat="48.66468" lon="6.19832">
        <ele>226</ele>
        <time>2013-07-21T14:29:49Z</time>
      </trkpt>
      <trkpt lat="48.66474" lon="6.19825">
        <ele>224</ele>
        <time>2013-07-21T14:29:51Z</time>
      </trkpt>
      <trkpt lat="48.6648" lon="6.19817">
        <ele>225</ele>
        <time>2013-07-21T14:29:53Z</time>
      </trkpt>
      <trkpt lat="48.66485" lon="6.19811">
        <ele>226</ele>
        <time>2013-07-21T14:29:55Z</time>
      </trkpt>
      <trkpt lat="48.66491" lon="6.19805">
        <ele>227</ele>
        <time>2013-07-21T14:29:56Z</time>
      </trkpt>
      <trkpt lat="48.66496" lon="6.19799">
        <ele>228</ele>
        <time>2013-07-21T14:29:59Z</time>
      </trkpt>
      <trkpt lat="48.66501" lon="6.19793">
        <ele>228</ele>
        <time>2013-07-21T14:30:01Z</time>
      </trkpt>
      <trkpt lat="48.66506" lon="6.19787">
        <ele>228</ele>
        <time>2013-07-21T14:30:03Z</time>
      </trkpt>
      <trkpt lat="48.66511" lon="6.19782">
        <ele>229</ele>
        <time>2013-07-21T14:30:05Z</time>
      </trkpt>
      <trkpt lat="48.66516" lon="6.19777">
        <ele>229</ele>
        <time>2013-07-21T14:30:06Z</time>
      </trkpt>
      <trkpt lat="48.66522" lon="6.19772">
        <ele>230</ele>
        <time>2013-07-21T14:30:09Z</time>
      </trkpt>
      <trkpt lat="48.66527" lon="6.19766">
        <ele>231</ele>
        <time>2013-07-21T14:30:11Z</time>
      </trkpt>
      <trkpt lat="48.6653" lon="6.19764">
        <ele>232</ele>
        <time>2013-07-21T14:30:12Z</time>
      </trkpt>
      <trkpt lat="48.66533" lon="6.19761">
        <ele>231</ele>
        <time>2013-07-21T14:30:12Z</time>
      </trkpt>
      <trkpt lat="48.66539" lon="6.19752">
        <ele>236</ele>
        <time>2013-07-21T14:30:16Z</time>
      </trkpt>
      <trkpt lat="48.66544" lon="6.19745">
        <ele>237</ele>
        <time>2013-07-21T14:30:19Z</time>
      </trkpt>
      <trkpt lat="48.66548" lon="6.19738">
        <ele>237</ele>
        <time>2013-07-21T14:30:20Z</time>
      </trkpt>
      <trkpt lat="48.66552" lon="6.19731">
        <ele>236</ele>
        <time>2013-07-21T14:30:22Z</time>
      </trkpt>
      <trkpt lat="48.66557" lon="6.19724">
        <ele>230</ele>
        <time>2013-07-21T14:30:24Z</time>
      </trkpt>
      <trkpt lat="48.66562" lon="6.19718">
        <ele>227</ele>
        <time>2013-07-21T14:30:26Z</time>
      </trkpt>
      <trkpt lat="48.66567" lon="6.19712">
        <ele>229</ele>
        <time>2013-07-21T14:30:28Z</time>
      </trkpt>
      <trkpt lat="48.66571" lon="6.19706">
        <ele>231</ele>
        <time>2013-07-21T14:30:30Z</time>
      </trkpt>
      <trkpt lat="48.66574" lon="6.19697">
        <ele>232</ele>
        <time>2013-07-21T14:30:32Z</time>
      </trkpt>
      <trkpt lat="48.66578" lon="6.19689">
        <ele>232</ele>
        <time>2013-07-21T14:30:34Z</time>
      </trkpt>
      <trkpt lat="48.6658" lon="6.19686">
        <ele>231</ele>
        <time>2013-07-21T14:30:35Z</time>
      </trkpt>
      <trkpt lat="48.66583" lon="6.19683">
        <ele>232</ele>
        <time>2013-07-21T14:30:36Z</time>
      </trkpt>
      <trkpt lat="48.66587" lon="6.19677">
        <ele>232</ele>
        <time>2013-07-21T14:30:38Z</time>
      </trkpt>
      <trkpt lat="48.66593" lon="6.19671">
        <ele>230</ele>
        <time>2013-07-21T14:30:40Z</time>
      </trkpt>
      <trkpt lat="48.66597" lon="6.19665">
        <ele>234</ele>
        <time>2013-07-21T14:30:42Z</time>
      </trkpt>
      <trkpt lat="48.66601" lon="6.19659">
        <ele>232</ele>
        <time>2013-07-21T14:30:44Z</time>
      </trkpt>
      <trkpt lat="48.66605" lon="6.1965">
        <ele>231</ele>
        <time>2013-07-21T14:30:46Z</time>
      </trkpt>
      <trkpt lat="48.66608" lon="6.19641">
        <ele>229</ele>
        <time>2013-07-21T14:30:48Z</time>
      </trkpt>
      <trkpt lat="48.66612" lon="6.19636">
        <ele>230</ele>
        <time>2013-07-21T14:30:50Z</time>
      </trkpt>
      <trkpt lat="48.66616" lon="6.1963">
        <ele>231</ele>
        <time>2013-07-21T14:30:52Z</time>
      </trkpt>
      <trkpt lat="48.66618" lon="6.19624">
        <ele>232</ele>
        <time>2013-07-21T14:30:54Z</time>
      </trkpt>
      <trkpt lat="48.66621" lon="6.19617">
        <ele>235</ele>
        <time>2013-07-21T14:30:57Z</time>
      </trkpt>
      <trkpt lat="48.66625" lon="6.1961">
        <ele>237</ele>
        <time>2013-07-21T14:30:58Z</time>
      </trkpt>
      <trkpt lat="48.66629" lon="6.19603">
        <ele>236</ele>
        <time>2013-07-21T14:31:00Z</time>
      </trkpt>
      <trkpt lat="48.66638" lon="6.1959">
        <ele>234</ele>
        <time>2013-07-21T14:31:04Z</time>
      </trkpt>
      <trkpt lat="48.6664" lon="6.19582">
        <ele>235</ele>
        <time>2013-07-21T14:31:06Z</time>
      </trkpt>
      <trkpt lat="48.66642" lon="6.19574">
        <ele>232</ele>
        <time>2013-07-21T14:31:08Z</time>
      </trkpt>
      <trkpt lat="48.66644" lon="6.19565">
        <ele>233</ele>
        <time>2013-07-21T14:31:10Z</time>
      </trkpt>
      <trkpt lat="48.66648" lon="6.19553">
        <ele>233</ele>
        <time>2013-07-21T14:31:12Z</time>
      </trkpt>
      <trkpt lat="48.6665" lon="6.19541">
        <ele>234</ele>
        <time>2013-07-21T14:31:14Z</time>
      </trkpt>
      <trkpt lat="48.66653" lon="6.19529">
        <ele>236</ele>
        <time>2013-07-21T14:31:16Z</time>
      </trkpt>
      <trkpt lat="48.66657" lon="6.19516">
        <ele>235</ele>
        <time>2013-07-21T14:31:18Z</time>
      </trkpt>
      <trkpt lat="48.66661" lon="6.19503">
        <ele>235</ele>
        <time>2013-07-21T14:31:20Z</time>
      </trkpt>
      <trkpt lat="48.66664" lon="6.19488">
        <ele>235</ele>
        <time>2013-07-21T14:31:22Z</time>
      </trkpt>
      <trkpt lat="48.66668" lon="6.19475">
        <ele>234</ele>
        <time>2013-07-21T14:31:24Z</time>
      </trkpt>
      <trkpt lat="48.66671" lon="6.19461">
        <ele>233</ele>
        <time>2013-07-21T14:31:26Z</time>
      </trkpt>
      <trkpt lat="48.66675" lon="6.19448">
        <ele>233</ele>
        <time>2013-07-21T14:31:28Z</time>
      </trkpt>
      <trkpt lat="48.66679" lon="6.19432">
        <ele>233</ele>
        <time>2013-07-21T14:31:30Z</time>
      </trkpt>
      <trkpt lat="48.66682" lon="6.19418">
        <ele>233</ele>
        <time>2013-07-21T14:31:32Z</time>
      </trkpt>
      <trkpt lat="48.66685" lon="6.19405">
        <ele>234</ele>
        <time>2013-07-21T14:31:34Z</time>
      </trkpt>
      <trkpt lat="48.66687" lon="6.19393">
        <ele>235</ele>
        <time>2013-07-21T14:31:37Z</time>
      </trkpt>
      <trkpt lat="48.6669" lon="6.19382">
        <ele>236</ele>
        <time>2013-07-21T14:31:39Z</time>
      </trkpt>
      <trkpt lat="48.66693" lon="6.19371">
        <ele>236</ele>
        <time>2013-07-21T14:31:41Z</time>
      </trkpt>
      <trkpt lat="48.66695" lon="6.1936">
        <ele>233</ele>
        <time>2013-07-21T14:31:43Z</time>
      </trkpt>
      <trkpt lat="48.66698" lon="6.19351">
        <ele>234</ele>
        <time>2013-07-21T14:31:45Z</time>
      </trkpt>
      <trkpt lat="48.667" lon="6.19342">
        <ele>234</ele>
        <time>2013-07-21T14:31:46Z</time>
      </trkpt>
      <trkpt lat="48.66703" lon="6.19332">
        <ele>235</ele>
        <time>2013-07-21T14:31:49Z</time>
      </trkpt>
      <trkpt lat="48.66707" lon="6.19321">
        <ele>234</ele>
        <time>2013-07-21T14:31:51Z</time>
      </trkpt>
      <trkpt lat="48.66708" lon="6.19315">
        <ele>236</ele>
        <time>2013-07-21T14:31:52Z</time>
      </trkpt>
      <trkpt lat="48.6671" lon="6.1931">
        <ele>238</ele>
        <time>2013-07-21T14:31:52Z</time>
      </trkpt>
      <trkpt lat="48.66712" lon="6.19299">
        <ele>240</ele>
        <time>2013-07-21T14:31:55Z</time>
      </trkpt>
      <trkpt lat="48.66715" lon="6.19288">
        <ele>241</ele>
        <time>2013-07-21T14:31:57Z</time>
      </trkpt>
      <trkpt lat="48.66718" lon="6.19277">
        <ele>240</ele>
        <time>2013-07-21T14:31:58Z</time>
      </trkpt>
      <trkpt lat="48.66721" lon="6.19264">
        <ele>238</ele>
        <time>2013-07-21T14:32:01Z</time>
      </trkpt>
      <trkpt lat="48.66726" lon="6.1925">
        <ele>235</ele>
        <time>2013-07-21T14:32:03Z</time>
      </trkpt>
      <trkpt lat="48.66729" lon="6.19238">
        <ele>234</ele>
        <time>2013-07-21T14:32:05Z</time>
      </trkpt>
      <trkpt lat="48.66732" lon="6.19227">
        <ele>234</ele>
        <time>2013-07-21T14:32:07Z</time>
      </trkpt>
      <trkpt lat="48.66735" lon="6.19216">
        <ele>235</ele>
        <time>2013-07-21T14:32:09Z</time>
      </trkpt>
      <trkpt lat="48.66741" lon="6.19192">
        <ele>232</ele>
        <time>2013-07-21T14:32:13Z</time>
      </trkpt>
      <trkpt lat="48.66747" lon="6.19174">
        <ele>231</ele>
        <time>2013-07-21T14:32:17Z</time>
      </trkpt>
      <trkpt lat="48.6675" lon="6.19172">
        <ele>230</ele>
        <time>2013-07-21T14:32:18Z</time>
      </trkpt>
      <trkpt lat="48.66755" lon="6.19165">
        <ele>227</ele>
        <time>2013-07-21T14:32:21Z</time>
      </trkpt>
      <trkpt lat="48.6676" lon="6.19159">
        <ele>226</ele>
        <time>2013-07-21T14:32:23Z</time>
      </trkpt>
      <trkpt lat="48.66763" lon="6.19156">
        <ele>225</ele>
        <time>2013-07-21T14:32:25Z</time>
      </trkpt>
      <trkpt lat="48.66763" lon="6.19155">
        <ele>225</ele>
        <time>2013-07-21T14:32:27Z</time>
      </trkpt>
      <trkpt lat="48.66763" lon="6.19154">
        <ele>227</ele>
        <time>2013-07-21T14:32:33Z</time>
      </trkpt>
      <trkpt lat="48.66764" lon="6.19151">
        <ele>228</ele>
        <time>2013-07-21T14:32:34Z</time>
      </trkpt>
      <trkpt lat="48.66765" lon="6.19148">
        <ele>229</ele>
        <time>2013-07-21T14:32:37Z</time>
      </trkpt>
      <trkpt lat="48.66768" lon="6.19142">
        <ele>231</ele>
        <time>2013-07-21T14:32:39Z</time>
      </trkpt>
      <trkpt lat="48.66774" lon="6.19135">
        <ele>230</ele>
        <time>2013-07-21T14:32:41Z</time>
      </trkpt>
      <trkpt lat="48.6678" lon="6.19128">
        <ele>227</ele>
        <time>2013-07-21T14:32:43Z</time>
      </trkpt>
      <trkpt lat="48.66787" lon="6.1912">
        <ele>229</ele>
        <time>2013-07-21T14:32:45Z</time>
      </trkpt>
      <trkpt lat="48.66793" lon="6.19108">
        <ele>226</ele>
        <time>2013-07-21T14:32:46Z</time>
      </trkpt>
      <trkpt lat="48.66799" lon="6.19094">
        <ele>226</ele>
        <time>2013-07-21T14:32:49Z</time>
      </trkpt>
      <trkpt lat="48.66804" lon="6.19079">
        <ele>226</ele>
        <time>2013-07-21T14:32:51Z</time>
      </trkpt>
      <trkpt lat="48.66809" lon="6.19066">
        <ele>228</ele>
        <time>2013-07-21T14:32:52Z</time>
      </trkpt>
      <trkpt lat="48.66812" lon="6.19062">
        <ele>228</ele>
        <time>2013-07-21T14:32:55Z</time>
      </trkpt>
      <trkpt lat="48.66813" lon="6.1906">
        <ele>226</ele>
        <time>2013-07-21T14:32:57Z</time>
      </trkpt>
      <trkpt lat="48.66813" lon="6.19059">
        <ele>227</ele>
        <time>2013-07-21T14:32:58Z</time>
      </trkpt>
      <trkpt lat="48.66812" lon="6.19057">
        <ele>226</ele>
        <time>2013-07-21T14:33:05Z</time>
      </trkpt>
      <trkpt lat="48.66813" lon="6.19055">
        <ele>223</ele>
        <time>2013-07-21T14:33:07Z</time>
      </trkpt>
      <trkpt lat="48.66812" lon="6.19056">
        <ele>228</ele>
        <time>2013-07-21T14:33:21Z</time>
      </trkpt>
      <trkpt lat="48.66813" lon="6.19051">
        <ele>223</ele>
        <time>2013-07-21T14:33:33Z</time>
      </trkpt>
      <trkpt lat="48.66812" lon="6.1905">
        <ele>224</ele>
        <time>2013-07-21T14:33:34Z</time>
      </trkpt>
      <trkpt lat="48.66809" lon="6.19045">
        <ele>225</ele>
        <time>2013-07-21T14:33:36Z</time>
      </trkpt>
      <trkpt lat="48.66806" lon="6.1904">
        <ele>224</ele>
        <time>2013-07-21T14:33:39Z</time>
      </trkpt>
      <trkpt lat="48.66803" lon="6.19035">
        <ele>225</ele>
        <time>2013-07-21T14:33:40Z</time>
      </trkpt>
      <trkpt lat="48.66802" lon="6.19033">
        <ele>225</ele>
        <time>2013-07-21T14:33:42Z</time>
      </trkpt>
      <trkpt lat="48.668" lon="6.1903">
        <ele>225</ele>
        <time>2013-07-21T14:33:43Z</time>
      </trkpt>
      <trkpt lat="48.66796" lon="6.19026">
        <ele>226</ele>
        <time>2013-07-21T14:33:45Z</time>
      </trkpt>
      <trkpt lat="48.66792" lon="6.19021">
        <ele>227</ele>
        <time>2013-07-21T14:33:46Z</time>
      </trkpt>
      <trkpt lat="48.66788" lon="6.19016">
        <ele>227</ele>
        <time>2013-07-21T14:33:48Z</time>
      </trkpt>
      <trkpt lat="48.66784" lon="6.19012">
        <ele>227</ele>
        <time>2013-07-21T14:33:51Z</time>
      </trkpt>
      <trkpt lat="48.66781" lon="6.19009">
        <ele>226</ele>
        <time>2013-07-21T14:33:53Z</time>
      </trkpt>
      <trkpt lat="48.6678" lon="6.19008">
        <ele>227</ele>
        <time>2013-07-21T14:33:54Z</time>
      </trkpt>
      <trkpt lat="48.6678" lon="6.19007">
        <ele>227</ele>
        <time>2013-07-21T14:33:56Z</time>
      </trkpt>
      <trkpt lat="48.66778" lon="6.19005">
        <ele>226</ele>
        <time>2013-07-21T14:34:08Z</time>
      </trkpt>
      <trkpt lat="48.66776" lon="6.19001">
        <ele>227</ele>
        <time>2013-07-21T14:34:10Z</time>
      </trkpt>
      <trkpt lat="48.66774" lon="6.18998">
        <ele>226</ele>
        <time>2013-07-21T14:34:12Z</time>
      </trkpt>
      <trkpt lat="48.66774" lon="6.18994">
        <ele>227</ele>
        <time>2013-07-21T14:34:14Z</time>
      </trkpt>
      <trkpt lat="48.66775" lon="6.1899">
        <ele>227</ele>
        <time>2013-07-21T14:34:16Z</time>
      </trkpt>
      <trkpt lat="48.66778" lon="6.18988">
        <ele>229</ele>
        <time>2013-07-21T14:34:18Z</time>
      </trkpt>
      <trkpt lat="48.66782" lon="6.18986">
        <ele>227</ele>
        <time>2013-07-21T14:34:20Z</time>
      </trkpt>
      <trkpt lat="48.66788" lon="6.18982">
        <ele>228</ele>
        <time>2013-07-21T14:34:22Z</time>
      </trkpt>
      <trkpt lat="48.66793" lon="6.18976">
        <ele>229</ele>
        <time>2013-07-21T14:34:24Z</time>
      </trkpt>
      <trkpt lat="48.668" lon="6.1897">
        <ele>229</ele>
        <time>2013-07-21T14:34:26Z</time>
      </trkpt>
      <trkpt lat="48.66806" lon="6.18965">
        <ele>231</ele>
        <time>2013-07-21T14:34:29Z</time>
      </trkpt>
      <trkpt lat="48.66813" lon="6.1896">
        <ele>233</ele>
        <time>2013-07-21T14:34:31Z</time>
      </trkpt>
      <trkpt lat="48.66823" lon="6.18952">
        <ele>238</ele>
        <time>2013-07-21T14:34:34Z</time>
      </trkpt>
      <trkpt lat="48.66826" lon="6.1895">
        <ele>239</ele>
        <time>2013-07-21T14:34:35Z</time>
      </trkpt>
      <trkpt lat="48.66832" lon="6.18946">
        <ele>239</ele>
        <time>2013-07-21T14:34:36Z</time>
      </trkpt>
      <trkpt lat="48.66839" lon="6.18939">
        <ele>242</ele>
        <time>2013-07-21T14:34:38Z</time>
      </trkpt>
      <trkpt lat="48.66847" lon="6.18933">
        <ele>244</ele>
        <time>2013-07-21T14:34:40Z</time>
      </trkpt>
      <trkpt lat="48.66853" lon="6.18928">
        <ele>247</ele>
        <time>2013-07-21T14:34:42Z</time>
      </trkpt>
      <trkpt lat="48.66861" lon="6.1892">
        <ele>247</ele>
        <time>2013-07-21T14:34:44Z</time>
      </trkpt>
      <trkpt lat="48.66869" lon="6.18912">
        <ele>243</ele>
        <time>2013-07-21T14:34:46Z</time>
      </trkpt>
      <trkpt lat="48.66879" lon="6.18902">
        <ele>236</ele>
        <time>2013-07-21T14:34:48Z</time>
      </trkpt>
      <trkpt lat="48.66889" lon="6.18893">
        <ele>233</ele>
        <time>2013-07-21T14:34:50Z</time>
      </trkpt>
      <trkpt lat="48.66897" lon="6.18883">
        <ele>235</ele>
        <time>2013-07-21T14:34:52Z</time>
      </trkpt>
      <trkpt lat="48.66907" lon="6.18872">
        <ele>237</ele>
        <time>2013-07-21T14:34:54Z</time>
      </trkpt>
      <trkpt lat="48.66916" lon="6.1886">
        <ele>233</ele>
        <time>2013-07-21T14:34:56Z</time>
      </trkpt>
      <trkpt lat="48.66921" lon="6.18856">
        <ele>232</ele>
        <time>2013-07-21T14:34:57Z</time>
      </trkpt>
      <trkpt lat="48.66925" lon="6.18851">
        <ele>232</ele>
        <time>2013-07-21T14:34:58Z</time>
      </trkpt>
      <trkpt lat="48.66933" lon="6.18844">
        <ele>232</ele>
        <time>2013-07-21T14:35:00Z</time>
      </trkpt>
      <trkpt lat="48.6694" lon="6.18835">
        <ele>232</ele>
        <time>2013-07-21T14:35:02Z</time>
      </trkpt>
      <trkpt lat="48.66956" lon="6.18818">
        <ele>229</ele>
        <time>2013-07-21T14:35:06Z</time>
      </trkpt>
      <trkpt lat="48.66972" lon="6.18799">
        <ele>227</ele>
        <time>2013-07-21T14:35:10Z</time>
      </trkpt>
      <trkpt lat="48.6698" lon="6.18791">
        <ele>226</ele>
        <time>2013-07-21T14:35:13Z</time>
      </trkpt>
      <trkpt lat="48.66987" lon="6.18783">
        <ele>227</ele>
        <time>2013-07-21T14:35:15Z</time>
      </trkpt>
      <trkpt lat="48.66994" lon="6.18776">
        <ele>227</ele>
        <time>2013-07-21T14:35:17Z</time>
      </trkpt>
      <trkpt lat="48.67" lon="6.18769">
        <ele>230</ele>
        <time>2013-07-21T14:35:19Z</time>
      </trkpt>
      <trkpt lat="48.67006" lon="6.18761">
        <ele>230</ele>
        <time>2013-07-21T14:35:21Z</time>
      </trkpt>
      <trkpt lat="48.67013" lon="6.18753">
        <ele>232</ele>
        <time>2013-07-21T14:35:23Z</time>
      </trkpt>
      <trkpt lat="48.67017" lon="6.18748">
        <ele>231</ele>
        <time>2013-07-21T14:35:24Z</time>
      </trkpt>
      <trkpt lat="48.6702" lon="6.18743">
        <ele>230</ele>
        <time>2013-07-21T14:35:25Z</time>
      </trkpt>
      <trkpt lat="48.67028" lon="6.18734">
        <ele>227</ele>
        <time>2013-07-21T14:35:26Z</time>
      </trkpt>
      <trkpt lat="48.67036" lon="6.18726">
        <ele>226</ele>
        <time>2013-07-21T14:35:28Z</time>
      </trkpt>
      <trkpt lat="48.67043" lon="6.18719">
        <ele>224</ele>
        <time>2013-07-21T14:35:30Z</time>
      </trkpt>
      <trkpt lat="48.67048" lon="6.18712">
        <ele>224</ele>
        <time>2013-07-21T14:35:32Z</time>
      </trkpt>
      <trkpt lat="48.67054" lon="6.18705">
        <ele>228</ele>
        <time>2013-07-21T14:35:34Z</time>
      </trkpt>
      <trkpt lat="48.67059" lon="6.18697">
        <ele>229</ele>
        <time>2013-07-21T14:35:36Z</time>
      </trkpt>
      <trkpt lat="48.67064" lon="6.1869">
        <ele>230</ele>
        <time>2013-07-21T14:35:38Z</time>
      </trkpt>
      <trkpt lat="48.6707" lon="6.18682">
        <ele>229</ele>
        <time>2013-07-21T14:35:40Z</time>
      </trkpt>
      <trkpt lat="48.67077" lon="6.18674">
        <ele>228</ele>
        <time>2013-07-21T14:35:42Z</time>
      </trkpt>
      <trkpt lat="48.67083" lon="6.18667">
        <ele>227</ele>
        <time>2013-07-21T14:35:44Z</time>
      </trkpt>
      <trkpt lat="48.6709" lon="6.18659">
        <ele>228</ele>
        <time>2013-07-21T14:35:46Z</time>
      </trkpt>
      <trkpt lat="48.67096" lon="6.18651">
        <ele>226</ele>
        <time>2013-07-21T14:35:48Z</time>
      </trkpt>
      <trkpt lat="48.67102" lon="6.18643">
        <ele>225</ele>
        <time>2013-07-21T14:35:50Z</time>
      </trkpt>
      <trkpt lat="48.67108" lon="6.18635">
        <ele>224</ele>
        <time>2013-07-21T14:35:52Z</time>
      </trkpt>
      <trkpt lat="48.67114" lon="6.18627">
        <ele>224</ele>
        <time>2013-07-21T14:35:54Z</time>
      </trkpt>
      <trkpt lat="48.6712" lon="6.1862">
        <ele>224</ele>
        <time>2013-07-21T14:35:56Z</time>
      </trkpt>
      <trkpt lat="48.67125" lon="6.18613">
        <ele>225</ele>
        <time>2013-07-21T14:35:58Z</time>
      </trkpt>
      <trkpt lat="48.67131" lon="6.18605">
        <ele>225</ele>
        <time>2013-07-21T14:36:00Z</time>
      </trkpt>
      <trkpt lat="48.67137" lon="6.18599">
        <ele>226</ele>
        <time>2013-07-21T14:36:02Z</time>
      </trkpt>
      <trkpt lat="48.67143" lon="6.18592">
        <ele>225</ele>
        <time>2013-07-21T14:36:05Z</time>
      </trkpt>
      <trkpt lat="48.67155" lon="6.18578">
        <ele>225</ele>
        <time>2013-07-21T14:36:09Z</time>
      </trkpt>
      <trkpt lat="48.6716" lon="6.1857">
        <ele>226</ele>
        <time>2013-07-21T14:36:11Z</time>
      </trkpt>
      <trkpt lat="48.67163" lon="6.18566">
        <ele>226</ele>
        <time>2013-07-21T14:36:11Z</time>
      </trkpt>
      <trkpt lat="48.67166" lon="6.18563">
        <ele>226</ele>
        <time>2013-07-21T14:36:12Z</time>
      </trkpt>
      <trkpt lat="48.67171" lon="6.18556">
        <ele>229</ele>
        <time>2013-07-21T14:36:14Z</time>
      </trkpt>
      <trkpt lat="48.67176" lon="6.1855">
        <ele>230</ele>
        <time>2013-07-21T14:36:16Z</time>
      </trkpt>
      <trkpt lat="48.67183" lon="6.18543">
        <ele>230</ele>
        <time>2013-07-21T14:36:18Z</time>
      </trkpt>
      <trkpt lat="48.67189" lon="6.18534">
        <ele>229</ele>
        <time>2013-07-21T14:36:20Z</time>
      </trkpt>
      <trkpt lat="48.67196" lon="6.18527">
        <ele>232</ele>
        <time>2013-07-21T14:36:22Z</time>
      </trkpt>
      <trkpt lat="48.67202" lon="6.1852">
        <ele>233</ele>
        <time>2013-07-21T14:36:24Z</time>
      </trkpt>
      <trkpt lat="48.67207" lon="6.18513">
        <ele>232</ele>
        <time>2013-07-21T14:36:26Z</time>
      </trkpt>
      <trkpt lat="48.67212" lon="6.18508">
        <ele>231</ele>
        <time>2013-07-21T14:36:28Z</time>
      </trkpt>
      <trkpt lat="48.67217" lon="6.18501">
        <ele>230</ele>
        <time>2013-07-21T14:36:30Z</time>
      </trkpt>
      <trkpt lat="48.67222" lon="6.18495">
        <ele>228</ele>
        <time>2013-07-21T14:36:32Z</time>
      </trkpt>
      <trkpt lat="48.67227" lon="6.18488">
        <ele>228</ele>
        <time>2013-07-21T14:36:34Z</time>
      </trkpt>
      <trkpt lat="48.67232" lon="6.18481">
        <ele>227</ele>
        <time>2013-07-21T14:36:36Z</time>
      </trkpt>
      <trkpt lat="48.67238" lon="6.18474">
        <ele>227</ele>
        <time>2013-07-21T14:36:38Z</time>
      </trkpt>
      <trkpt lat="48.67242" lon="6.18468">
        <ele>228</ele>
        <time>2013-07-21T14:36:40Z</time>
      </trkpt>
      <trkpt lat="48.67247" lon="6.18461">
        <ele>230</ele>
        <time>2013-07-21T14:36:42Z</time>
      </trkpt>
      <trkpt lat="48.67252" lon="6.18455">
        <ele>231</ele>
        <time>2013-07-21T14:36:44Z</time>
      </trkpt>
      <trkpt lat="48.67258" lon="6.18449">
        <ele>231</ele>
        <time>2013-07-21T14:36:47Z</time>
      </trkpt>
      <trkpt lat="48.67263" lon="6.18444">
        <ele>234</ele>
        <time>2013-07-21T14:36:49Z</time>
      </trkpt>
      <trkpt lat="48.67269" lon="6.18438">
        <ele>231</ele>
        <time>2013-07-21T14:36:51Z</time>
      </trkpt>
      <trkpt lat="48.67275" lon="6.18431">
        <ele>230</ele>
        <time>2013-07-21T14:36:53Z</time>
      </trkpt>
      <trkpt lat="48.67281" lon="6.18423">
        <ele>228</ele>
        <time>2013-07-21T14:36:54Z</time>
      </trkpt>
      <trkpt lat="48.67286" lon="6.18414">
        <ele>229</ele>
        <time>2013-07-21T14:36:56Z</time>
      </trkpt>
      <trkpt lat="48.67292" lon="6.18406">
        <ele>230</ele>
        <time>2013-07-21T14:36:58Z</time>
      </trkpt>
      <trkpt lat="48.67297" lon="6.18398">
        <ele>230</ele>
        <time>2013-07-21T14:37:00Z</time>
      </trkpt>
      <trkpt lat="48.67299" lon="6.18395">
        <ele>230</ele>
        <time>2013-07-21T14:37:01Z</time>
      </trkpt>
      <trkpt lat="48.67302" lon="6.18391">
        <ele>228</ele>
        <time>2013-07-21T14:37:02Z</time>
      </trkpt>
      <trkpt lat="48.67308" lon="6.18384">
        <ele>225</ele>
        <time>2013-07-21T14:37:04Z</time>
      </trkpt>
      <trkpt lat="48.67313" lon="6.18376">
        <ele>224</ele>
        <time>2013-07-21T14:37:06Z</time>
      </trkpt>
      <trkpt lat="48.67318" lon="6.18369">
        <ele>226</ele>
        <time>2013-07-21T14:37:08Z</time>
      </trkpt>
      <trkpt lat="48.67324" lon="6.18363">
        <ele>227</ele>
        <time>2013-07-21T14:37:10Z</time>
      </trkpt>
      <trkpt lat="48.6733" lon="6.18355">
        <ele>226</ele>
        <time>2013-07-21T14:37:12Z</time>
      </trkpt>
      <trkpt lat="48.67336" lon="6.18347">
        <ele>224</ele>
        <time>2013-07-21T14:37:14Z</time>
      </trkpt>
      <trkpt lat="48.67342" lon="6.18339">
        <ele>225</ele>
        <time>2013-07-21T14:37:16Z</time>
      </trkpt>
      <trkpt lat="48.67346" lon="6.1833">
        <ele>226</ele>
        <time>2013-07-21T14:37:18Z</time>
      </trkpt>
      <trkpt lat="48.67347" lon="6.1832">
        <ele>226</ele>
        <time>2013-07-21T14:37:20Z</time>
      </trkpt>
      <trkpt lat="48.67348" lon="6.1831">
        <ele>225</ele>
        <time>2013-07-21T14:37:22Z</time>
      </trkpt>
      <trkpt lat="48.67343" lon="6.18302">
        <ele>225</ele>
        <time>2013-07-21T14:37:24Z</time>
      </trkpt>
      <trkpt lat="48.67337" lon="6.18295">
        <ele>223</ele>
        <time>2013-07-21T14:37:26Z</time>
      </trkpt>
      <trkpt lat="48.67335" lon="6.18291">
        <ele>222</ele>
        <time>2013-07-21T14:37:28Z</time>
      </trkpt>
      <trkpt lat="48.67333" lon="6.18287">
        <ele>221</ele>
        <time>2013-07-21T14:37:29Z</time>
      </trkpt>
      <trkpt lat="48.67331" lon="6.18283">
        <ele>221</ele>
        <time>2013-07-21T14:37:31Z</time>
      </trkpt>
      <trkpt lat="48.67328" lon="6.1828">
        <ele>222</ele>
        <time>2013-07-21T14:37:33Z</time>
      </trkpt>
      <trkpt lat="48.67324" lon="6.18276">
        <ele>222</ele>
        <time>2013-07-21T14:37:35Z</time>
      </trkpt>
      <trkpt lat="48.67323" lon="6.18272">
        <ele>224</ele>
        <time>2013-07-21T14:37:36Z</time>
      </trkpt>
      <trkpt lat="48.67318" lon="6.18265">
        <ele>224</ele>
        <time>2013-07-21T14:37:38Z</time>
      </trkpt>
      <trkpt lat="48.67313" lon="6.18258">
        <ele>223</ele>
        <time>2013-07-21T14:37:40Z</time>
      </trkpt>
      <trkpt lat="48.67308" lon="6.18252">
        <ele>224</ele>
        <time>2013-07-21T14:37:42Z</time>
      </trkpt>
      <trkpt lat="48.67302" lon="6.18245">
        <ele>222</ele>
        <time>2013-07-21T14:37:45Z</time>
      </trkpt>
      <trkpt lat="48.67297" lon="6.1824">
        <ele>225</ele>
        <time>2013-07-21T14:37:46Z</time>
      </trkpt>
      <trkpt lat="48.67292" lon="6.18234">
        <ele>228</ele>
        <time>2013-07-21T14:37:48Z</time>
      </trkpt>
      <trkpt lat="48.67286" lon="6.18226">
        <ele>226</ele>
        <time>2013-07-21T14:37:50Z</time>
      </trkpt>
      <trkpt lat="48.67273" lon="6.18205">
        <ele>225</ele>
        <time>2013-07-21T14:37:56Z</time>
      </trkpt>
      <trkpt lat="48.67268" lon="6.18198">
        <ele>225</ele>
        <time>2013-07-21T14:37:58Z</time>
      </trkpt>
      <trkpt lat="48.67263" lon="6.18193">
        <ele>225</ele>
        <time>2013-07-21T14:38:00Z</time>
      </trkpt>
      <trkpt lat="48.6726" lon="6.18187">
        <ele>225</ele>
        <time>2013-07-21T14:38:02Z</time>
      </trkpt>
      <trkpt lat="48.67256" lon="6.18182">
        <ele>226</ele>
        <time>2013-07-21T14:38:05Z</time>
      </trkpt>
      <trkpt lat="48.67252" lon="6.18175">
        <ele>226</ele>
        <time>2013-07-21T14:38:07Z</time>
      </trkpt>
      <trkpt lat="48.67245" lon="6.18168">
        <ele>225</ele>
        <time>2013-07-21T14:38:08Z</time>
      </trkpt>
      <trkpt lat="48.6724" lon="6.18163">
        <ele>225</ele>
        <time>2013-07-21T14:38:10Z</time>
      </trkpt>
      <trkpt lat="48.67236" lon="6.18159">
        <ele>226</ele>
        <time>2013-07-21T14:38:12Z</time>
      </trkpt>
      <trkpt lat="48.67231" lon="6.18153">
        <ele>226</ele>
        <time>2013-07-21T14:38:15Z</time>
      </trkpt>
      <trkpt lat="48.67227" lon="6.18148">
        <ele>226</ele>
        <time>2013-07-21T14:38:16Z</time>
      </trkpt>
      <trkpt lat="48.67218" lon="6.18137">
        <ele>226</ele>
        <time>2013-07-21T14:38:21Z</time>
      </trkpt>
      <trkpt lat="48.67215" lon="6.18133">
        <ele>229</ele>
        <time>2013-07-21T14:38:22Z</time>
      </trkpt>
      <trkpt lat="48.67211" lon="6.18127">
        <ele>230</ele>
        <time>2013-07-21T14:38:24Z</time>
      </trkpt>
      <trkpt lat="48.67207" lon="6.18121">
        <ele>229</ele>
        <time>2013-07-21T14:38:26Z</time>
      </trkpt>
      <trkpt lat="48.67203" lon="6.18114">
        <ele>230</ele>
        <time>2013-07-21T14:38:28Z</time>
      </trkpt>
      <trkpt lat="48.67199" lon="6.18108">
        <ele>229</ele>
        <time>2013-07-21T14:38:30Z</time>
      </trkpt>
      <trkpt lat="48.67194" lon="6.18099">
        <ele>228</ele>
        <time>2013-07-21T14:38:32Z</time>
      </trkpt>
      <trkpt lat="48.67187" lon="6.18084">
        <ele>228</ele>
        <time>2013-07-21T14:38:36Z</time>
      </trkpt>
      <trkpt lat="48.67187" lon="6.18081">
        <ele>229</ele>
        <time>2013-07-21T14:38:38Z</time>
      </trkpt>
      <trkpt lat="48.67188" lon="6.18078">
        <ele>231</ele>
        <time>2013-07-21T14:38:38Z</time>
      </trkpt>
      <trkpt lat="48.67199" lon="6.18064">
        <ele>233</ele>
        <time>2013-07-21T14:38:42Z</time>
      </trkpt>
      <trkpt lat="48.67205" lon="6.18056">
        <ele>234</ele>
        <time>2013-07-21T14:38:44Z</time>
      </trkpt>
      <trkpt lat="48.6721" lon="6.18049">
        <ele>234</ele>
        <time>2013-07-21T14:38:46Z</time>
      </trkpt>
      <trkpt lat="48.67217" lon="6.18044">
        <ele>238</ele>
        <time>2013-07-21T14:38:49Z</time>
      </trkpt>
      <trkpt lat="48.67224" lon="6.18037">
        <ele>239</ele>
        <time>2013-07-21T14:38:51Z</time>
      </trkpt>
      <trkpt lat="48.6723" lon="6.1803">
        <ele>239</ele>
        <time>2013-07-21T14:38:53Z</time>
      </trkpt>
      <trkpt lat="48.67236" lon="6.18023">
        <ele>237</ele>
        <time>2013-07-21T14:38:55Z</time>
      </trkpt>
      <trkpt lat="48.67242" lon="6.18015">
        <ele>238</ele>
        <time>2013-07-21T14:38:57Z</time>
      </trkpt>
      <trkpt lat="48.6725" lon="6.18006">
        <ele>239</ele>
        <time>2013-07-21T14:38:59Z</time>
      </trkpt>
      <trkpt lat="48.67259" lon="6.17996">
        <ele>237</ele>
        <time>2013-07-21T14:39:01Z</time>
      </trkpt>
      <trkpt lat="48.67268" lon="6.17985">
        <ele>236</ele>
        <time>2013-07-21T14:39:03Z</time>
      </trkpt>
      <trkpt lat="48.67277" lon="6.17975">
        <ele>233</ele>
        <time>2013-07-21T14:39:04Z</time>
      </trkpt>
      <trkpt lat="48.67285" lon="6.17968">
        <ele>234</ele>
        <time>2013-07-21T14:39:06Z</time>
      </trkpt>
      <trkpt lat="48.67293" lon="6.17959">
        <ele>234</ele>
        <time>2013-07-21T14:39:08Z</time>
      </trkpt>
      <trkpt lat="48.67301" lon="6.17947">
        <ele>233</ele>
        <time>2013-07-21T14:39:10Z</time>
      </trkpt>
      <trkpt lat="48.67309" lon="6.17936">
        <ele>233</ele>
        <time>2013-07-21T14:39:12Z</time>
      </trkpt>
      <trkpt lat="48.67315" lon="6.17926">
        <ele>230</ele>
        <time>2013-07-21T14:39:14Z</time>
      </trkpt>
      <trkpt lat="48.67319" lon="6.17917">
        <ele>231</ele>
        <time>2013-07-21T14:39:16Z</time>
      </trkpt>
      <trkpt lat="48.67322" lon="6.17911">
        <ele>224</ele>
        <time>2013-07-21T14:39:20Z</time>
      </trkpt>
      <trkpt lat="48.67324" lon="6.17909">
        <ele>219</ele>
        <time>2013-07-21T14:39:22Z</time>
      </trkpt>
      <trkpt lat="48.67325" lon="6.17911">
        <ele>215</ele>
        <time>2013-07-21T14:39:29Z</time>
      </trkpt>
      <trkpt lat="48.67324" lon="6.17913">
        <ele>214</ele>
        <time>2013-07-21T14:39:31Z</time>
      </trkpt>
    </trkseg>
  </trk>
</gpx>